<?xml version="1.0" encoding="UTF-8" standalone="no" ?>
<gpx xmlns="http://www.topografix.com/GPX/1/1" xmlns:xsi="http://www.w3.org/2001/XMLSchema-instance" xsi:schemaLocation="http://www.topografix.com/GPX/1/1 http://www.topografix.com/GPX/1/1/gpx.xsd" version="1.1" creator="VisuGPX - https://www.visugpx.com">
  <metadata>
    <name>430_Circuit 95 km Les Herbiers_Les Herbiers édité par cth85.com</name>
    <desc><![CDATA[Circuit de 95 km passant par:
Les Herbiers
la pellinière, coup de brisque, l'ormeau
Chambretaud
le bois niard, direction D72 sur 1200 m
àgauche, l'armandière, D160, 
D72 La Verrie
D6, D960T, Mortagne sur Sèvre
Saint Christophe du Bois par piste D160
La Séguinière
Le May sur Evre
Andrezé
D246 Saint Philbert en Mauges
D146 La Renaudière
D146 Roussay
D146 Torfou
Tiffauges
D9 direction La Gaubretière, 
D755 Les Herbiers]]></desc>
  </metadata>
  <trk>
    <name><![CDATA[95_430-cth85.com]]></name>
    <extensions>
      <line xmlns="http://www.topografix.com/GPX/gpx_style/0/2">
        <color>0000FF</color>
        <width>4</width>
      </line>
    </extensions>
    <trkseg>
      <trkpt lat="46.86367" lon="-1.00581">
        <ele>120</ele>
        <time>2023-05-31T21:27:08Z</time>
      </trkpt>
      <trkpt lat="46.86381" lon="-1.00562">
        <ele>120</ele>
        <time>2023-05-31T21:27:11Z</time>
      </trkpt>
      <trkpt lat="46.86391" lon="-1.00556">
        <ele>120</ele>
        <time>2023-05-31T21:27:13Z</time>
      </trkpt>
      <trkpt lat="46.86426" lon="-1.00564">
        <ele>120</ele>
        <time>2023-05-31T21:27:20Z</time>
      </trkpt>
      <trkpt lat="46.86461" lon="-1.00561">
        <ele>120</ele>
        <time>2023-05-31T21:27:26Z</time>
      </trkpt>
      <trkpt lat="46.86495" lon="-1.00567">
        <ele>119</ele>
        <time>2023-05-31T21:27:32Z</time>
      </trkpt>
      <trkpt lat="46.86523" lon="-1.00577">
        <ele>118</ele>
        <time>2023-05-31T21:27:37Z</time>
      </trkpt>
      <trkpt lat="46.86556" lon="-1.006">
        <ele>117</ele>
        <time>2023-05-31T21:27:44Z</time>
      </trkpt>
      <trkpt lat="46.86595" lon="-1.00621">
        <ele>116</ele>
        <time>2023-05-31T21:27:51Z</time>
      </trkpt>
      <trkpt lat="46.86664" lon="-1.00646">
        <ele>111</ele>
        <time>2023-05-31T21:28:04Z</time>
      </trkpt>
      <trkpt lat="46.86708" lon="-1.0066">
        <ele>111</ele>
        <time>2023-05-31T21:28:12Z</time>
      </trkpt>
      <trkpt lat="46.86712" lon="-1.00666">
        <ele>111</ele>
        <time>2023-05-31T21:28:13Z</time>
      </trkpt>
      <trkpt lat="46.86714" lon="-1.00674">
        <ele>111</ele>
        <time>2023-05-31T21:28:14Z</time>
      </trkpt>
      <trkpt lat="46.86765" lon="-1.00654">
        <ele>111</ele>
        <time>2023-05-31T21:28:23Z</time>
      </trkpt>
      <trkpt lat="46.86836" lon="-1.00634">
        <ele>112</ele>
        <time>2023-05-31T21:28:36Z</time>
      </trkpt>
      <trkpt lat="46.86853" lon="-1.00633">
        <ele>112</ele>
        <time>2023-05-31T21:28:39Z</time>
      </trkpt>
      <trkpt lat="46.86937" lon="-1.00661">
        <ele>109</ele>
        <time>2023-05-31T21:28:54Z</time>
      </trkpt>
      <trkpt lat="46.86948" lon="-1.00671">
        <ele>109</ele>
        <time>2023-05-31T21:28:57Z</time>
      </trkpt>
      <trkpt lat="46.86977" lon="-1.00669">
        <ele>108</ele>
        <time>2023-05-31T21:29:02Z</time>
      </trkpt>
      <trkpt lat="46.87023" lon="-1.0072">
        <ele>105</ele>
        <time>2023-05-31T21:29:12Z</time>
      </trkpt>
      <trkpt lat="46.87041" lon="-1.00737">
        <ele>105</ele>
        <time>2023-05-31T21:29:16Z</time>
      </trkpt>
      <trkpt lat="46.87045" lon="-1.00657">
        <ele>105</ele>
        <time>2023-05-31T21:29:26Z</time>
      </trkpt>
      <trkpt lat="46.87051" lon="-1.00622">
        <ele>104</ele>
        <time>2023-05-31T21:29:30Z</time>
      </trkpt>
      <trkpt lat="46.87052" lon="-1.00604">
        <ele>104</ele>
        <time>2023-05-31T21:29:32Z</time>
      </trkpt>
      <trkpt lat="46.87049" lon="-1.00582">
        <ele>104</ele>
        <time>2023-05-31T21:29:35Z</time>
      </trkpt>
      <trkpt lat="46.87037" lon="-1.00539">
        <ele>105</ele>
        <time>2023-05-31T21:29:41Z</time>
      </trkpt>
      <trkpt lat="46.87021" lon="-1.00492">
        <ele>105</ele>
        <time>2023-05-31T21:29:47Z</time>
      </trkpt>
      <trkpt lat="46.87011" lon="-1.00447">
        <ele>104</ele>
        <time>2023-05-31T21:29:53Z</time>
      </trkpt>
      <trkpt lat="46.87002" lon="-1.00378">
        <ele>104</ele>
        <time>2023-05-31T21:30:01Z</time>
      </trkpt>
      <trkpt lat="46.86987" lon="-1.00232">
        <ele>107</ele>
        <time>2023-05-31T21:30:19Z</time>
      </trkpt>
      <trkpt lat="46.86985" lon="-1.00167">
        <ele>108</ele>
        <time>2023-05-31T21:30:27Z</time>
      </trkpt>
      <trkpt lat="46.86982" lon="-1.00129">
        <ele>110</ele>
        <time>2023-05-31T21:30:32Z</time>
      </trkpt>
      <trkpt lat="46.87067" lon="-1.00102">
        <ele>108</ele>
        <time>2023-05-31T21:30:47Z</time>
      </trkpt>
      <trkpt lat="46.8708" lon="-1.00105">
        <ele>108</ele>
        <time>2023-05-31T21:30:50Z</time>
      </trkpt>
      <trkpt lat="46.8712" lon="-1.00031">
        <ele>108</ele>
        <time>2023-05-31T21:31:01Z</time>
      </trkpt>
      <trkpt lat="46.87132" lon="-1.0002">
        <ele>107</ele>
        <time>2023-05-31T21:31:04Z</time>
      </trkpt>
      <trkpt lat="46.87205" lon="-0.99996">
        <ele>108</ele>
        <time>2023-05-31T21:31:17Z</time>
      </trkpt>
      <trkpt lat="46.87257" lon="-0.99981">
        <ele>111</ele>
        <time>2023-05-31T21:31:26Z</time>
      </trkpt>
      <trkpt lat="46.87339" lon="-0.99953">
        <ele>120</ele>
        <time>2023-05-31T21:31:41Z</time>
      </trkpt>
      <trkpt lat="46.874" lon="-0.99926">
        <ele>121</ele>
        <time>2023-05-31T21:31:53Z</time>
      </trkpt>
      <trkpt lat="46.87407" lon="-0.99917">
        <ele>121</ele>
        <time>2023-05-31T21:31:54Z</time>
      </trkpt>
      <trkpt lat="46.87415" lon="-0.99898">
        <ele>121</ele>
        <time>2023-05-31T21:31:57Z</time>
      </trkpt>
      <trkpt lat="46.87423" lon="-0.99868">
        <ele>121</ele>
        <time>2023-05-31T21:32:01Z</time>
      </trkpt>
      <trkpt lat="46.87429" lon="-0.99815">
        <ele>122</ele>
        <time>2023-05-31T21:32:08Z</time>
      </trkpt>
      <trkpt lat="46.87429" lon="-0.99786">
        <ele>123</ele>
        <time>2023-05-31T21:32:11Z</time>
      </trkpt>
      <trkpt lat="46.87434" lon="-0.99778">
        <ele>123</ele>
        <time>2023-05-31T21:32:12Z</time>
      </trkpt>
      <trkpt lat="46.87436" lon="-0.99766">
        <ele>123</ele>
        <time>2023-05-31T21:32:14Z</time>
      </trkpt>
      <trkpt lat="46.87434" lon="-0.99751">
        <ele>124</ele>
        <time>2023-05-31T21:32:16Z</time>
      </trkpt>
      <trkpt lat="46.87429" lon="-0.99683">
        <ele>126</ele>
        <time>2023-05-31T21:32:24Z</time>
      </trkpt>
      <trkpt lat="46.87427" lon="-0.99642">
        <ele>127</ele>
        <time>2023-05-31T21:32:29Z</time>
      </trkpt>
      <trkpt lat="46.87421" lon="-0.99553">
        <ele>128</ele>
        <time>2023-05-31T21:32:40Z</time>
      </trkpt>
      <trkpt lat="46.87413" lon="-0.99463">
        <ele>127</ele>
        <time>2023-05-31T21:32:51Z</time>
      </trkpt>
      <trkpt lat="46.874" lon="-0.99394">
        <ele>127</ele>
        <time>2023-05-31T21:33:00Z</time>
      </trkpt>
      <trkpt lat="46.87381" lon="-0.99333">
        <ele>127</ele>
        <time>2023-05-31T21:33:08Z</time>
      </trkpt>
      <trkpt lat="46.87377" lon="-0.99299">
        <ele>128</ele>
        <time>2023-05-31T21:33:12Z</time>
      </trkpt>
      <trkpt lat="46.87381" lon="-0.99222">
        <ele>131</ele>
        <time>2023-05-31T21:33:21Z</time>
      </trkpt>
      <trkpt lat="46.87383" lon="-0.99173">
        <ele>132</ele>
        <time>2023-05-31T21:33:27Z</time>
      </trkpt>
      <trkpt lat="46.8739" lon="-0.99143">
        <ele>133</ele>
        <time>2023-05-31T21:33:31Z</time>
      </trkpt>
      <trkpt lat="46.87398" lon="-0.99121">
        <ele>133</ele>
        <time>2023-05-31T21:33:34Z</time>
      </trkpt>
      <trkpt lat="46.87411" lon="-0.99053">
        <ele>135</ele>
        <time>2023-05-31T21:33:43Z</time>
      </trkpt>
      <trkpt lat="46.87414" lon="-0.99011">
        <ele>137</ele>
        <time>2023-05-31T21:33:48Z</time>
      </trkpt>
      <trkpt lat="46.87414" lon="-0.98963">
        <ele>137</ele>
        <time>2023-05-31T21:33:54Z</time>
      </trkpt>
      <trkpt lat="46.87404" lon="-0.98906">
        <ele>138</ele>
        <time>2023-05-31T21:34:01Z</time>
      </trkpt>
      <trkpt lat="46.87397" lon="-0.98839">
        <ele>139</ele>
        <time>2023-05-31T21:34:09Z</time>
      </trkpt>
      <trkpt lat="46.87402" lon="-0.98749">
        <ele>141</ele>
        <time>2023-05-31T21:34:20Z</time>
      </trkpt>
      <trkpt lat="46.8741" lon="-0.98662">
        <ele>145</ele>
        <time>2023-05-31T21:34:31Z</time>
      </trkpt>
      <trkpt lat="46.87407" lon="-0.98624">
        <ele>146</ele>
        <time>2023-05-31T21:34:36Z</time>
      </trkpt>
      <trkpt lat="46.87386" lon="-0.98457">
        <ele>150</ele>
        <time>2023-05-31T21:34:56Z</time>
      </trkpt>
      <trkpt lat="46.87382" lon="-0.98372">
        <ele>152</ele>
        <time>2023-05-31T21:35:07Z</time>
      </trkpt>
      <trkpt lat="46.87382" lon="-0.98306">
        <ele>155</ele>
        <time>2023-05-31T21:35:15Z</time>
      </trkpt>
      <trkpt lat="46.87392" lon="-0.98221">
        <ele>159</ele>
        <time>2023-05-31T21:35:25Z</time>
      </trkpt>
      <trkpt lat="46.87406" lon="-0.98158">
        <ele>162</ele>
        <time>2023-05-31T21:35:33Z</time>
      </trkpt>
      <trkpt lat="46.87405" lon="-0.98147">
        <ele>162</ele>
        <time>2023-05-31T21:35:34Z</time>
      </trkpt>
      <trkpt lat="46.87377" lon="-0.98099">
        <ele>160</ele>
        <time>2023-05-31T21:35:42Z</time>
      </trkpt>
      <trkpt lat="46.87408" lon="-0.98062">
        <ele>162</ele>
        <time>2023-05-31T21:35:49Z</time>
      </trkpt>
      <trkpt lat="46.8743" lon="-0.98042">
        <ele>163</ele>
        <time>2023-05-31T21:35:54Z</time>
      </trkpt>
      <trkpt lat="46.87442" lon="-0.98034">
        <ele>164</ele>
        <time>2023-05-31T21:35:56Z</time>
      </trkpt>
      <trkpt lat="46.87455" lon="-0.98027">
        <ele>164</ele>
        <time>2023-05-31T21:35:59Z</time>
      </trkpt>
      <trkpt lat="46.87538" lon="-0.97997">
        <ele>165</ele>
        <time>2023-05-31T21:36:14Z</time>
      </trkpt>
      <trkpt lat="46.87564" lon="-0.97985">
        <ele>165</ele>
        <time>2023-05-31T21:36:19Z</time>
      </trkpt>
      <trkpt lat="46.87576" lon="-0.97976">
        <ele>166</ele>
        <time>2023-05-31T21:36:21Z</time>
      </trkpt>
      <trkpt lat="46.87624" lon="-0.97935">
        <ele>167</ele>
        <time>2023-05-31T21:36:31Z</time>
      </trkpt>
      <trkpt lat="46.87666" lon="-0.97889">
        <ele>170</ele>
        <time>2023-05-31T21:36:40Z</time>
      </trkpt>
      <trkpt lat="46.8769" lon="-0.97871">
        <ele>171</ele>
        <time>2023-05-31T21:36:45Z</time>
      </trkpt>
      <trkpt lat="46.87725" lon="-0.97861">
        <ele>172</ele>
        <time>2023-05-31T21:36:52Z</time>
      </trkpt>
      <trkpt lat="46.87804" lon="-0.97848">
        <ele>171</ele>
        <time>2023-05-31T21:37:06Z</time>
      </trkpt>
      <trkpt lat="46.87912" lon="-0.97804">
        <ele>168</ele>
        <time>2023-05-31T21:37:26Z</time>
      </trkpt>
      <trkpt lat="46.87953" lon="-0.97791">
        <ele>168</ele>
        <time>2023-05-31T21:37:33Z</time>
      </trkpt>
      <trkpt lat="46.88038" lon="-0.97783">
        <ele>170</ele>
        <time>2023-05-31T21:37:48Z</time>
      </trkpt>
      <trkpt lat="46.88045" lon="-0.9778">
        <ele>171</ele>
        <time>2023-05-31T21:37:50Z</time>
      </trkpt>
      <trkpt lat="46.8805" lon="-0.97776">
        <ele>171</ele>
        <time>2023-05-31T21:37:51Z</time>
      </trkpt>
      <trkpt lat="46.88057" lon="-0.97762">
        <ele>172</ele>
        <time>2023-05-31T21:37:53Z</time>
      </trkpt>
      <trkpt lat="46.88076" lon="-0.97681">
        <ele>175</ele>
        <time>2023-05-31T21:38:03Z</time>
      </trkpt>
      <trkpt lat="46.88121" lon="-0.97572">
        <ele>182</ele>
        <time>2023-05-31T21:38:19Z</time>
      </trkpt>
      <trkpt lat="46.88135" lon="-0.97534">
        <ele>184</ele>
        <time>2023-05-31T21:38:24Z</time>
      </trkpt>
      <trkpt lat="46.88148" lon="-0.9749">
        <ele>186</ele>
        <time>2023-05-31T21:38:30Z</time>
      </trkpt>
      <trkpt lat="46.88157" lon="-0.97452">
        <ele>187</ele>
        <time>2023-05-31T21:38:35Z</time>
      </trkpt>
      <trkpt lat="46.88178" lon="-0.973">
        <ele>197</ele>
        <time>2023-05-31T21:38:53Z</time>
      </trkpt>
      <trkpt lat="46.8819" lon="-0.97264">
        <ele>199</ele>
        <time>2023-05-31T21:38:58Z</time>
      </trkpt>
      <trkpt lat="46.88214" lon="-0.97205">
        <ele>205</ele>
        <time>2023-05-31T21:39:07Z</time>
      </trkpt>
      <trkpt lat="46.88253" lon="-0.97134">
        <ele>213</ele>
        <time>2023-05-31T21:39:18Z</time>
      </trkpt>
      <trkpt lat="46.88391" lon="-0.96917">
        <ele>224</ele>
        <time>2023-05-31T21:39:54Z</time>
      </trkpt>
      <trkpt lat="46.88397" lon="-0.96908">
        <ele>225</ele>
        <time>2023-05-31T21:39:55Z</time>
      </trkpt>
      <trkpt lat="46.884" lon="-0.96899">
        <ele>224</ele>
        <time>2023-05-31T21:39:56Z</time>
      </trkpt>
      <trkpt lat="46.88408" lon="-0.96897">
        <ele>225</ele>
        <time>2023-05-31T21:39:58Z</time>
      </trkpt>
      <trkpt lat="46.88457" lon="-0.96869">
        <ele>222</ele>
        <time>2023-05-31T21:40:07Z</time>
      </trkpt>
      <trkpt lat="46.88461" lon="-0.96869">
        <ele>222</ele>
        <time>2023-05-31T21:40:08Z</time>
      </trkpt>
      <trkpt lat="46.88467" lon="-0.96873">
        <ele>222</ele>
        <time>2023-05-31T21:40:09Z</time>
      </trkpt>
      <trkpt lat="46.88541" lon="-0.96964">
        <ele>226</ele>
        <time>2023-05-31T21:40:26Z</time>
      </trkpt>
      <trkpt lat="46.88572" lon="-0.96997">
        <ele>227</ele>
        <time>2023-05-31T21:40:33Z</time>
      </trkpt>
      <trkpt lat="46.88668" lon="-0.97107">
        <ele>225</ele>
        <time>2023-05-31T21:40:55Z</time>
      </trkpt>
      <trkpt lat="46.88714" lon="-0.97144">
        <ele>226</ele>
        <time>2023-05-31T21:41:04Z</time>
      </trkpt>
      <trkpt lat="46.88765" lon="-0.97178">
        <ele>228</ele>
        <time>2023-05-31T21:41:14Z</time>
      </trkpt>
      <trkpt lat="46.88831" lon="-0.97212">
        <ele>231</ele>
        <time>2023-05-31T21:41:27Z</time>
      </trkpt>
      <trkpt lat="46.88876" lon="-0.97233">
        <ele>234</ele>
        <time>2023-05-31T21:41:35Z</time>
      </trkpt>
      <trkpt lat="46.88913" lon="-0.9724">
        <ele>236</ele>
        <time>2023-05-31T21:41:42Z</time>
      </trkpt>
      <trkpt lat="46.88986" lon="-0.97242">
        <ele>237</ele>
        <time>2023-05-31T21:41:55Z</time>
      </trkpt>
      <trkpt lat="46.8901" lon="-0.97236">
        <ele>237</ele>
        <time>2023-05-31T21:41:59Z</time>
      </trkpt>
      <trkpt lat="46.89052" lon="-0.97216">
        <ele>235</ele>
        <time>2023-05-31T21:42:07Z</time>
      </trkpt>
      <trkpt lat="46.89086" lon="-0.97193">
        <ele>234</ele>
        <time>2023-05-31T21:42:14Z</time>
      </trkpt>
      <trkpt lat="46.89148" lon="-0.97132">
        <ele>231</ele>
        <time>2023-05-31T21:42:27Z</time>
      </trkpt>
      <trkpt lat="46.89173" lon="-0.9711">
        <ele>230</ele>
        <time>2023-05-31T21:42:32Z</time>
      </trkpt>
      <trkpt lat="46.89212" lon="-0.97095">
        <ele>230</ele>
        <time>2023-05-31T21:42:39Z</time>
      </trkpt>
      <trkpt lat="46.8925" lon="-0.97096">
        <ele>230</ele>
        <time>2023-05-31T21:42:46Z</time>
      </trkpt>
      <trkpt lat="46.89292" lon="-0.97081">
        <ele>228</ele>
        <time>2023-05-31T21:42:54Z</time>
      </trkpt>
      <trkpt lat="46.89383" lon="-0.97036">
        <ele>227</ele>
        <time>2023-05-31T21:43:11Z</time>
      </trkpt>
      <trkpt lat="46.89411" lon="-0.97001">
        <ele>228</ele>
        <time>2023-05-31T21:43:17Z</time>
      </trkpt>
      <trkpt lat="46.89525" lon="-0.96816">
        <ele>223</ele>
        <time>2023-05-31T21:43:48Z</time>
      </trkpt>
      <trkpt lat="46.89627" lon="-0.96661">
        <ele>215</ele>
        <time>2023-05-31T21:44:14Z</time>
      </trkpt>
      <trkpt lat="46.89642" lon="-0.96646">
        <ele>214</ele>
        <time>2023-05-31T21:44:17Z</time>
      </trkpt>
      <trkpt lat="46.89705" lon="-0.96624">
        <ele>211</ele>
        <time>2023-05-31T21:44:28Z</time>
      </trkpt>
      <trkpt lat="46.89789" lon="-0.9658">
        <ele>207</ele>
        <time>2023-05-31T21:44:44Z</time>
      </trkpt>
      <trkpt lat="46.89813" lon="-0.96587">
        <ele>206</ele>
        <time>2023-05-31T21:44:49Z</time>
      </trkpt>
      <trkpt lat="46.89898" lon="-0.96671">
        <ele>201</ele>
        <time>2023-05-31T21:45:07Z</time>
      </trkpt>
      <trkpt lat="46.89972" lon="-0.96707">
        <ele>198</ele>
        <time>2023-05-31T21:45:21Z</time>
      </trkpt>
      <trkpt lat="46.90004" lon="-0.96728">
        <ele>196</ele>
        <time>2023-05-31T21:45:27Z</time>
      </trkpt>
      <trkpt lat="46.90043" lon="-0.96758">
        <ele>195</ele>
        <time>2023-05-31T21:45:35Z</time>
      </trkpt>
      <trkpt lat="46.90084" lon="-0.96799">
        <ele>195</ele>
        <time>2023-05-31T21:45:44Z</time>
      </trkpt>
      <trkpt lat="46.90146" lon="-0.96867">
        <ele>195</ele>
        <time>2023-05-31T21:45:58Z</time>
      </trkpt>
      <trkpt lat="46.90199" lon="-0.96916">
        <ele>196</ele>
        <time>2023-05-31T21:46:09Z</time>
      </trkpt>
      <trkpt lat="46.90226" lon="-0.96937">
        <ele>197</ele>
        <time>2023-05-31T21:46:14Z</time>
      </trkpt>
      <trkpt lat="46.90271" lon="-0.96967">
        <ele>199</ele>
        <time>2023-05-31T21:46:23Z</time>
      </trkpt>
      <trkpt lat="46.90288" lon="-0.96966">
        <ele>199</ele>
        <time>2023-05-31T21:46:26Z</time>
      </trkpt>
      <trkpt lat="46.90395" lon="-0.9693">
        <ele>199</ele>
        <time>2023-05-31T21:46:46Z</time>
      </trkpt>
      <trkpt lat="46.90502" lon="-0.96898">
        <ele>198</ele>
        <time>2023-05-31T21:47:05Z</time>
      </trkpt>
      <trkpt lat="46.90551" lon="-0.96863">
        <ele>198</ele>
        <time>2023-05-31T21:47:15Z</time>
      </trkpt>
      <trkpt lat="46.90597" lon="-0.96847">
        <ele>199</ele>
        <time>2023-05-31T21:47:23Z</time>
      </trkpt>
      <trkpt lat="46.90671" lon="-0.96831">
        <ele>203</ele>
        <time>2023-05-31T21:47:36Z</time>
      </trkpt>
      <trkpt lat="46.90702" lon="-0.96823">
        <ele>205</ele>
        <time>2023-05-31T21:47:42Z</time>
      </trkpt>
      <trkpt lat="46.90724" lon="-0.96809">
        <ele>206</ele>
        <time>2023-05-31T21:47:46Z</time>
      </trkpt>
      <trkpt lat="46.90837" lon="-0.96724">
        <ele>208</ele>
        <time>2023-05-31T21:48:09Z</time>
      </trkpt>
      <trkpt lat="46.90863" lon="-0.96709">
        <ele>208</ele>
        <time>2023-05-31T21:48:14Z</time>
      </trkpt>
      <trkpt lat="46.90884" lon="-0.96705">
        <ele>208</ele>
        <time>2023-05-31T21:48:18Z</time>
      </trkpt>
      <trkpt lat="46.9091" lon="-0.96708">
        <ele>208</ele>
        <time>2023-05-31T21:48:22Z</time>
      </trkpt>
      <trkpt lat="46.90942" lon="-0.96721">
        <ele>209</ele>
        <time>2023-05-31T21:48:28Z</time>
      </trkpt>
      <trkpt lat="46.90958" lon="-0.96732">
        <ele>210</ele>
        <time>2023-05-31T21:48:31Z</time>
      </trkpt>
      <trkpt lat="46.91018" lon="-0.96784">
        <ele>212</ele>
        <time>2023-05-31T21:48:44Z</time>
      </trkpt>
      <trkpt lat="46.91075" lon="-0.96829">
        <ele>214</ele>
        <time>2023-05-31T21:48:55Z</time>
      </trkpt>
      <trkpt lat="46.9111" lon="-0.96851">
        <ele>214</ele>
        <time>2023-05-31T21:49:02Z</time>
      </trkpt>
      <trkpt lat="46.91219" lon="-0.96909">
        <ele>214</ele>
        <time>2023-05-31T21:49:23Z</time>
      </trkpt>
      <trkpt lat="46.91247" lon="-0.96919">
        <ele>214</ele>
        <time>2023-05-31T21:49:28Z</time>
      </trkpt>
      <trkpt lat="46.91257" lon="-0.96919">
        <ele>214</ele>
        <time>2023-05-31T21:49:30Z</time>
      </trkpt>
      <trkpt lat="46.9139" lon="-0.96818">
        <ele>214</ele>
        <time>2023-05-31T21:49:56Z</time>
      </trkpt>
      <trkpt lat="46.91407" lon="-0.96809">
        <ele>214</ele>
        <time>2023-05-31T21:49:59Z</time>
      </trkpt>
      <trkpt lat="46.91418" lon="-0.96805">
        <ele>214</ele>
        <time>2023-05-31T21:50:01Z</time>
      </trkpt>
      <trkpt lat="46.91439" lon="-0.96805">
        <ele>215</ele>
        <time>2023-05-31T21:50:05Z</time>
      </trkpt>
      <trkpt lat="46.91464" lon="-0.96807">
        <ele>217</ele>
        <time>2023-05-31T21:50:10Z</time>
      </trkpt>
      <trkpt lat="46.91627" lon="-0.96827">
        <ele>223</ele>
        <time>2023-05-31T21:50:39Z</time>
      </trkpt>
      <trkpt lat="46.91693" lon="-0.9683">
        <ele>221</ele>
        <time>2023-05-31T21:50:50Z</time>
      </trkpt>
      <trkpt lat="46.9173" lon="-0.96833">
        <ele>216</ele>
        <time>2023-05-31T21:50:57Z</time>
      </trkpt>
      <trkpt lat="46.91791" lon="-0.9684">
        <ele>212</ele>
        <time>2023-05-31T21:51:08Z</time>
      </trkpt>
      <trkpt lat="46.91875" lon="-0.96835">
        <ele>208</ele>
        <time>2023-05-31T21:51:23Z</time>
      </trkpt>
      <trkpt lat="46.91898" lon="-0.96836">
        <ele>208</ele>
        <time>2023-05-31T21:51:27Z</time>
      </trkpt>
      <trkpt lat="46.91914" lon="-0.96842">
        <ele>207</ele>
        <time>2023-05-31T21:51:30Z</time>
      </trkpt>
      <trkpt lat="46.91959" lon="-0.96873">
        <ele>209</ele>
        <time>2023-05-31T21:51:39Z</time>
      </trkpt>
      <trkpt lat="46.92051" lon="-0.96765">
        <ele>208</ele>
        <time>2023-05-31T21:52:00Z</time>
      </trkpt>
      <trkpt lat="46.92055" lon="-0.96774">
        <ele>208</ele>
        <time>2023-05-31T21:52:01Z</time>
      </trkpt>
      <trkpt lat="46.92051" lon="-0.96765">
        <ele>208</ele>
        <time>2023-05-31T21:52:02Z</time>
      </trkpt>
      <trkpt lat="46.92077" lon="-0.96737">
        <ele>208</ele>
        <time>2023-05-31T21:52:08Z</time>
      </trkpt>
      <trkpt lat="46.92112" lon="-0.96677">
        <ele>206</ele>
        <time>2023-05-31T21:52:18Z</time>
      </trkpt>
      <trkpt lat="46.92141" lon="-0.96623">
        <ele>206</ele>
        <time>2023-05-31T21:52:26Z</time>
      </trkpt>
      <trkpt lat="46.92159" lon="-0.96597">
        <ele>206</ele>
        <time>2023-05-31T21:52:31Z</time>
      </trkpt>
      <trkpt lat="46.9218" lon="-0.96574">
        <ele>205</ele>
        <time>2023-05-31T21:52:35Z</time>
      </trkpt>
      <trkpt lat="46.92176" lon="-0.96541">
        <ele>206</ele>
        <time>2023-05-31T21:52:39Z</time>
      </trkpt>
      <trkpt lat="46.92186" lon="-0.96483">
        <ele>206</ele>
        <time>2023-05-31T21:52:47Z</time>
      </trkpt>
      <trkpt lat="46.92198" lon="-0.96437">
        <ele>204</ele>
        <time>2023-05-31T21:52:53Z</time>
      </trkpt>
      <trkpt lat="46.9221" lon="-0.9641">
        <ele>203</ele>
        <time>2023-05-31T21:52:56Z</time>
      </trkpt>
      <trkpt lat="46.92266" lon="-0.96314">
        <ele>201</ele>
        <time>2023-05-31T21:53:12Z</time>
      </trkpt>
      <trkpt lat="46.92271" lon="-0.96297">
        <ele>200</ele>
        <time>2023-05-31T21:53:14Z</time>
      </trkpt>
      <trkpt lat="46.92272" lon="-0.96286">
        <ele>200</ele>
        <time>2023-05-31T21:53:15Z</time>
      </trkpt>
      <trkpt lat="46.92278" lon="-0.96283">
        <ele>200</ele>
        <time>2023-05-31T21:53:17Z</time>
      </trkpt>
      <trkpt lat="46.92284" lon="-0.96273">
        <ele>199</ele>
        <time>2023-05-31T21:53:18Z</time>
      </trkpt>
      <trkpt lat="46.92334" lon="-0.96147">
        <ele>198</ele>
        <time>2023-05-31T21:53:36Z</time>
      </trkpt>
      <trkpt lat="46.92345" lon="-0.9611">
        <ele>198</ele>
        <time>2023-05-31T21:53:41Z</time>
      </trkpt>
      <trkpt lat="46.92352" lon="-0.96067">
        <ele>198</ele>
        <time>2023-05-31T21:53:46Z</time>
      </trkpt>
      <trkpt lat="46.92369" lon="-0.95883">
        <ele>202</ele>
        <time>2023-05-31T21:54:09Z</time>
      </trkpt>
      <trkpt lat="46.92373" lon="-0.95872">
        <ele>202</ele>
        <time>2023-05-31T21:54:10Z</time>
      </trkpt>
      <trkpt lat="46.92389" lon="-0.9587">
        <ele>204</ele>
        <time>2023-05-31T21:54:13Z</time>
      </trkpt>
      <trkpt lat="46.92422" lon="-0.95881">
        <ele>208</ele>
        <time>2023-05-31T21:54:19Z</time>
      </trkpt>
      <trkpt lat="46.92448" lon="-0.95884">
        <ele>210</ele>
        <time>2023-05-31T21:54:24Z</time>
      </trkpt>
      <trkpt lat="46.92473" lon="-0.95875">
        <ele>212</ele>
        <time>2023-05-31T21:54:28Z</time>
      </trkpt>
      <trkpt lat="46.92494" lon="-0.95857">
        <ele>213</ele>
        <time>2023-05-31T21:54:33Z</time>
      </trkpt>
      <trkpt lat="46.92601" lon="-0.95776">
        <ele>211</ele>
        <time>2023-05-31T21:54:54Z</time>
      </trkpt>
      <trkpt lat="46.92645" lon="-0.95753">
        <ele>207</ele>
        <time>2023-05-31T21:55:02Z</time>
      </trkpt>
      <trkpt lat="46.92668" lon="-0.95744">
        <ele>206</ele>
        <time>2023-05-31T21:55:07Z</time>
      </trkpt>
      <trkpt lat="46.92686" lon="-0.95739">
        <ele>205</ele>
        <time>2023-05-31T21:55:10Z</time>
      </trkpt>
      <trkpt lat="46.92799" lon="-0.95732">
        <ele>203</ele>
        <time>2023-05-31T21:55:30Z</time>
      </trkpt>
      <trkpt lat="46.92812" lon="-0.95733">
        <ele>203</ele>
        <time>2023-05-31T21:55:32Z</time>
      </trkpt>
      <trkpt lat="46.92867" lon="-0.95761">
        <ele>205</ele>
        <time>2023-05-31T21:55:43Z</time>
      </trkpt>
      <trkpt lat="46.92887" lon="-0.95768">
        <ele>205</ele>
        <time>2023-05-31T21:55:46Z</time>
      </trkpt>
      <trkpt lat="46.9291" lon="-0.95773">
        <ele>205</ele>
        <time>2023-05-31T21:55:50Z</time>
      </trkpt>
      <trkpt lat="46.92954" lon="-0.95774">
        <ele>206</ele>
        <time>2023-05-31T21:55:58Z</time>
      </trkpt>
      <trkpt lat="46.92993" lon="-0.95778">
        <ele>207</ele>
        <time>2023-05-31T21:56:05Z</time>
      </trkpt>
      <trkpt lat="46.93056" lon="-0.95789">
        <ele>207</ele>
        <time>2023-05-31T21:56:17Z</time>
      </trkpt>
      <trkpt lat="46.93114" lon="-0.95794">
        <ele>207</ele>
        <time>2023-05-31T21:56:27Z</time>
      </trkpt>
      <trkpt lat="46.93189" lon="-0.95807">
        <ele>207</ele>
        <time>2023-05-31T21:56:40Z</time>
      </trkpt>
      <trkpt lat="46.93208" lon="-0.95808">
        <ele>207</ele>
        <time>2023-05-31T21:56:44Z</time>
      </trkpt>
      <trkpt lat="46.93338" lon="-0.95788">
        <ele>201</ele>
        <time>2023-05-31T21:57:07Z</time>
      </trkpt>
      <trkpt lat="46.9336" lon="-0.95792">
        <ele>201</ele>
        <time>2023-05-31T21:57:11Z</time>
      </trkpt>
      <trkpt lat="46.93387" lon="-0.958">
        <ele>201</ele>
        <time>2023-05-31T21:57:16Z</time>
      </trkpt>
      <trkpt lat="46.93434" lon="-0.95807">
        <ele>201</ele>
        <time>2023-05-31T21:57:24Z</time>
      </trkpt>
      <trkpt lat="46.93455" lon="-0.95805">
        <ele>201</ele>
        <time>2023-05-31T21:57:28Z</time>
      </trkpt>
      <trkpt lat="46.93522" lon="-0.9579">
        <ele>200</ele>
        <time>2023-05-31T21:57:40Z</time>
      </trkpt>
      <trkpt lat="46.93542" lon="-0.95877">
        <ele>199</ele>
        <time>2023-05-31T21:57:51Z</time>
      </trkpt>
      <trkpt lat="46.93562" lon="-0.9595">
        <ele>199</ele>
        <time>2023-05-31T21:58:01Z</time>
      </trkpt>
      <trkpt lat="46.93635" lon="-0.96166">
        <ele>198</ele>
        <time>2023-05-31T21:58:30Z</time>
      </trkpt>
      <trkpt lat="46.93645" lon="-0.96209">
        <ele>198</ele>
        <time>2023-05-31T21:58:36Z</time>
      </trkpt>
      <trkpt lat="46.93652" lon="-0.96253">
        <ele>199</ele>
        <time>2023-05-31T21:58:41Z</time>
      </trkpt>
      <trkpt lat="46.93666" lon="-0.96318">
        <ele>199</ele>
        <time>2023-05-31T21:58:49Z</time>
      </trkpt>
      <trkpt lat="46.9368" lon="-0.96359">
        <ele>198</ele>
        <time>2023-05-31T21:58:55Z</time>
      </trkpt>
      <trkpt lat="46.93732" lon="-0.96477">
        <ele>196</ele>
        <time>2023-05-31T21:59:12Z</time>
      </trkpt>
      <trkpt lat="46.93739" lon="-0.96504">
        <ele>196</ele>
        <time>2023-05-31T21:59:15Z</time>
      </trkpt>
      <trkpt lat="46.93752" lon="-0.96591">
        <ele>195</ele>
        <time>2023-05-31T21:59:26Z</time>
      </trkpt>
      <trkpt lat="46.93764" lon="-0.96637">
        <ele>195</ele>
        <time>2023-05-31T21:59:32Z</time>
      </trkpt>
      <trkpt lat="46.93796" lon="-0.96721">
        <ele>197</ele>
        <time>2023-05-31T21:59:44Z</time>
      </trkpt>
      <trkpt lat="46.93862" lon="-0.96857">
        <ele>198</ele>
        <time>2023-05-31T22:00:04Z</time>
      </trkpt>
      <trkpt lat="46.93881" lon="-0.96915">
        <ele>199</ele>
        <time>2023-05-31T22:00:12Z</time>
      </trkpt>
      <trkpt lat="46.93899" lon="-0.96955">
        <ele>199</ele>
        <time>2023-05-31T22:00:18Z</time>
      </trkpt>
      <trkpt lat="46.93937" lon="-0.97032">
        <ele>200</ele>
        <time>2023-05-31T22:00:29Z</time>
      </trkpt>
      <trkpt lat="46.93979" lon="-0.97108">
        <ele>199</ele>
        <time>2023-05-31T22:00:41Z</time>
      </trkpt>
      <trkpt lat="46.93984" lon="-0.97123">
        <ele>199</ele>
        <time>2023-05-31T22:00:43Z</time>
      </trkpt>
      <trkpt lat="46.94029" lon="-0.97547">
        <ele>197</ele>
        <time>2023-05-31T22:01:35Z</time>
      </trkpt>
      <trkpt lat="46.94041" lon="-0.97639">
        <ele>196</ele>
        <time>2023-05-31T22:01:47Z</time>
      </trkpt>
      <trkpt lat="46.94053" lon="-0.97666">
        <ele>196</ele>
        <time>2023-05-31T22:01:51Z</time>
      </trkpt>
      <trkpt lat="46.94073" lon="-0.97681">
        <ele>196</ele>
        <time>2023-05-31T22:01:55Z</time>
      </trkpt>
      <trkpt lat="46.94113" lon="-0.97699">
        <ele>195</ele>
        <time>2023-05-31T22:02:02Z</time>
      </trkpt>
      <trkpt lat="46.94126" lon="-0.97705">
        <ele>195</ele>
        <time>2023-05-31T22:02:05Z</time>
      </trkpt>
      <trkpt lat="46.94136" lon="-0.97713">
        <ele>194</ele>
        <time>2023-05-31T22:02:07Z</time>
      </trkpt>
      <trkpt lat="46.94145" lon="-0.97725">
        <ele>194</ele>
        <time>2023-05-31T22:02:09Z</time>
      </trkpt>
      <trkpt lat="46.94194" lon="-0.97819">
        <ele>192</ele>
        <time>2023-05-31T22:02:23Z</time>
      </trkpt>
      <trkpt lat="46.94247" lon="-0.97951">
        <ele>190</ele>
        <time>2023-05-31T22:02:42Z</time>
      </trkpt>
      <trkpt lat="46.94271" lon="-0.98002">
        <ele>190</ele>
        <time>2023-05-31T22:02:49Z</time>
      </trkpt>
      <trkpt lat="46.94292" lon="-0.9804">
        <ele>191</ele>
        <time>2023-05-31T22:02:55Z</time>
      </trkpt>
      <trkpt lat="46.94308" lon="-0.98058">
        <ele>191</ele>
        <time>2023-05-31T22:02:59Z</time>
      </trkpt>
      <trkpt lat="46.94322" lon="-0.98069">
        <ele>192</ele>
        <time>2023-05-31T22:03:02Z</time>
      </trkpt>
      <trkpt lat="46.9434" lon="-0.98077">
        <ele>192</ele>
        <time>2023-05-31T22:03:05Z</time>
      </trkpt>
      <trkpt lat="46.94364" lon="-0.98078">
        <ele>192</ele>
        <time>2023-05-31T22:03:09Z</time>
      </trkpt>
      <trkpt lat="46.94379" lon="-0.98074">
        <ele>192</ele>
        <time>2023-05-31T22:03:12Z</time>
      </trkpt>
      <trkpt lat="46.94558" lon="-0.97952">
        <ele>188</ele>
        <time>2023-05-31T22:03:47Z</time>
      </trkpt>
      <trkpt lat="46.94579" lon="-0.97942">
        <ele>188</ele>
        <time>2023-05-31T22:03:51Z</time>
      </trkpt>
      <trkpt lat="46.94593" lon="-0.97944">
        <ele>187</ele>
        <time>2023-05-31T22:03:53Z</time>
      </trkpt>
      <trkpt lat="46.94602" lon="-0.97949">
        <ele>187</ele>
        <time>2023-05-31T22:03:55Z</time>
      </trkpt>
      <trkpt lat="46.94623" lon="-0.97967">
        <ele>186</ele>
        <time>2023-05-31T22:04:00Z</time>
      </trkpt>
      <trkpt lat="46.94653" lon="-0.97983">
        <ele>185</ele>
        <time>2023-05-31T22:04:05Z</time>
      </trkpt>
      <trkpt lat="46.94662" lon="-0.97978">
        <ele>185</ele>
        <time>2023-05-31T22:04:07Z</time>
      </trkpt>
      <trkpt lat="46.94674" lon="-0.9798">
        <ele>185</ele>
        <time>2023-05-31T22:04:09Z</time>
      </trkpt>
      <trkpt lat="46.94679" lon="-0.97985">
        <ele>185</ele>
        <time>2023-05-31T22:04:10Z</time>
      </trkpt>
      <trkpt lat="46.94687" lon="-0.98">
        <ele>185</ele>
        <time>2023-05-31T22:04:12Z</time>
      </trkpt>
      <trkpt lat="46.94688" lon="-0.98009">
        <ele>185</ele>
        <time>2023-05-31T22:04:14Z</time>
      </trkpt>
      <trkpt lat="46.94686" lon="-0.98026">
        <ele>185</ele>
        <time>2023-05-31T22:04:16Z</time>
      </trkpt>
      <trkpt lat="46.94679" lon="-0.98038">
        <ele>185</ele>
        <time>2023-05-31T22:04:18Z</time>
      </trkpt>
      <trkpt lat="46.94682" lon="-0.98086">
        <ele>185</ele>
        <time>2023-05-31T22:04:23Z</time>
      </trkpt>
      <trkpt lat="46.94726" lon="-0.98287">
        <ele>182</ele>
        <time>2023-05-31T22:04:49Z</time>
      </trkpt>
      <trkpt lat="46.94732" lon="-0.98328">
        <ele>182</ele>
        <time>2023-05-31T22:04:54Z</time>
      </trkpt>
      <trkpt lat="46.94733" lon="-0.9835">
        <ele>182</ele>
        <time>2023-05-31T22:04:57Z</time>
      </trkpt>
      <trkpt lat="46.94739" lon="-0.98395">
        <ele>183</ele>
        <time>2023-05-31T22:05:02Z</time>
      </trkpt>
      <trkpt lat="46.94744" lon="-0.984">
        <ele>183</ele>
        <time>2023-05-31T22:05:04Z</time>
      </trkpt>
      <trkpt lat="46.94747" lon="-0.98408">
        <ele>183</ele>
        <time>2023-05-31T22:05:05Z</time>
      </trkpt>
      <trkpt lat="46.9475" lon="-0.98417">
        <ele>183</ele>
        <time>2023-05-31T22:05:06Z</time>
      </trkpt>
      <trkpt lat="46.949" lon="-0.98346">
        <ele>179</ele>
        <time>2023-05-31T22:05:34Z</time>
      </trkpt>
      <trkpt lat="46.94981" lon="-0.98322">
        <ele>179</ele>
        <time>2023-05-31T22:05:49Z</time>
      </trkpt>
      <trkpt lat="46.95028" lon="-0.98305">
        <ele>178</ele>
        <time>2023-05-31T22:05:57Z</time>
      </trkpt>
      <trkpt lat="46.95098" lon="-0.98275">
        <ele>177</ele>
        <time>2023-05-31T22:06:10Z</time>
      </trkpt>
      <trkpt lat="46.95223" lon="-0.98216">
        <ele>176</ele>
        <time>2023-05-31T22:06:34Z</time>
      </trkpt>
      <trkpt lat="46.95319" lon="-0.98166">
        <ele>176</ele>
        <time>2023-05-31T22:06:52Z</time>
      </trkpt>
      <trkpt lat="46.95344" lon="-0.98156">
        <ele>176</ele>
        <time>2023-05-31T22:06:56Z</time>
      </trkpt>
      <trkpt lat="46.95365" lon="-0.98152">
        <ele>176</ele>
        <time>2023-05-31T22:07:00Z</time>
      </trkpt>
      <trkpt lat="46.95392" lon="-0.98153">
        <ele>176</ele>
        <time>2023-05-31T22:07:05Z</time>
      </trkpt>
      <trkpt lat="46.95412" lon="-0.98159">
        <ele>176</ele>
        <time>2023-05-31T22:07:08Z</time>
      </trkpt>
      <trkpt lat="46.95444" lon="-0.98175">
        <ele>174</ele>
        <time>2023-05-31T22:07:15Z</time>
      </trkpt>
      <trkpt lat="46.95461" lon="-0.9819">
        <ele>173</ele>
        <time>2023-05-31T22:07:18Z</time>
      </trkpt>
      <trkpt lat="46.95478" lon="-0.98209">
        <ele>172</ele>
        <time>2023-05-31T22:07:22Z</time>
      </trkpt>
      <trkpt lat="46.95494" lon="-0.98232">
        <ele>170</ele>
        <time>2023-05-31T22:07:26Z</time>
      </trkpt>
      <trkpt lat="46.95547" lon="-0.98329">
        <ele>168</ele>
        <time>2023-05-31T22:07:41Z</time>
      </trkpt>
      <trkpt lat="46.95633" lon="-0.98468">
        <ele>164</ele>
        <time>2023-05-31T22:08:04Z</time>
      </trkpt>
      <trkpt lat="46.95655" lon="-0.9851">
        <ele>163</ele>
        <time>2023-05-31T22:08:10Z</time>
      </trkpt>
      <trkpt lat="46.95713" lon="-0.98622">
        <ele>160</ele>
        <time>2023-05-31T22:08:27Z</time>
      </trkpt>
      <trkpt lat="46.95741" lon="-0.98668">
        <ele>159</ele>
        <time>2023-05-31T22:08:35Z</time>
      </trkpt>
      <trkpt lat="46.95758" lon="-0.9869">
        <ele>159</ele>
        <time>2023-05-31T22:08:39Z</time>
      </trkpt>
      <trkpt lat="46.9586" lon="-0.98796">
        <ele>159</ele>
        <time>2023-05-31T22:09:01Z</time>
      </trkpt>
      <trkpt lat="46.95875" lon="-0.98825">
        <ele>159</ele>
        <time>2023-05-31T22:09:05Z</time>
      </trkpt>
      <trkpt lat="46.95879" lon="-0.98834">
        <ele>159</ele>
        <time>2023-05-31T22:09:07Z</time>
      </trkpt>
      <trkpt lat="46.95887" lon="-0.98868">
        <ele>159</ele>
        <time>2023-05-31T22:09:11Z</time>
      </trkpt>
      <trkpt lat="46.95929" lon="-0.99058">
        <ele>163</ele>
        <time>2023-05-31T22:09:35Z</time>
      </trkpt>
      <trkpt lat="46.9593" lon="-0.9908">
        <ele>164</ele>
        <time>2023-05-31T22:09:38Z</time>
      </trkpt>
      <trkpt lat="46.95935" lon="-0.99083">
        <ele>164</ele>
        <time>2023-05-31T22:09:39Z</time>
      </trkpt>
      <trkpt lat="46.95936" lon="-0.99088">
        <ele>164</ele>
        <time>2023-05-31T22:09:40Z</time>
      </trkpt>
      <trkpt lat="46.95935" lon="-0.99094">
        <ele>164</ele>
        <time>2023-05-31T22:09:40Z</time>
      </trkpt>
      <trkpt lat="46.95941" lon="-0.99103">
        <ele>164</ele>
        <time>2023-05-31T22:09:42Z</time>
      </trkpt>
      <trkpt lat="46.95993" lon="-0.99232">
        <ele>163</ele>
        <time>2023-05-31T22:10:00Z</time>
      </trkpt>
      <trkpt lat="46.96014" lon="-0.99274">
        <ele>161</ele>
        <time>2023-05-31T22:10:06Z</time>
      </trkpt>
      <trkpt lat="46.96036" lon="-0.99335">
        <ele>159</ele>
        <time>2023-05-31T22:10:15Z</time>
      </trkpt>
      <trkpt lat="46.96072" lon="-0.99385">
        <ele>155</ele>
        <time>2023-05-31T22:10:24Z</time>
      </trkpt>
      <trkpt lat="46.96114" lon="-0.99455">
        <ele>156</ele>
        <time>2023-05-31T22:10:35Z</time>
      </trkpt>
      <trkpt lat="46.96124" lon="-0.99496">
        <ele>157</ele>
        <time>2023-05-31T22:10:40Z</time>
      </trkpt>
      <trkpt lat="46.96133" lon="-0.99507">
        <ele>158</ele>
        <time>2023-05-31T22:10:42Z</time>
      </trkpt>
      <trkpt lat="46.96144" lon="-0.99511">
        <ele>158</ele>
        <time>2023-05-31T22:10:44Z</time>
      </trkpt>
      <trkpt lat="46.9615" lon="-0.995">
        <ele>158</ele>
        <time>2023-05-31T22:10:46Z</time>
      </trkpt>
      <trkpt lat="46.96156" lon="-0.99494">
        <ele>158</ele>
        <time>2023-05-31T22:10:47Z</time>
      </trkpt>
      <trkpt lat="46.96163" lon="-0.99491">
        <ele>158</ele>
        <time>2023-05-31T22:10:49Z</time>
      </trkpt>
      <trkpt lat="46.9618" lon="-0.99488">
        <ele>158</ele>
        <time>2023-05-31T22:10:52Z</time>
      </trkpt>
      <trkpt lat="46.96206" lon="-0.99474">
        <ele>157</ele>
        <time>2023-05-31T22:10:57Z</time>
      </trkpt>
      <trkpt lat="46.96239" lon="-0.99469">
        <ele>157</ele>
        <time>2023-05-31T22:11:02Z</time>
      </trkpt>
      <trkpt lat="46.96278" lon="-0.99458">
        <ele>156</ele>
        <time>2023-05-31T22:11:10Z</time>
      </trkpt>
      <trkpt lat="46.96417" lon="-0.99411">
        <ele>152</ele>
        <time>2023-05-31T22:11:35Z</time>
      </trkpt>
      <trkpt lat="46.96518" lon="-0.99379">
        <ele>152</ele>
        <time>2023-05-31T22:11:53Z</time>
      </trkpt>
      <trkpt lat="46.9653" lon="-0.99372">
        <ele>152</ele>
        <time>2023-05-31T22:11:56Z</time>
      </trkpt>
      <trkpt lat="46.96551" lon="-0.99351">
        <ele>152</ele>
        <time>2023-05-31T22:12:00Z</time>
      </trkpt>
      <trkpt lat="46.9664" lon="-0.9924">
        <ele>150</ele>
        <time>2023-05-31T22:12:21Z</time>
      </trkpt>
      <trkpt lat="46.96717" lon="-0.99136">
        <ele>146</ele>
        <time>2023-05-31T22:12:40Z</time>
      </trkpt>
      <trkpt lat="46.96795" lon="-0.9904">
        <ele>142</ele>
        <time>2023-05-31T22:12:58Z</time>
      </trkpt>
      <trkpt lat="46.96855" lon="-0.98955">
        <ele>141</ele>
        <time>2023-05-31T22:13:13Z</time>
      </trkpt>
      <trkpt lat="46.96959" lon="-0.98817">
        <ele>139</ele>
        <time>2023-05-31T22:13:37Z</time>
      </trkpt>
      <trkpt lat="46.96987" lon="-0.98783">
        <ele>136</ele>
        <time>2023-05-31T22:13:44Z</time>
      </trkpt>
      <trkpt lat="46.97125" lon="-0.98635">
        <ele>126</ele>
        <time>2023-05-31T22:14:14Z</time>
      </trkpt>
      <trkpt lat="46.97151" lon="-0.98603">
        <ele>124</ele>
        <time>2023-05-31T22:14:20Z</time>
      </trkpt>
      <trkpt lat="46.97166" lon="-0.98577">
        <ele>122</ele>
        <time>2023-05-31T22:14:25Z</time>
      </trkpt>
      <trkpt lat="46.97178" lon="-0.98553">
        <ele>121</ele>
        <time>2023-05-31T22:14:28Z</time>
      </trkpt>
      <trkpt lat="46.97189" lon="-0.98522">
        <ele>120</ele>
        <time>2023-05-31T22:14:32Z</time>
      </trkpt>
      <trkpt lat="46.97202" lon="-0.98471">
        <ele>119</ele>
        <time>2023-05-31T22:14:39Z</time>
      </trkpt>
      <trkpt lat="46.97213" lon="-0.98423">
        <ele>117</ele>
        <time>2023-05-31T22:14:45Z</time>
      </trkpt>
      <trkpt lat="46.97234" lon="-0.98348">
        <ele>113</ele>
        <time>2023-05-31T22:14:55Z</time>
      </trkpt>
      <trkpt lat="46.97252" lon="-0.983">
        <ele>111</ele>
        <time>2023-05-31T22:15:02Z</time>
      </trkpt>
      <trkpt lat="46.97263" lon="-0.98275">
        <ele>110</ele>
        <time>2023-05-31T22:15:05Z</time>
      </trkpt>
      <trkpt lat="46.97323" lon="-0.98165">
        <ele>110</ele>
        <time>2023-05-31T22:15:22Z</time>
      </trkpt>
      <trkpt lat="46.97334" lon="-0.98139">
        <ele>109</ele>
        <time>2023-05-31T22:15:26Z</time>
      </trkpt>
      <trkpt lat="46.97346" lon="-0.98109">
        <ele>108</ele>
        <time>2023-05-31T22:15:30Z</time>
      </trkpt>
      <trkpt lat="46.97396" lon="-0.97943">
        <ele>111</ele>
        <time>2023-05-31T22:15:52Z</time>
      </trkpt>
      <trkpt lat="46.97441" lon="-0.97818">
        <ele>105</ele>
        <time>2023-05-31T22:16:10Z</time>
      </trkpt>
      <trkpt lat="46.97457" lon="-0.97762">
        <ele>107</ele>
        <time>2023-05-31T22:16:17Z</time>
      </trkpt>
      <trkpt lat="46.97476" lon="-0.9766">
        <ele>112</ele>
        <time>2023-05-31T22:16:30Z</time>
      </trkpt>
      <trkpt lat="46.9748" lon="-0.97633">
        <ele>114</ele>
        <time>2023-05-31T22:16:33Z</time>
      </trkpt>
      <trkpt lat="46.97484" lon="-0.97572">
        <ele>118</ele>
        <time>2023-05-31T22:16:41Z</time>
      </trkpt>
      <trkpt lat="46.975" lon="-0.97141">
        <ele>124</ele>
        <time>2023-05-31T22:17:33Z</time>
      </trkpt>
      <trkpt lat="46.97509" lon="-0.96884">
        <ele>127</ele>
        <time>2023-05-31T22:18:04Z</time>
      </trkpt>
      <trkpt lat="46.97513" lon="-0.96845">
        <ele>127</ele>
        <time>2023-05-31T22:18:09Z</time>
      </trkpt>
      <trkpt lat="46.97521" lon="-0.96806">
        <ele>128</ele>
        <time>2023-05-31T22:18:14Z</time>
      </trkpt>
      <trkpt lat="46.9752" lon="-0.96784">
        <ele>128</ele>
        <time>2023-05-31T22:18:17Z</time>
      </trkpt>
      <trkpt lat="46.97514" lon="-0.96767">
        <ele>128</ele>
        <time>2023-05-31T22:18:19Z</time>
      </trkpt>
      <trkpt lat="46.97508" lon="-0.96764">
        <ele>128</ele>
        <time>2023-05-31T22:18:20Z</time>
      </trkpt>
      <trkpt lat="46.97503" lon="-0.96759">
        <ele>128</ele>
        <time>2023-05-31T22:18:21Z</time>
      </trkpt>
      <trkpt lat="46.97499" lon="-0.96751">
        <ele>128</ele>
        <time>2023-05-31T22:18:22Z</time>
      </trkpt>
      <trkpt lat="46.97497" lon="-0.96742">
        <ele>128</ele>
        <time>2023-05-31T22:18:23Z</time>
      </trkpt>
      <trkpt lat="46.97497" lon="-0.96733">
        <ele>128</ele>
        <time>2023-05-31T22:18:25Z</time>
      </trkpt>
      <trkpt lat="46.97499" lon="-0.96725">
        <ele>128</ele>
        <time>2023-05-31T22:18:26Z</time>
      </trkpt>
      <trkpt lat="46.97503" lon="-0.96717">
        <ele>128</ele>
        <time>2023-05-31T22:18:27Z</time>
      </trkpt>
      <trkpt lat="46.97508" lon="-0.96712">
        <ele>129</ele>
        <time>2023-05-31T22:18:28Z</time>
      </trkpt>
      <trkpt lat="46.97513" lon="-0.96709">
        <ele>129</ele>
        <time>2023-05-31T22:18:29Z</time>
      </trkpt>
      <trkpt lat="46.9752" lon="-0.96709">
        <ele>129</ele>
        <time>2023-05-31T22:18:30Z</time>
      </trkpt>
      <trkpt lat="46.97525" lon="-0.96711">
        <ele>129</ele>
        <time>2023-05-31T22:18:31Z</time>
      </trkpt>
      <trkpt lat="46.97533" lon="-0.96721">
        <ele>129</ele>
        <time>2023-05-31T22:18:33Z</time>
      </trkpt>
      <trkpt lat="46.97544" lon="-0.96723">
        <ele>129</ele>
        <time>2023-05-31T22:18:35Z</time>
      </trkpt>
      <trkpt lat="46.97557" lon="-0.96716">
        <ele>129</ele>
        <time>2023-05-31T22:18:37Z</time>
      </trkpt>
      <trkpt lat="46.97575" lon="-0.96686">
        <ele>129</ele>
        <time>2023-05-31T22:18:42Z</time>
      </trkpt>
      <trkpt lat="46.97583" lon="-0.96677">
        <ele>129</ele>
        <time>2023-05-31T22:18:44Z</time>
      </trkpt>
      <trkpt lat="46.97622" lon="-0.96651">
        <ele>128</ele>
        <time>2023-05-31T22:18:52Z</time>
      </trkpt>
      <trkpt lat="46.97805" lon="-0.96554">
        <ele>129</ele>
        <time>2023-05-31T22:19:26Z</time>
      </trkpt>
      <trkpt lat="46.98409" lon="-0.96219">
        <ele>110</ele>
        <time>2023-05-31T22:21:21Z</time>
      </trkpt>
      <trkpt lat="46.98453" lon="-0.96184">
        <ele>108</ele>
        <time>2023-05-31T22:21:30Z</time>
      </trkpt>
      <trkpt lat="46.98467" lon="-0.96165">
        <ele>106</ele>
        <time>2023-05-31T22:21:33Z</time>
      </trkpt>
      <trkpt lat="46.98472" lon="-0.96148">
        <ele>105</ele>
        <time>2023-05-31T22:21:36Z</time>
      </trkpt>
      <trkpt lat="46.98473" lon="-0.96135">
        <ele>104</ele>
        <time>2023-05-31T22:21:37Z</time>
      </trkpt>
      <trkpt lat="46.98466" lon="-0.96089">
        <ele>103</ele>
        <time>2023-05-31T22:21:43Z</time>
      </trkpt>
      <trkpt lat="46.98469" lon="-0.96064">
        <ele>100</ele>
        <time>2023-05-31T22:21:46Z</time>
      </trkpt>
      <trkpt lat="46.98475" lon="-0.96048">
        <ele>97</ele>
        <time>2023-05-31T22:21:48Z</time>
      </trkpt>
      <trkpt lat="46.98487" lon="-0.96034">
        <ele>93</ele>
        <time>2023-05-31T22:21:51Z</time>
      </trkpt>
      <trkpt lat="46.98503" lon="-0.96028">
        <ele>90</ele>
        <time>2023-05-31T22:21:54Z</time>
      </trkpt>
      <trkpt lat="46.9852" lon="-0.96031">
        <ele>88</ele>
        <time>2023-05-31T22:21:57Z</time>
      </trkpt>
      <trkpt lat="46.98526" lon="-0.96035">
        <ele>88</ele>
        <time>2023-05-31T22:21:58Z</time>
      </trkpt>
      <trkpt lat="46.98578" lon="-0.96086">
        <ele>92</ele>
        <time>2023-05-31T22:22:09Z</time>
      </trkpt>
      <trkpt lat="46.98596" lon="-0.96095">
        <ele>93</ele>
        <time>2023-05-31T22:22:13Z</time>
      </trkpt>
      <trkpt lat="46.98628" lon="-0.96096">
        <ele>91</ele>
        <time>2023-05-31T22:22:18Z</time>
      </trkpt>
      <trkpt lat="46.9866" lon="-0.9609">
        <ele>88</ele>
        <time>2023-05-31T22:22:24Z</time>
      </trkpt>
      <trkpt lat="46.98673" lon="-0.96082">
        <ele>86</ele>
        <time>2023-05-31T22:22:27Z</time>
      </trkpt>
      <trkpt lat="46.98676" lon="-0.96077">
        <ele>85</ele>
        <time>2023-05-31T22:22:27Z</time>
      </trkpt>
      <trkpt lat="46.98681" lon="-0.96064">
        <ele>83</ele>
        <time>2023-05-31T22:22:29Z</time>
      </trkpt>
      <trkpt lat="46.98683" lon="-0.96048">
        <ele>80</ele>
        <time>2023-05-31T22:22:31Z</time>
      </trkpt>
      <trkpt lat="46.98672" lon="-0.95922">
        <ele>71</ele>
        <time>2023-05-31T22:22:47Z</time>
      </trkpt>
      <trkpt lat="46.98673" lon="-0.95901">
        <ele>73</ele>
        <time>2023-05-31T22:22:49Z</time>
      </trkpt>
      <trkpt lat="46.98676" lon="-0.95888">
        <ele>75</ele>
        <time>2023-05-31T22:22:51Z</time>
      </trkpt>
      <trkpt lat="46.98678" lon="-0.95879">
        <ele>76</ele>
        <time>2023-05-31T22:22:52Z</time>
      </trkpt>
      <trkpt lat="46.98688" lon="-0.95864">
        <ele>77</ele>
        <time>2023-05-31T22:22:55Z</time>
      </trkpt>
      <trkpt lat="46.98771" lon="-0.95771">
        <ele>81</ele>
        <time>2023-05-31T22:23:13Z</time>
      </trkpt>
      <trkpt lat="46.98794" lon="-0.95734">
        <ele>82</ele>
        <time>2023-05-31T22:23:19Z</time>
      </trkpt>
      <trkpt lat="46.98822" lon="-0.95676">
        <ele>85</ele>
        <time>2023-05-31T22:23:28Z</time>
      </trkpt>
      <trkpt lat="46.9883" lon="-0.95662">
        <ele>85</ele>
        <time>2023-05-31T22:23:30Z</time>
      </trkpt>
      <trkpt lat="46.9888" lon="-0.95607">
        <ele>85</ele>
        <time>2023-05-31T22:23:41Z</time>
      </trkpt>
      <trkpt lat="46.98891" lon="-0.95586">
        <ele>86</ele>
        <time>2023-05-31T22:23:44Z</time>
      </trkpt>
      <trkpt lat="46.989" lon="-0.95557">
        <ele>88</ele>
        <time>2023-05-31T22:23:48Z</time>
      </trkpt>
      <trkpt lat="46.98905" lon="-0.95524">
        <ele>92</ele>
        <time>2023-05-31T22:23:52Z</time>
      </trkpt>
      <trkpt lat="46.9891" lon="-0.95503">
        <ele>94</ele>
        <time>2023-05-31T22:23:55Z</time>
      </trkpt>
      <trkpt lat="46.98914" lon="-0.95491">
        <ele>95</ele>
        <time>2023-05-31T22:23:57Z</time>
      </trkpt>
      <trkpt lat="46.98923" lon="-0.95478">
        <ele>96</ele>
        <time>2023-05-31T22:23:59Z</time>
      </trkpt>
      <trkpt lat="46.98942" lon="-0.95463">
        <ele>98</ele>
        <time>2023-05-31T22:24:03Z</time>
      </trkpt>
      <trkpt lat="46.99" lon="-0.95436">
        <ele>102</ele>
        <time>2023-05-31T22:24:14Z</time>
      </trkpt>
      <trkpt lat="46.99066" lon="-0.95417">
        <ele>108</ele>
        <time>2023-05-31T22:24:26Z</time>
      </trkpt>
      <trkpt lat="46.99209" lon="-0.95297">
        <ele>116</ele>
        <time>2023-05-31T22:24:55Z</time>
      </trkpt>
      <trkpt lat="46.99248" lon="-0.95237">
        <ele>117</ele>
        <time>2023-05-31T22:25:05Z</time>
      </trkpt>
      <trkpt lat="46.99262" lon="-0.95221">
        <ele>117</ele>
        <time>2023-05-31T22:25:08Z</time>
      </trkpt>
      <trkpt lat="46.9929" lon="-0.95195">
        <ele>116</ele>
        <time>2023-05-31T22:25:14Z</time>
      </trkpt>
      <trkpt lat="46.99292" lon="-0.95188">
        <ele>116</ele>
        <time>2023-05-31T22:25:15Z</time>
      </trkpt>
      <trkpt lat="46.99295" lon="-0.95132">
        <ele>116</ele>
        <time>2023-05-31T22:25:22Z</time>
      </trkpt>
      <trkpt lat="46.99298" lon="-0.95114">
        <ele>117</ele>
        <time>2023-05-31T22:25:24Z</time>
      </trkpt>
      <trkpt lat="46.99293" lon="-0.95106">
        <ele>117</ele>
        <time>2023-05-31T22:25:25Z</time>
      </trkpt>
      <trkpt lat="46.99294" lon="-0.95095">
        <ele>117</ele>
        <time>2023-05-31T22:25:27Z</time>
      </trkpt>
      <trkpt lat="46.99298" lon="-0.95091">
        <ele>117</ele>
        <time>2023-05-31T22:25:27Z</time>
      </trkpt>
      <trkpt lat="46.99302" lon="-0.9509">
        <ele>117</ele>
        <time>2023-05-31T22:25:28Z</time>
      </trkpt>
      <trkpt lat="46.99307" lon="-0.95093">
        <ele>117</ele>
        <time>2023-05-31T22:25:29Z</time>
      </trkpt>
      <trkpt lat="46.99382" lon="-0.9497">
        <ele>115</ele>
        <time>2023-05-31T22:25:49Z</time>
      </trkpt>
      <trkpt lat="46.99393" lon="-0.94947">
        <ele>114</ele>
        <time>2023-05-31T22:25:53Z</time>
      </trkpt>
      <trkpt lat="46.99603" lon="-0.94598">
        <ele>127</ele>
        <time>2023-05-31T22:26:49Z</time>
      </trkpt>
      <trkpt lat="46.9961" lon="-0.94573">
        <ele>128</ele>
        <time>2023-05-31T22:26:52Z</time>
      </trkpt>
      <trkpt lat="46.996" lon="-0.94566">
        <ele>128</ele>
        <time>2023-05-31T22:26:54Z</time>
      </trkpt>
      <trkpt lat="46.99595" lon="-0.94555">
        <ele>128</ele>
        <time>2023-05-31T22:26:56Z</time>
      </trkpt>
      <trkpt lat="46.99595" lon="-0.94538">
        <ele>128</ele>
        <time>2023-05-31T22:26:58Z</time>
      </trkpt>
      <trkpt lat="46.99597" lon="-0.94531">
        <ele>128</ele>
        <time>2023-05-31T22:26:59Z</time>
      </trkpt>
      <trkpt lat="46.99603" lon="-0.94522">
        <ele>128</ele>
        <time>2023-05-31T22:27:00Z</time>
      </trkpt>
      <trkpt lat="46.9961" lon="-0.94518">
        <ele>128</ele>
        <time>2023-05-31T22:27:02Z</time>
      </trkpt>
      <trkpt lat="46.99618" lon="-0.94519">
        <ele>129</ele>
        <time>2023-05-31T22:27:03Z</time>
      </trkpt>
      <trkpt lat="46.99625" lon="-0.94524">
        <ele>129</ele>
        <time>2023-05-31T22:27:05Z</time>
      </trkpt>
      <trkpt lat="46.99631" lon="-0.94534">
        <ele>129</ele>
        <time>2023-05-31T22:27:06Z</time>
      </trkpt>
      <trkpt lat="46.99646" lon="-0.94524">
        <ele>129</ele>
        <time>2023-05-31T22:27:09Z</time>
      </trkpt>
      <trkpt lat="46.99682" lon="-0.94462">
        <ele>130</ele>
        <time>2023-05-31T22:27:19Z</time>
      </trkpt>
      <trkpt lat="46.99775" lon="-0.94308">
        <ele>128</ele>
        <time>2023-05-31T22:27:44Z</time>
      </trkpt>
      <trkpt lat="46.99808" lon="-0.94268">
        <ele>128</ele>
        <time>2023-05-31T22:27:52Z</time>
      </trkpt>
      <trkpt lat="46.99832" lon="-0.94244">
        <ele>127</ele>
        <time>2023-05-31T22:27:57Z</time>
      </trkpt>
      <trkpt lat="46.99884" lon="-0.94208">
        <ele>126</ele>
        <time>2023-05-31T22:28:07Z</time>
      </trkpt>
      <trkpt lat="46.99909" lon="-0.94195">
        <ele>126</ele>
        <time>2023-05-31T22:28:12Z</time>
      </trkpt>
      <trkpt lat="46.99951" lon="-0.94179">
        <ele>123</ele>
        <time>2023-05-31T22:28:19Z</time>
      </trkpt>
      <trkpt lat="46.99974" lon="-0.94175">
        <ele>121</ele>
        <time>2023-05-31T22:28:24Z</time>
      </trkpt>
      <trkpt lat="47.00002" lon="-0.94174">
        <ele>118</ele>
        <time>2023-05-31T22:28:29Z</time>
      </trkpt>
      <trkpt lat="47.00096" lon="-0.9418">
        <ele>112</ele>
        <time>2023-05-31T22:28:45Z</time>
      </trkpt>
      <trkpt lat="47.00144" lon="-0.94174">
        <ele>111</ele>
        <time>2023-05-31T22:28:54Z</time>
      </trkpt>
      <trkpt lat="47.00168" lon="-0.94166">
        <ele>111</ele>
        <time>2023-05-31T22:28:58Z</time>
      </trkpt>
      <trkpt lat="47.00189" lon="-0.94149">
        <ele>110</ele>
        <time>2023-05-31T22:29:02Z</time>
      </trkpt>
      <trkpt lat="47.00205" lon="-0.94133">
        <ele>109</ele>
        <time>2023-05-31T22:29:06Z</time>
      </trkpt>
      <trkpt lat="47.00215" lon="-0.94119">
        <ele>109</ele>
        <time>2023-05-31T22:29:08Z</time>
      </trkpt>
      <trkpt lat="47.00224" lon="-0.941">
        <ele>109</ele>
        <time>2023-05-31T22:29:11Z</time>
      </trkpt>
      <trkpt lat="47.00221" lon="-0.94083">
        <ele>108</ele>
        <time>2023-05-31T22:29:13Z</time>
      </trkpt>
      <trkpt lat="47.00222" lon="-0.94074">
        <ele>108</ele>
        <time>2023-05-31T22:29:14Z</time>
      </trkpt>
      <trkpt lat="47.00225" lon="-0.94065">
        <ele>108</ele>
        <time>2023-05-31T22:29:16Z</time>
      </trkpt>
      <trkpt lat="47.0023" lon="-0.94058">
        <ele>108</ele>
        <time>2023-05-31T22:29:17Z</time>
      </trkpt>
      <trkpt lat="47.00235" lon="-0.94054">
        <ele>108</ele>
        <time>2023-05-31T22:29:18Z</time>
      </trkpt>
      <trkpt lat="47.00242" lon="-0.94052">
        <ele>108</ele>
        <time>2023-05-31T22:29:19Z</time>
      </trkpt>
      <trkpt lat="47.00248" lon="-0.94053">
        <ele>108</ele>
        <time>2023-05-31T22:29:20Z</time>
      </trkpt>
      <trkpt lat="47.00258" lon="-0.94061">
        <ele>108</ele>
        <time>2023-05-31T22:29:22Z</time>
      </trkpt>
      <trkpt lat="47.00263" lon="-0.94076">
        <ele>108</ele>
        <time>2023-05-31T22:29:24Z</time>
      </trkpt>
      <trkpt lat="47.00263" lon="-0.94093">
        <ele>108</ele>
        <time>2023-05-31T22:29:26Z</time>
      </trkpt>
      <trkpt lat="47.00257" lon="-0.94107">
        <ele>108</ele>
        <time>2023-05-31T22:29:28Z</time>
      </trkpt>
      <trkpt lat="47.0027" lon="-0.94118">
        <ele>108</ele>
        <time>2023-05-31T22:29:31Z</time>
      </trkpt>
      <trkpt lat="47.00283" lon="-0.94137">
        <ele>108</ele>
        <time>2023-05-31T22:29:34Z</time>
      </trkpt>
      <trkpt lat="47.0032" lon="-0.94203">
        <ele>109</ele>
        <time>2023-05-31T22:29:45Z</time>
      </trkpt>
      <trkpt lat="47.00326" lon="-0.94208">
        <ele>110</ele>
        <time>2023-05-31T22:29:46Z</time>
      </trkpt>
      <trkpt lat="47.00334" lon="-0.94211">
        <ele>110</ele>
        <time>2023-05-31T22:29:47Z</time>
      </trkpt>
      <trkpt lat="47.0038" lon="-0.94215">
        <ele>110</ele>
        <time>2023-05-31T22:29:56Z</time>
      </trkpt>
      <trkpt lat="47.00399" lon="-0.94211">
        <ele>109</ele>
        <time>2023-05-31T22:29:59Z</time>
      </trkpt>
      <trkpt lat="47.00408" lon="-0.94191">
        <ele>108</ele>
        <time>2023-05-31T22:30:02Z</time>
      </trkpt>
      <trkpt lat="47.00415" lon="-0.94147">
        <ele>107</ele>
        <time>2023-05-31T22:30:07Z</time>
      </trkpt>
      <trkpt lat="47.0042" lon="-0.94131">
        <ele>106</ele>
        <time>2023-05-31T22:30:10Z</time>
      </trkpt>
      <trkpt lat="47.00461" lon="-0.94091">
        <ele>104</ele>
        <time>2023-05-31T22:30:18Z</time>
      </trkpt>
      <trkpt lat="47.00496" lon="-0.94052">
        <ele>103</ele>
        <time>2023-05-31T22:30:26Z</time>
      </trkpt>
      <trkpt lat="47.00511" lon="-0.94028">
        <ele>102</ele>
        <time>2023-05-31T22:30:30Z</time>
      </trkpt>
      <trkpt lat="47.00516" lon="-0.94014">
        <ele>102</ele>
        <time>2023-05-31T22:30:32Z</time>
      </trkpt>
      <trkpt lat="47.00519" lon="-0.93999">
        <ele>102</ele>
        <time>2023-05-31T22:30:34Z</time>
      </trkpt>
      <trkpt lat="47.00688" lon="-0.93817">
        <ele>100</ele>
        <time>2023-05-31T22:31:11Z</time>
      </trkpt>
      <trkpt lat="47.00696" lon="-0.93803">
        <ele>100</ele>
        <time>2023-05-31T22:31:13Z</time>
      </trkpt>
      <trkpt lat="47.007" lon="-0.93778">
        <ele>100</ele>
        <time>2023-05-31T22:31:17Z</time>
      </trkpt>
      <trkpt lat="47.00696" lon="-0.93681">
        <ele>101</ele>
        <time>2023-05-31T22:31:28Z</time>
      </trkpt>
      <trkpt lat="47.007" lon="-0.93666">
        <ele>101</ele>
        <time>2023-05-31T22:31:30Z</time>
      </trkpt>
      <trkpt lat="47.00708" lon="-0.93654">
        <ele>100</ele>
        <time>2023-05-31T22:31:32Z</time>
      </trkpt>
      <trkpt lat="47.01358" lon="-0.92973">
        <ele>91</ele>
        <time>2023-05-31T22:33:54Z</time>
      </trkpt>
      <trkpt lat="47.01409" lon="-0.92925">
        <ele>93</ele>
        <time>2023-05-31T22:34:05Z</time>
      </trkpt>
      <trkpt lat="47.01436" lon="-0.92904">
        <ele>94</ele>
        <time>2023-05-31T22:34:11Z</time>
      </trkpt>
      <trkpt lat="47.01472" lon="-0.92882">
        <ele>96</ele>
        <time>2023-05-31T22:34:18Z</time>
      </trkpt>
      <trkpt lat="47.01602" lon="-0.92822">
        <ele>104</ele>
        <time>2023-05-31T22:34:42Z</time>
      </trkpt>
      <trkpt lat="47.01625" lon="-0.92819">
        <ele>104</ele>
        <time>2023-05-31T22:34:46Z</time>
      </trkpt>
      <trkpt lat="47.01631" lon="-0.92809">
        <ele>104</ele>
        <time>2023-05-31T22:34:48Z</time>
      </trkpt>
      <trkpt lat="47.01624" lon="-0.92797">
        <ele>104</ele>
        <time>2023-05-31T22:34:49Z</time>
      </trkpt>
      <trkpt lat="47.01622" lon="-0.92788">
        <ele>104</ele>
        <time>2023-05-31T22:34:51Z</time>
      </trkpt>
      <trkpt lat="47.01623" lon="-0.92779">
        <ele>104</ele>
        <time>2023-05-31T22:34:52Z</time>
      </trkpt>
      <trkpt lat="47.01628" lon="-0.92765">
        <ele>104</ele>
        <time>2023-05-31T22:34:54Z</time>
      </trkpt>
      <trkpt lat="47.01632" lon="-0.9276">
        <ele>104</ele>
        <time>2023-05-31T22:34:55Z</time>
      </trkpt>
      <trkpt lat="47.01637" lon="-0.92757">
        <ele>104</ele>
        <time>2023-05-31T22:34:56Z</time>
      </trkpt>
      <trkpt lat="47.01647" lon="-0.92757">
        <ele>104</ele>
        <time>2023-05-31T22:34:57Z</time>
      </trkpt>
      <trkpt lat="47.01656" lon="-0.92765">
        <ele>104</ele>
        <time>2023-05-31T22:34:59Z</time>
      </trkpt>
      <trkpt lat="47.01661" lon="-0.9278">
        <ele>104</ele>
        <time>2023-05-31T22:35:01Z</time>
      </trkpt>
      <trkpt lat="47.01661" lon="-0.92793">
        <ele>104</ele>
        <time>2023-05-31T22:35:03Z</time>
      </trkpt>
      <trkpt lat="47.01669" lon="-0.92809">
        <ele>104</ele>
        <time>2023-05-31T22:35:05Z</time>
      </trkpt>
      <trkpt lat="47.01684" lon="-0.9283">
        <ele>104</ele>
        <time>2023-05-31T22:35:09Z</time>
      </trkpt>
      <trkpt lat="47.01721" lon="-0.92872">
        <ele>103</ele>
        <time>2023-05-31T22:35:17Z</time>
      </trkpt>
      <trkpt lat="47.01798" lon="-0.92972">
        <ele>100</ele>
        <time>2023-05-31T22:35:36Z</time>
      </trkpt>
      <trkpt lat="47.01915" lon="-0.93129">
        <ele>100</ele>
        <time>2023-05-31T22:36:04Z</time>
      </trkpt>
      <trkpt lat="47.01976" lon="-0.93217">
        <ele>99</ele>
        <time>2023-05-31T22:36:19Z</time>
      </trkpt>
      <trkpt lat="47.02009" lon="-0.93274">
        <ele>99</ele>
        <time>2023-05-31T22:36:28Z</time>
      </trkpt>
      <trkpt lat="47.02061" lon="-0.9337">
        <ele>98</ele>
        <time>2023-05-31T22:36:43Z</time>
      </trkpt>
      <trkpt lat="47.02094" lon="-0.93424">
        <ele>98</ele>
        <time>2023-05-31T22:36:52Z</time>
      </trkpt>
      <trkpt lat="47.02211" lon="-0.93656">
        <ele>88</ele>
        <time>2023-05-31T22:37:27Z</time>
      </trkpt>
      <trkpt lat="47.02216" lon="-0.93674">
        <ele>88</ele>
        <time>2023-05-31T22:37:29Z</time>
      </trkpt>
      <trkpt lat="47.0222" lon="-0.93698">
        <ele>87</ele>
        <time>2023-05-31T22:37:32Z</time>
      </trkpt>
      <trkpt lat="47.02225" lon="-0.93755">
        <ele>86</ele>
        <time>2023-05-31T22:37:39Z</time>
      </trkpt>
      <trkpt lat="47.02229" lon="-0.93775">
        <ele>86</ele>
        <time>2023-05-31T22:37:42Z</time>
      </trkpt>
      <trkpt lat="47.02231" lon="-0.93785">
        <ele>87</ele>
        <time>2023-05-31T22:37:43Z</time>
      </trkpt>
      <trkpt lat="47.02237" lon="-0.93804">
        <ele>87</ele>
        <time>2023-05-31T22:37:45Z</time>
      </trkpt>
      <trkpt lat="47.02248" lon="-0.93828">
        <ele>88</ele>
        <time>2023-05-31T22:37:49Z</time>
      </trkpt>
      <trkpt lat="47.02276" lon="-0.93863">
        <ele>89</ele>
        <time>2023-05-31T22:37:55Z</time>
      </trkpt>
      <trkpt lat="47.02494" lon="-0.94114">
        <ele>98</ele>
        <time>2023-05-31T22:38:45Z</time>
      </trkpt>
      <trkpt lat="47.02516" lon="-0.94149">
        <ele>97</ele>
        <time>2023-05-31T22:38:50Z</time>
      </trkpt>
      <trkpt lat="47.0257" lon="-0.94253">
        <ele>98</ele>
        <time>2023-05-31T22:39:06Z</time>
      </trkpt>
      <trkpt lat="47.02583" lon="-0.94273">
        <ele>98</ele>
        <time>2023-05-31T22:39:10Z</time>
      </trkpt>
      <trkpt lat="47.02669" lon="-0.94346">
        <ele>97</ele>
        <time>2023-05-31T22:39:27Z</time>
      </trkpt>
      <trkpt lat="47.02672" lon="-0.94342">
        <ele>97</ele>
        <time>2023-05-31T22:39:28Z</time>
      </trkpt>
      <trkpt lat="47.02675" lon="-0.94342">
        <ele>97</ele>
        <time>2023-05-31T22:39:29Z</time>
      </trkpt>
      <trkpt lat="47.02686" lon="-0.94326">
        <ele>96</ele>
        <time>2023-05-31T22:39:31Z</time>
      </trkpt>
      <trkpt lat="47.02771" lon="-0.94241">
        <ele>92</ele>
        <time>2023-05-31T22:39:50Z</time>
      </trkpt>
      <trkpt lat="47.02796" lon="-0.94224">
        <ele>92</ele>
        <time>2023-05-31T22:39:55Z</time>
      </trkpt>
      <trkpt lat="47.02814" lon="-0.94217">
        <ele>91</ele>
        <time>2023-05-31T22:39:58Z</time>
      </trkpt>
      <trkpt lat="47.02834" lon="-0.94214">
        <ele>90</ele>
        <time>2023-05-31T22:40:01Z</time>
      </trkpt>
      <trkpt lat="47.02854" lon="-0.94214">
        <ele>90</ele>
        <time>2023-05-31T22:40:05Z</time>
      </trkpt>
      <trkpt lat="47.02887" lon="-0.94226">
        <ele>90</ele>
        <time>2023-05-31T22:40:11Z</time>
      </trkpt>
      <trkpt lat="47.029" lon="-0.94234">
        <ele>89</ele>
        <time>2023-05-31T22:40:14Z</time>
      </trkpt>
      <trkpt lat="47.0291" lon="-0.94244">
        <ele>89</ele>
        <time>2023-05-31T22:40:16Z</time>
      </trkpt>
      <trkpt lat="47.02915" lon="-0.94239">
        <ele>89</ele>
        <time>2023-05-31T22:40:17Z</time>
      </trkpt>
      <trkpt lat="47.02918" lon="-0.9424">
        <ele>89</ele>
        <time>2023-05-31T22:40:17Z</time>
      </trkpt>
      <trkpt lat="47.02921" lon="-0.94245">
        <ele>89</ele>
        <time>2023-05-31T22:40:18Z</time>
      </trkpt>
      <trkpt lat="47.02921" lon="-0.94253">
        <ele>89</ele>
        <time>2023-05-31T22:40:19Z</time>
      </trkpt>
      <trkpt lat="47.02974" lon="-0.94301">
        <ele>88</ele>
        <time>2023-05-31T22:40:30Z</time>
      </trkpt>
      <trkpt lat="47.02977" lon="-0.94298">
        <ele>88</ele>
        <time>2023-05-31T22:40:31Z</time>
      </trkpt>
      <trkpt lat="47.02985" lon="-0.94296">
        <ele>88</ele>
        <time>2023-05-31T22:40:32Z</time>
      </trkpt>
      <trkpt lat="47.03011" lon="-0.94237">
        <ele>89</ele>
        <time>2023-05-31T22:40:41Z</time>
      </trkpt>
      <trkpt lat="47.03019" lon="-0.94223">
        <ele>89</ele>
        <time>2023-05-31T22:40:43Z</time>
      </trkpt>
      <trkpt lat="47.03037" lon="-0.94206">
        <ele>89</ele>
        <time>2023-05-31T22:40:47Z</time>
      </trkpt>
      <trkpt lat="47.03125" lon="-0.94159">
        <ele>88</ele>
        <time>2023-05-31T22:41:04Z</time>
      </trkpt>
      <trkpt lat="47.03164" lon="-0.94144">
        <ele>88</ele>
        <time>2023-05-31T22:41:11Z</time>
      </trkpt>
      <trkpt lat="47.03237" lon="-0.94128">
        <ele>89</ele>
        <time>2023-05-31T22:41:24Z</time>
      </trkpt>
      <trkpt lat="47.0326" lon="-0.94117">
        <ele>90</ele>
        <time>2023-05-31T22:41:28Z</time>
      </trkpt>
      <trkpt lat="47.03321" lon="-0.94066">
        <ele>92</ele>
        <time>2023-05-31T22:41:41Z</time>
      </trkpt>
      <trkpt lat="47.03363" lon="-0.9403">
        <ele>91</ele>
        <time>2023-05-31T22:41:49Z</time>
      </trkpt>
      <trkpt lat="47.03407" lon="-0.93985">
        <ele>90</ele>
        <time>2023-05-31T22:41:59Z</time>
      </trkpt>
      <trkpt lat="47.03431" lon="-0.93949">
        <ele>89</ele>
        <time>2023-05-31T22:42:05Z</time>
      </trkpt>
      <trkpt lat="47.03427" lon="-0.93939">
        <ele>89</ele>
        <time>2023-05-31T22:42:06Z</time>
      </trkpt>
      <trkpt lat="47.0343" lon="-0.93929">
        <ele>89</ele>
        <time>2023-05-31T22:42:08Z</time>
      </trkpt>
      <trkpt lat="47.03435" lon="-0.93925">
        <ele>88</ele>
        <time>2023-05-31T22:42:09Z</time>
      </trkpt>
      <trkpt lat="47.0344" lon="-0.93927">
        <ele>88</ele>
        <time>2023-05-31T22:42:10Z</time>
      </trkpt>
      <trkpt lat="47.03453" lon="-0.93899">
        <ele>87</ele>
        <time>2023-05-31T22:42:14Z</time>
      </trkpt>
      <trkpt lat="47.03488" lon="-0.93794">
        <ele>84</ele>
        <time>2023-05-31T22:42:28Z</time>
      </trkpt>
      <trkpt lat="47.03496" lon="-0.93773">
        <ele>84</ele>
        <time>2023-05-31T22:42:31Z</time>
      </trkpt>
      <trkpt lat="47.03508" lon="-0.93751">
        <ele>84</ele>
        <time>2023-05-31T22:42:34Z</time>
      </trkpt>
      <trkpt lat="47.03517" lon="-0.9374">
        <ele>84</ele>
        <time>2023-05-31T22:42:36Z</time>
      </trkpt>
      <trkpt lat="47.03533" lon="-0.93727">
        <ele>84</ele>
        <time>2023-05-31T22:42:40Z</time>
      </trkpt>
      <trkpt lat="47.03557" lon="-0.93717">
        <ele>85</ele>
        <time>2023-05-31T22:42:44Z</time>
      </trkpt>
      <trkpt lat="47.0359" lon="-0.93715">
        <ele>85</ele>
        <time>2023-05-31T22:42:50Z</time>
      </trkpt>
      <trkpt lat="47.0361" lon="-0.93711">
        <ele>86</ele>
        <time>2023-05-31T22:42:53Z</time>
      </trkpt>
      <trkpt lat="47.0363" lon="-0.93696">
        <ele>87</ele>
        <time>2023-05-31T22:42:57Z</time>
      </trkpt>
      <trkpt lat="47.03652" lon="-0.93674">
        <ele>88</ele>
        <time>2023-05-31T22:43:02Z</time>
      </trkpt>
      <trkpt lat="47.03678" lon="-0.93652">
        <ele>89</ele>
        <time>2023-05-31T22:43:08Z</time>
      </trkpt>
      <trkpt lat="47.03708" lon="-0.93634">
        <ele>91</ele>
        <time>2023-05-31T22:43:13Z</time>
      </trkpt>
      <trkpt lat="47.03771" lon="-0.93607">
        <ele>93</ele>
        <time>2023-05-31T22:43:25Z</time>
      </trkpt>
      <trkpt lat="47.038" lon="-0.93609">
        <ele>94</ele>
        <time>2023-05-31T22:43:30Z</time>
      </trkpt>
      <trkpt lat="47.03881" lon="-0.93597">
        <ele>95</ele>
        <time>2023-05-31T22:43:45Z</time>
      </trkpt>
      <trkpt lat="47.03949" lon="-0.93599">
        <ele>94</ele>
        <time>2023-05-31T22:43:57Z</time>
      </trkpt>
      <trkpt lat="47.04119" lon="-0.93611">
        <ele>92</ele>
        <time>2023-05-31T22:44:27Z</time>
      </trkpt>
      <trkpt lat="47.04169" lon="-0.93615">
        <ele>93</ele>
        <time>2023-05-31T22:44:36Z</time>
      </trkpt>
      <trkpt lat="47.04182" lon="-0.93612">
        <ele>93</ele>
        <time>2023-05-31T22:44:38Z</time>
      </trkpt>
      <trkpt lat="47.0425" lon="-0.93579">
        <ele>94</ele>
        <time>2023-05-31T22:44:51Z</time>
      </trkpt>
      <trkpt lat="47.0427" lon="-0.93575">
        <ele>94</ele>
        <time>2023-05-31T22:44:55Z</time>
      </trkpt>
      <trkpt lat="47.04289" lon="-0.93577">
        <ele>95</ele>
        <time>2023-05-31T22:44:58Z</time>
      </trkpt>
      <trkpt lat="47.04303" lon="-0.93582">
        <ele>95</ele>
        <time>2023-05-31T22:45:01Z</time>
      </trkpt>
      <trkpt lat="47.04329" lon="-0.93604">
        <ele>94</ele>
        <time>2023-05-31T22:45:06Z</time>
      </trkpt>
      <trkpt lat="47.04342" lon="-0.93611">
        <ele>94</ele>
        <time>2023-05-31T22:45:08Z</time>
      </trkpt>
      <trkpt lat="47.04362" lon="-0.93615">
        <ele>94</ele>
        <time>2023-05-31T22:45:12Z</time>
      </trkpt>
      <trkpt lat="47.04374" lon="-0.93615">
        <ele>94</ele>
        <time>2023-05-31T22:45:14Z</time>
      </trkpt>
      <trkpt lat="47.04418" lon="-0.93607">
        <ele>94</ele>
        <time>2023-05-31T22:45:22Z</time>
      </trkpt>
      <trkpt lat="47.04444" lon="-0.93609">
        <ele>94</ele>
        <time>2023-05-31T22:45:27Z</time>
      </trkpt>
      <trkpt lat="47.04472" lon="-0.93618">
        <ele>94</ele>
        <time>2023-05-31T22:45:32Z</time>
      </trkpt>
      <trkpt lat="47.04498" lon="-0.93634">
        <ele>94</ele>
        <time>2023-05-31T22:45:37Z</time>
      </trkpt>
      <trkpt lat="47.04533" lon="-0.9366">
        <ele>93</ele>
        <time>2023-05-31T22:45:44Z</time>
      </trkpt>
      <trkpt lat="47.04606" lon="-0.93726">
        <ele>92</ele>
        <time>2023-05-31T22:45:59Z</time>
      </trkpt>
      <trkpt lat="47.04692" lon="-0.93787">
        <ele>91</ele>
        <time>2023-05-31T22:46:16Z</time>
      </trkpt>
      <trkpt lat="47.04779" lon="-0.93836">
        <ele>90</ele>
        <time>2023-05-31T22:46:33Z</time>
      </trkpt>
      <trkpt lat="47.04943" lon="-0.93922">
        <ele>88</ele>
        <time>2023-05-31T22:47:04Z</time>
      </trkpt>
      <trkpt lat="47.0498" lon="-0.93933">
        <ele>88</ele>
        <time>2023-05-31T22:47:10Z</time>
      </trkpt>
      <trkpt lat="47.05025" lon="-0.93938">
        <ele>88</ele>
        <time>2023-05-31T22:47:18Z</time>
      </trkpt>
      <trkpt lat="47.05093" lon="-0.93952">
        <ele>87</ele>
        <time>2023-05-31T22:47:30Z</time>
      </trkpt>
      <trkpt lat="47.05178" lon="-0.9398">
        <ele>86</ele>
        <time>2023-05-31T22:47:46Z</time>
      </trkpt>
      <trkpt lat="47.05223" lon="-0.93997">
        <ele>86</ele>
        <time>2023-05-31T22:47:54Z</time>
      </trkpt>
      <trkpt lat="47.05298" lon="-0.94018">
        <ele>85</ele>
        <time>2023-05-31T22:48:08Z</time>
      </trkpt>
      <trkpt lat="47.05348" lon="-0.94024">
        <ele>85</ele>
        <time>2023-05-31T22:48:17Z</time>
      </trkpt>
      <trkpt lat="47.0538" lon="-0.94024">
        <ele>85</ele>
        <time>2023-05-31T22:48:22Z</time>
      </trkpt>
      <trkpt lat="47.05408" lon="-0.94021">
        <ele>85</ele>
        <time>2023-05-31T22:48:27Z</time>
      </trkpt>
      <trkpt lat="47.0544" lon="-0.94013">
        <ele>85</ele>
        <time>2023-05-31T22:48:33Z</time>
      </trkpt>
      <trkpt lat="47.05556" lon="-0.93969">
        <ele>84</ele>
        <time>2023-05-31T22:48:55Z</time>
      </trkpt>
      <trkpt lat="47.05592" lon="-0.9396">
        <ele>83</ele>
        <time>2023-05-31T22:49:01Z</time>
      </trkpt>
      <trkpt lat="47.05592" lon="-0.93956">
        <ele>83</ele>
        <time>2023-05-31T22:49:02Z</time>
      </trkpt>
      <trkpt lat="47.05595" lon="-0.93948">
        <ele>83</ele>
        <time>2023-05-31T22:49:03Z</time>
      </trkpt>
      <trkpt lat="47.056" lon="-0.93945">
        <ele>83</ele>
        <time>2023-05-31T22:49:04Z</time>
      </trkpt>
      <trkpt lat="47.05606" lon="-0.93947">
        <ele>83</ele>
        <time>2023-05-31T22:49:05Z</time>
      </trkpt>
      <trkpt lat="47.05609" lon="-0.93954">
        <ele>83</ele>
        <time>2023-05-31T22:49:06Z</time>
      </trkpt>
      <trkpt lat="47.05666" lon="-0.93942">
        <ele>82</ele>
        <time>2023-05-31T22:49:16Z</time>
      </trkpt>
      <trkpt lat="47.05742" lon="-0.93942">
        <ele>79</ele>
        <time>2023-05-31T22:49:29Z</time>
      </trkpt>
      <trkpt lat="47.05819" lon="-0.93954">
        <ele>76</ele>
        <time>2023-05-31T22:49:43Z</time>
      </trkpt>
      <trkpt lat="47.05842" lon="-0.93952">
        <ele>75</ele>
        <time>2023-05-31T22:49:47Z</time>
      </trkpt>
      <trkpt lat="47.05862" lon="-0.93948">
        <ele>74</ele>
        <time>2023-05-31T22:49:51Z</time>
      </trkpt>
      <trkpt lat="47.05867" lon="-0.93944">
        <ele>74</ele>
        <time>2023-05-31T22:49:52Z</time>
      </trkpt>
      <trkpt lat="47.05866" lon="-0.93939">
        <ele>74</ele>
        <time>2023-05-31T22:49:53Z</time>
      </trkpt>
      <trkpt lat="47.0587" lon="-0.93932">
        <ele>74</ele>
        <time>2023-05-31T22:49:54Z</time>
      </trkpt>
      <trkpt lat="47.05875" lon="-0.93933">
        <ele>73</ele>
        <time>2023-05-31T22:49:55Z</time>
      </trkpt>
      <trkpt lat="47.05878" lon="-0.93937">
        <ele>73</ele>
        <time>2023-05-31T22:49:55Z</time>
      </trkpt>
      <trkpt lat="47.05878" lon="-0.93943">
        <ele>73</ele>
        <time>2023-05-31T22:49:56Z</time>
      </trkpt>
      <trkpt lat="47.05938" lon="-0.93962">
        <ele>70</ele>
        <time>2023-05-31T22:50:07Z</time>
      </trkpt>
      <trkpt lat="47.05975" lon="-0.93969">
        <ele>69</ele>
        <time>2023-05-31T22:50:14Z</time>
      </trkpt>
      <trkpt lat="47.05977" lon="-0.93963">
        <ele>69</ele>
        <time>2023-05-31T22:50:14Z</time>
      </trkpt>
      <trkpt lat="47.05983" lon="-0.9396">
        <ele>69</ele>
        <time>2023-05-31T22:50:16Z</time>
      </trkpt>
      <trkpt lat="47.05989" lon="-0.93928">
        <ele>69</ele>
        <time>2023-05-31T22:50:20Z</time>
      </trkpt>
      <trkpt lat="47.06001" lon="-0.93746">
        <ele>65</ele>
        <time>2023-05-31T22:50:42Z</time>
      </trkpt>
      <trkpt lat="47.06003" lon="-0.93723">
        <ele>65</ele>
        <time>2023-05-31T22:50:45Z</time>
      </trkpt>
      <trkpt lat="47.06007" lon="-0.93655">
        <ele>65</ele>
        <time>2023-05-31T22:50:53Z</time>
      </trkpt>
      <trkpt lat="47.06018" lon="-0.9366">
        <ele>65</ele>
        <time>2023-05-31T22:50:55Z</time>
      </trkpt>
      <trkpt lat="47.06052" lon="-0.93711">
        <ele>65</ele>
        <time>2023-05-31T22:51:04Z</time>
      </trkpt>
      <trkpt lat="47.06106" lon="-0.93709">
        <ele>66</ele>
        <time>2023-05-31T22:51:13Z</time>
      </trkpt>
      <trkpt lat="47.06138" lon="-0.93729">
        <ele>67</ele>
        <time>2023-05-31T22:51:19Z</time>
      </trkpt>
      <trkpt lat="47.06149" lon="-0.9374">
        <ele>67</ele>
        <time>2023-05-31T22:51:22Z</time>
      </trkpt>
      <trkpt lat="47.06157" lon="-0.93752">
        <ele>67</ele>
        <time>2023-05-31T22:51:24Z</time>
      </trkpt>
      <trkpt lat="47.06171" lon="-0.93791">
        <ele>67</ele>
        <time>2023-05-31T22:51:29Z</time>
      </trkpt>
      <trkpt lat="47.06177" lon="-0.938">
        <ele>67</ele>
        <time>2023-05-31T22:51:31Z</time>
      </trkpt>
      <trkpt lat="47.06183" lon="-0.93806">
        <ele>68</ele>
        <time>2023-05-31T22:51:32Z</time>
      </trkpt>
      <trkpt lat="47.06194" lon="-0.93811">
        <ele>69</ele>
        <time>2023-05-31T22:51:34Z</time>
      </trkpt>
      <trkpt lat="47.06221" lon="-0.93814">
        <ele>71</ele>
        <time>2023-05-31T22:51:39Z</time>
      </trkpt>
      <trkpt lat="47.0623" lon="-0.93812">
        <ele>72</ele>
        <time>2023-05-31T22:51:40Z</time>
      </trkpt>
      <trkpt lat="47.06278" lon="-0.93782">
        <ele>77</ele>
        <time>2023-05-31T22:51:50Z</time>
      </trkpt>
      <trkpt lat="47.06352" lon="-0.93759">
        <ele>85</ele>
        <time>2023-05-31T22:52:03Z</time>
      </trkpt>
      <trkpt lat="47.06367" lon="-0.93751">
        <ele>86</ele>
        <time>2023-05-31T22:52:06Z</time>
      </trkpt>
      <trkpt lat="47.06396" lon="-0.93728">
        <ele>89</ele>
        <time>2023-05-31T22:52:12Z</time>
      </trkpt>
      <trkpt lat="47.06456" lon="-0.93688">
        <ele>96</ele>
        <time>2023-05-31T22:52:24Z</time>
      </trkpt>
      <trkpt lat="47.06471" lon="-0.93681">
        <ele>98</ele>
        <time>2023-05-31T22:52:26Z</time>
      </trkpt>
      <trkpt lat="47.06508" lon="-0.93671">
        <ele>101</ele>
        <time>2023-05-31T22:52:33Z</time>
      </trkpt>
      <trkpt lat="47.06551" lon="-0.93653">
        <ele>104</ele>
        <time>2023-05-31T22:52:41Z</time>
      </trkpt>
      <trkpt lat="47.06567" lon="-0.93651">
        <ele>105</ele>
        <time>2023-05-31T22:52:44Z</time>
      </trkpt>
      <trkpt lat="47.06583" lon="-0.93651">
        <ele>106</ele>
        <time>2023-05-31T22:52:47Z</time>
      </trkpt>
      <trkpt lat="47.06602" lon="-0.93654">
        <ele>107</ele>
        <time>2023-05-31T22:52:50Z</time>
      </trkpt>
      <trkpt lat="47.06631" lon="-0.93662">
        <ele>108</ele>
        <time>2023-05-31T22:52:55Z</time>
      </trkpt>
      <trkpt lat="47.06781" lon="-0.93684">
        <ele>112</ele>
        <time>2023-05-31T22:53:22Z</time>
      </trkpt>
      <trkpt lat="47.06847" lon="-0.937">
        <ele>113</ele>
        <time>2023-05-31T22:53:34Z</time>
      </trkpt>
      <trkpt lat="47.06972" lon="-0.93754">
        <ele>117</ele>
        <time>2023-05-31T22:53:57Z</time>
      </trkpt>
      <trkpt lat="47.06986" lon="-0.93757">
        <ele>117</ele>
        <time>2023-05-31T22:54:00Z</time>
      </trkpt>
      <trkpt lat="47.06994" lon="-0.9375">
        <ele>117</ele>
        <time>2023-05-31T22:54:01Z</time>
      </trkpt>
      <trkpt lat="47.07001" lon="-0.93736">
        <ele>117</ele>
        <time>2023-05-31T22:54:04Z</time>
      </trkpt>
      <trkpt lat="47.07004" lon="-0.93728">
        <ele>117</ele>
        <time>2023-05-31T22:54:05Z</time>
      </trkpt>
      <trkpt lat="47.07008" lon="-0.93722">
        <ele>116</ele>
        <time>2023-05-31T22:54:06Z</time>
      </trkpt>
      <trkpt lat="47.07013" lon="-0.93717">
        <ele>116</ele>
        <time>2023-05-31T22:54:07Z</time>
      </trkpt>
      <trkpt lat="47.07018" lon="-0.93715">
        <ele>117</ele>
        <time>2023-05-31T22:54:08Z</time>
      </trkpt>
      <trkpt lat="47.07026" lon="-0.93716">
        <ele>117</ele>
        <time>2023-05-31T22:54:09Z</time>
      </trkpt>
      <trkpt lat="47.07044" lon="-0.93713">
        <ele>117</ele>
        <time>2023-05-31T22:54:12Z</time>
      </trkpt>
      <trkpt lat="47.07048" lon="-0.9371">
        <ele>117</ele>
        <time>2023-05-31T22:54:13Z</time>
      </trkpt>
      <trkpt lat="47.07087" lon="-0.93679">
        <ele>117</ele>
        <time>2023-05-31T22:54:21Z</time>
      </trkpt>
      <trkpt lat="47.07186" lon="-0.93595">
        <ele>123</ele>
        <time>2023-05-31T22:54:41Z</time>
      </trkpt>
      <trkpt lat="47.07187" lon="-0.93582">
        <ele>123</ele>
        <time>2023-05-31T22:54:43Z</time>
      </trkpt>
      <trkpt lat="47.0719" lon="-0.93577">
        <ele>123</ele>
        <time>2023-05-31T22:54:44Z</time>
      </trkpt>
      <trkpt lat="47.07198" lon="-0.93573">
        <ele>123</ele>
        <time>2023-05-31T22:54:45Z</time>
      </trkpt>
      <trkpt lat="47.07206" lon="-0.93579">
        <ele>123</ele>
        <time>2023-05-31T22:54:47Z</time>
      </trkpt>
      <trkpt lat="47.07435" lon="-0.9338">
        <ele>125</ele>
        <time>2023-05-31T22:55:34Z</time>
      </trkpt>
      <trkpt lat="47.07432" lon="-0.93364">
        <ele>125</ele>
        <time>2023-05-31T22:55:36Z</time>
      </trkpt>
      <trkpt lat="47.07435" lon="-0.93349">
        <ele>125</ele>
        <time>2023-05-31T22:55:38Z</time>
      </trkpt>
      <trkpt lat="47.07439" lon="-0.93342">
        <ele>124</ele>
        <time>2023-05-31T22:55:39Z</time>
      </trkpt>
      <trkpt lat="47.07449" lon="-0.93336">
        <ele>124</ele>
        <time>2023-05-31T22:55:41Z</time>
      </trkpt>
      <trkpt lat="47.07459" lon="-0.93337">
        <ele>125</ele>
        <time>2023-05-31T22:55:43Z</time>
      </trkpt>
      <trkpt lat="47.07463" lon="-0.93341">
        <ele>125</ele>
        <time>2023-05-31T22:55:44Z</time>
      </trkpt>
      <trkpt lat="47.0747" lon="-0.93352">
        <ele>125</ele>
        <time>2023-05-31T22:55:46Z</time>
      </trkpt>
      <trkpt lat="47.07472" lon="-0.93359">
        <ele>125</ele>
        <time>2023-05-31T22:55:46Z</time>
      </trkpt>
      <trkpt lat="47.07549" lon="-0.93327">
        <ele>126</ele>
        <time>2023-05-31T22:56:01Z</time>
      </trkpt>
      <trkpt lat="47.07604" lon="-0.93298">
        <ele>127</ele>
        <time>2023-05-31T22:56:11Z</time>
      </trkpt>
      <trkpt lat="47.07633" lon="-0.93278">
        <ele>127</ele>
        <time>2023-05-31T22:56:17Z</time>
      </trkpt>
      <trkpt lat="47.077" lon="-0.93225">
        <ele>129</ele>
        <time>2023-05-31T22:56:30Z</time>
      </trkpt>
      <trkpt lat="47.07722" lon="-0.9321">
        <ele>129</ele>
        <time>2023-05-31T22:56:35Z</time>
      </trkpt>
      <trkpt lat="47.07911" lon="-0.93132">
        <ele>128</ele>
        <time>2023-05-31T22:57:10Z</time>
      </trkpt>
      <trkpt lat="47.07947" lon="-0.93113">
        <ele>129</ele>
        <time>2023-05-31T22:57:16Z</time>
      </trkpt>
      <trkpt lat="47.08049" lon="-0.93053">
        <ele>129</ele>
        <time>2023-05-31T22:57:36Z</time>
      </trkpt>
      <trkpt lat="47.08071" lon="-0.9305">
        <ele>129</ele>
        <time>2023-05-31T22:57:40Z</time>
      </trkpt>
      <trkpt lat="47.08088" lon="-0.93052">
        <ele>129</ele>
        <time>2023-05-31T22:57:43Z</time>
      </trkpt>
      <trkpt lat="47.08211" lon="-0.93072">
        <ele>131</ele>
        <time>2023-05-31T22:58:05Z</time>
      </trkpt>
      <trkpt lat="47.08513" lon="-0.93114">
        <ele>129</ele>
        <time>2023-05-31T22:58:59Z</time>
      </trkpt>
      <trkpt lat="47.08958" lon="-0.93173">
        <ele>120</ele>
        <time>2023-05-31T23:00:18Z</time>
      </trkpt>
      <trkpt lat="47.08977" lon="-0.93171">
        <ele>121</ele>
        <time>2023-05-31T23:00:22Z</time>
      </trkpt>
      <trkpt lat="47.08994" lon="-0.93164">
        <ele>121</ele>
        <time>2023-05-31T23:00:25Z</time>
      </trkpt>
      <trkpt lat="47.09014" lon="-0.93148">
        <ele>121</ele>
        <time>2023-05-31T23:00:29Z</time>
      </trkpt>
      <trkpt lat="47.09028" lon="-0.93127">
        <ele>121</ele>
        <time>2023-05-31T23:00:33Z</time>
      </trkpt>
      <trkpt lat="47.09039" lon="-0.93107">
        <ele>121</ele>
        <time>2023-05-31T23:00:36Z</time>
      </trkpt>
      <trkpt lat="47.09058" lon="-0.93068">
        <ele>121</ele>
        <time>2023-05-31T23:00:42Z</time>
      </trkpt>
      <trkpt lat="47.0909" lon="-0.92958">
        <ele>117</ele>
        <time>2023-05-31T23:00:56Z</time>
      </trkpt>
      <trkpt lat="47.09098" lon="-0.92937">
        <ele>117</ele>
        <time>2023-05-31T23:00:59Z</time>
      </trkpt>
      <trkpt lat="47.0911" lon="-0.92913">
        <ele>117</ele>
        <time>2023-05-31T23:01:03Z</time>
      </trkpt>
      <trkpt lat="47.09126" lon="-0.92884">
        <ele>117</ele>
        <time>2023-05-31T23:01:07Z</time>
      </trkpt>
      <trkpt lat="47.09142" lon="-0.92862">
        <ele>117</ele>
        <time>2023-05-31T23:01:11Z</time>
      </trkpt>
      <trkpt lat="47.09211" lon="-0.92774">
        <ele>118</ele>
        <time>2023-05-31T23:01:27Z</time>
      </trkpt>
      <trkpt lat="47.09261" lon="-0.92684">
        <ele>120</ele>
        <time>2023-05-31T23:01:41Z</time>
      </trkpt>
      <trkpt lat="47.0927" lon="-0.92672">
        <ele>120</ele>
        <time>2023-05-31T23:01:43Z</time>
      </trkpt>
      <trkpt lat="47.09284" lon="-0.92662">
        <ele>120</ele>
        <time>2023-05-31T23:01:46Z</time>
      </trkpt>
      <trkpt lat="47.09333" lon="-0.92656">
        <ele>120</ele>
        <time>2023-05-31T23:01:55Z</time>
      </trkpt>
      <trkpt lat="47.09352" lon="-0.92655">
        <ele>120</ele>
        <time>2023-05-31T23:01:58Z</time>
      </trkpt>
      <trkpt lat="47.09414" lon="-0.92661">
        <ele>120</ele>
        <time>2023-05-31T23:02:09Z</time>
      </trkpt>
      <trkpt lat="47.09416" lon="-0.92652">
        <ele>121</ele>
        <time>2023-05-31T23:02:11Z</time>
      </trkpt>
      <trkpt lat="47.09419" lon="-0.92644">
        <ele>121</ele>
        <time>2023-05-31T23:02:12Z</time>
      </trkpt>
      <trkpt lat="47.09425" lon="-0.92638">
        <ele>121</ele>
        <time>2023-05-31T23:02:13Z</time>
      </trkpt>
      <trkpt lat="47.09431" lon="-0.92636">
        <ele>121</ele>
        <time>2023-05-31T23:02:14Z</time>
      </trkpt>
      <trkpt lat="47.09437" lon="-0.92636">
        <ele>121</ele>
        <time>2023-05-31T23:02:15Z</time>
      </trkpt>
      <trkpt lat="47.09447" lon="-0.92644">
        <ele>121</ele>
        <time>2023-05-31T23:02:17Z</time>
      </trkpt>
      <trkpt lat="47.09451" lon="-0.92651">
        <ele>120</ele>
        <time>2023-05-31T23:02:18Z</time>
      </trkpt>
      <trkpt lat="47.09453" lon="-0.92668">
        <ele>120</ele>
        <time>2023-05-31T23:02:20Z</time>
      </trkpt>
      <trkpt lat="47.09493" lon="-0.92668">
        <ele>119</ele>
        <time>2023-05-31T23:02:27Z</time>
      </trkpt>
      <trkpt lat="47.0952" lon="-0.92666">
        <ele>118</ele>
        <time>2023-05-31T23:02:32Z</time>
      </trkpt>
      <trkpt lat="47.09539" lon="-0.92661">
        <ele>117</ele>
        <time>2023-05-31T23:02:36Z</time>
      </trkpt>
      <trkpt lat="47.09557" lon="-0.92655">
        <ele>117</ele>
        <time>2023-05-31T23:02:39Z</time>
      </trkpt>
      <trkpt lat="47.09595" lon="-0.92637">
        <ele>116</ele>
        <time>2023-05-31T23:02:46Z</time>
      </trkpt>
      <trkpt lat="47.09667" lon="-0.92595">
        <ele>116</ele>
        <time>2023-05-31T23:03:00Z</time>
      </trkpt>
      <trkpt lat="47.09721" lon="-0.92568">
        <ele>115</ele>
        <time>2023-05-31T23:03:10Z</time>
      </trkpt>
      <trkpt lat="47.09752" lon="-0.92556">
        <ele>115</ele>
        <time>2023-05-31T23:03:16Z</time>
      </trkpt>
      <trkpt lat="47.09845" lon="-0.92536">
        <ele>113</ele>
        <time>2023-05-31T23:03:32Z</time>
      </trkpt>
      <trkpt lat="47.09894" lon="-0.92517">
        <ele>112</ele>
        <time>2023-05-31T23:03:41Z</time>
      </trkpt>
      <trkpt lat="47.10066" lon="-0.92433">
        <ele>109</ele>
        <time>2023-05-31T23:04:14Z</time>
      </trkpt>
      <trkpt lat="47.10096" lon="-0.92416">
        <ele>108</ele>
        <time>2023-05-31T23:04:19Z</time>
      </trkpt>
      <trkpt lat="47.10122" lon="-0.92398">
        <ele>108</ele>
        <time>2023-05-31T23:04:25Z</time>
      </trkpt>
      <trkpt lat="47.10342" lon="-0.92261">
        <ele>107</ele>
        <time>2023-05-31T23:05:07Z</time>
      </trkpt>
      <trkpt lat="47.10358" lon="-0.92248">
        <ele>106</ele>
        <time>2023-05-31T23:05:10Z</time>
      </trkpt>
      <trkpt lat="47.10377" lon="-0.92225">
        <ele>106</ele>
        <time>2023-05-31T23:05:15Z</time>
      </trkpt>
      <trkpt lat="47.10374" lon="-0.92218">
        <ele>106</ele>
        <time>2023-05-31T23:05:16Z</time>
      </trkpt>
      <trkpt lat="47.10371" lon="-0.92202">
        <ele>106</ele>
        <time>2023-05-31T23:05:18Z</time>
      </trkpt>
      <trkpt lat="47.10372" lon="-0.92192">
        <ele>107</ele>
        <time>2023-05-31T23:05:19Z</time>
      </trkpt>
      <trkpt lat="47.10375" lon="-0.92184">
        <ele>107</ele>
        <time>2023-05-31T23:05:20Z</time>
      </trkpt>
      <trkpt lat="47.10379" lon="-0.92177">
        <ele>107</ele>
        <time>2023-05-31T23:05:21Z</time>
      </trkpt>
      <trkpt lat="47.10386" lon="-0.92171">
        <ele>107</ele>
        <time>2023-05-31T23:05:23Z</time>
      </trkpt>
      <trkpt lat="47.10393" lon="-0.9217">
        <ele>107</ele>
        <time>2023-05-31T23:05:24Z</time>
      </trkpt>
      <trkpt lat="47.104" lon="-0.92171">
        <ele>107</ele>
        <time>2023-05-31T23:05:25Z</time>
      </trkpt>
      <trkpt lat="47.10406" lon="-0.92176">
        <ele>107</ele>
        <time>2023-05-31T23:05:26Z</time>
      </trkpt>
      <trkpt lat="47.10422" lon="-0.92137">
        <ele>108</ele>
        <time>2023-05-31T23:05:32Z</time>
      </trkpt>
      <trkpt lat="47.10488" lon="-0.91991">
        <ele>109</ele>
        <time>2023-05-31T23:05:53Z</time>
      </trkpt>
      <trkpt lat="47.1051" lon="-0.91942">
        <ele>110</ele>
        <time>2023-05-31T23:06:00Z</time>
      </trkpt>
      <trkpt lat="47.10505" lon="-0.91935">
        <ele>111</ele>
        <time>2023-05-31T23:06:01Z</time>
      </trkpt>
      <trkpt lat="47.10501" lon="-0.91926">
        <ele>111</ele>
        <time>2023-05-31T23:06:03Z</time>
      </trkpt>
      <trkpt lat="47.105" lon="-0.91917">
        <ele>111</ele>
        <time>2023-05-31T23:06:04Z</time>
      </trkpt>
      <trkpt lat="47.105" lon="-0.91907">
        <ele>111</ele>
        <time>2023-05-31T23:06:05Z</time>
      </trkpt>
      <trkpt lat="47.10503" lon="-0.91898">
        <ele>111</ele>
        <time>2023-05-31T23:06:06Z</time>
      </trkpt>
      <trkpt lat="47.10507" lon="-0.91891">
        <ele>111</ele>
        <time>2023-05-31T23:06:07Z</time>
      </trkpt>
      <trkpt lat="47.10513" lon="-0.91885">
        <ele>111</ele>
        <time>2023-05-31T23:06:09Z</time>
      </trkpt>
      <trkpt lat="47.1052" lon="-0.91882">
        <ele>111</ele>
        <time>2023-05-31T23:06:10Z</time>
      </trkpt>
      <trkpt lat="47.10528" lon="-0.91883">
        <ele>111</ele>
        <time>2023-05-31T23:06:11Z</time>
      </trkpt>
      <trkpt lat="47.10535" lon="-0.91888">
        <ele>111</ele>
        <time>2023-05-31T23:06:13Z</time>
      </trkpt>
      <trkpt lat="47.1054" lon="-0.91895">
        <ele>111</ele>
        <time>2023-05-31T23:06:14Z</time>
      </trkpt>
      <trkpt lat="47.10543" lon="-0.91905">
        <ele>111</ele>
        <time>2023-05-31T23:06:15Z</time>
      </trkpt>
      <trkpt lat="47.10544" lon="-0.91916">
        <ele>111</ele>
        <time>2023-05-31T23:06:17Z</time>
      </trkpt>
      <trkpt lat="47.10558" lon="-0.91918">
        <ele>111</ele>
        <time>2023-05-31T23:06:19Z</time>
      </trkpt>
      <trkpt lat="47.10567" lon="-0.91922">
        <ele>111</ele>
        <time>2023-05-31T23:06:21Z</time>
      </trkpt>
      <trkpt lat="47.10575" lon="-0.9193">
        <ele>110</ele>
        <time>2023-05-31T23:06:23Z</time>
      </trkpt>
      <trkpt lat="47.10585" lon="-0.91938">
        <ele>110</ele>
        <time>2023-05-31T23:06:25Z</time>
      </trkpt>
      <trkpt lat="47.10625" lon="-0.91985">
        <ele>107</ele>
        <time>2023-05-31T23:06:34Z</time>
      </trkpt>
      <trkpt lat="47.10643" lon="-0.92002">
        <ele>107</ele>
        <time>2023-05-31T23:06:37Z</time>
      </trkpt>
      <trkpt lat="47.10657" lon="-0.92007">
        <ele>107</ele>
        <time>2023-05-31T23:06:40Z</time>
      </trkpt>
      <trkpt lat="47.10666" lon="-0.92005">
        <ele>107</ele>
        <time>2023-05-31T23:06:42Z</time>
      </trkpt>
      <trkpt lat="47.10681" lon="-0.91995">
        <ele>107</ele>
        <time>2023-05-31T23:06:45Z</time>
      </trkpt>
      <trkpt lat="47.10711" lon="-0.91968">
        <ele>107</ele>
        <time>2023-05-31T23:06:51Z</time>
      </trkpt>
      <trkpt lat="47.10731" lon="-0.91955">
        <ele>107</ele>
        <time>2023-05-31T23:06:55Z</time>
      </trkpt>
      <trkpt lat="47.10894" lon="-0.91868">
        <ele>108</ele>
        <time>2023-05-31T23:07:26Z</time>
      </trkpt>
      <trkpt lat="47.10911" lon="-0.91856">
        <ele>108</ele>
        <time>2023-05-31T23:07:29Z</time>
      </trkpt>
      <trkpt lat="47.1102" lon="-0.91745">
        <ele>109</ele>
        <time>2023-05-31T23:07:53Z</time>
      </trkpt>
      <trkpt lat="47.11041" lon="-0.91726">
        <ele>109</ele>
        <time>2023-05-31T23:07:57Z</time>
      </trkpt>
      <trkpt lat="47.11068" lon="-0.91711">
        <ele>109</ele>
        <time>2023-05-31T23:08:02Z</time>
      </trkpt>
      <trkpt lat="47.11452" lon="-0.91598">
        <ele>107</ele>
        <time>2023-05-31T23:09:12Z</time>
      </trkpt>
      <trkpt lat="47.11521" lon="-0.91569">
        <ele>106</ele>
        <time>2023-05-31T23:09:25Z</time>
      </trkpt>
      <trkpt lat="47.1156" lon="-0.9155">
        <ele>105</ele>
        <time>2023-05-31T23:09:32Z</time>
      </trkpt>
      <trkpt lat="47.11576" lon="-0.9154">
        <ele>105</ele>
        <time>2023-05-31T23:09:35Z</time>
      </trkpt>
      <trkpt lat="47.11746" lon="-0.91382">
        <ele>104</ele>
        <time>2023-05-31T23:10:11Z</time>
      </trkpt>
      <trkpt lat="47.11961" lon="-0.9112">
        <ele>101</ele>
        <time>2023-05-31T23:11:00Z</time>
      </trkpt>
      <trkpt lat="47.12013" lon="-0.91062">
        <ele>101</ele>
        <time>2023-05-31T23:11:12Z</time>
      </trkpt>
      <trkpt lat="47.12119" lon="-0.90991">
        <ele>101</ele>
        <time>2023-05-31T23:11:33Z</time>
      </trkpt>
      <trkpt lat="47.12248" lon="-0.90876">
        <ele>101</ele>
        <time>2023-05-31T23:12:00Z</time>
      </trkpt>
      <trkpt lat="47.12271" lon="-0.9086">
        <ele>101</ele>
        <time>2023-05-31T23:12:04Z</time>
      </trkpt>
      <trkpt lat="47.12417" lon="-0.90772">
        <ele>99</ele>
        <time>2023-05-31T23:12:32Z</time>
      </trkpt>
      <trkpt lat="47.12449" lon="-0.90759">
        <ele>98</ele>
        <time>2023-05-31T23:12:38Z</time>
      </trkpt>
      <trkpt lat="47.12656" lon="-0.90701">
        <ele>93</ele>
        <time>2023-05-31T23:13:16Z</time>
      </trkpt>
      <trkpt lat="47.12673" lon="-0.90693">
        <ele>93</ele>
        <time>2023-05-31T23:13:19Z</time>
      </trkpt>
      <trkpt lat="47.12687" lon="-0.90684">
        <ele>94</ele>
        <time>2023-05-31T23:13:21Z</time>
      </trkpt>
      <trkpt lat="47.12704" lon="-0.90666">
        <ele>94</ele>
        <time>2023-05-31T23:13:25Z</time>
      </trkpt>
      <trkpt lat="47.12715" lon="-0.90652">
        <ele>95</ele>
        <time>2023-05-31T23:13:28Z</time>
      </trkpt>
      <trkpt lat="47.12872" lon="-0.90446">
        <ele>103</ele>
        <time>2023-05-31T23:14:05Z</time>
      </trkpt>
      <trkpt lat="47.1303" lon="-0.90208">
        <ele>104</ele>
        <time>2023-05-31T23:14:46Z</time>
      </trkpt>
      <trkpt lat="47.13068" lon="-0.90156">
        <ele>104</ele>
        <time>2023-05-31T23:14:55Z</time>
      </trkpt>
      <trkpt lat="47.13235" lon="-0.89938">
        <ele>107</ele>
        <time>2023-05-31T23:15:34Z</time>
      </trkpt>
      <trkpt lat="47.13318" lon="-0.89823">
        <ele>107</ele>
        <time>2023-05-31T23:15:55Z</time>
      </trkpt>
      <trkpt lat="47.13336" lon="-0.89796">
        <ele>107</ele>
        <time>2023-05-31T23:15:59Z</time>
      </trkpt>
      <trkpt lat="47.13467" lon="-0.89582">
        <ele>106</ele>
        <time>2023-05-31T23:16:34Z</time>
      </trkpt>
      <trkpt lat="47.13511" lon="-0.89632">
        <ele>106</ele>
        <time>2023-05-31T23:16:44Z</time>
      </trkpt>
      <trkpt lat="47.13524" lon="-0.89651">
        <ele>106</ele>
        <time>2023-05-31T23:16:47Z</time>
      </trkpt>
      <trkpt lat="47.13577" lon="-0.89734">
        <ele>106</ele>
        <time>2023-05-31T23:17:01Z</time>
      </trkpt>
      <trkpt lat="47.13593" lon="-0.89749">
        <ele>106</ele>
        <time>2023-05-31T23:17:05Z</time>
      </trkpt>
      <trkpt lat="47.13605" lon="-0.89756">
        <ele>106</ele>
        <time>2023-05-31T23:17:07Z</time>
      </trkpt>
      <trkpt lat="47.13645" lon="-0.8977">
        <ele>105</ele>
        <time>2023-05-31T23:17:14Z</time>
      </trkpt>
      <trkpt lat="47.13668" lon="-0.89773">
        <ele>105</ele>
        <time>2023-05-31T23:17:18Z</time>
      </trkpt>
      <trkpt lat="47.13685" lon="-0.89763">
        <ele>105</ele>
        <time>2023-05-31T23:17:21Z</time>
      </trkpt>
      <trkpt lat="47.1381" lon="-0.89662">
        <ele>106</ele>
        <time>2023-05-31T23:17:47Z</time>
      </trkpt>
      <trkpt lat="47.13845" lon="-0.89636">
        <ele>105</ele>
        <time>2023-05-31T23:17:54Z</time>
      </trkpt>
      <trkpt lat="47.13865" lon="-0.89613">
        <ele>105</ele>
        <time>2023-05-31T23:17:58Z</time>
      </trkpt>
      <trkpt lat="47.13876" lon="-0.89598">
        <ele>105</ele>
        <time>2023-05-31T23:18:01Z</time>
      </trkpt>
      <trkpt lat="47.13937" lon="-0.89489">
        <ele>104</ele>
        <time>2023-05-31T23:18:18Z</time>
      </trkpt>
      <trkpt lat="47.13948" lon="-0.89476">
        <ele>104</ele>
        <time>2023-05-31T23:18:21Z</time>
      </trkpt>
      <trkpt lat="47.14018" lon="-0.89441">
        <ele>105</ele>
        <time>2023-05-31T23:18:34Z</time>
      </trkpt>
      <trkpt lat="47.14125" lon="-0.89708">
        <ele>104</ele>
        <time>2023-05-31T23:19:11Z</time>
      </trkpt>
      <trkpt lat="47.14134" lon="-0.89746">
        <ele>103</ele>
        <time>2023-05-31T23:19:16Z</time>
      </trkpt>
      <trkpt lat="47.14168" lon="-0.89962">
        <ele>102</ele>
        <time>2023-05-31T23:19:43Z</time>
      </trkpt>
      <trkpt lat="47.14179" lon="-0.90002">
        <ele>101</ele>
        <time>2023-05-31T23:19:48Z</time>
      </trkpt>
      <trkpt lat="47.14205" lon="-0.90053">
        <ele>102</ele>
        <time>2023-05-31T23:19:56Z</time>
      </trkpt>
      <trkpt lat="47.14236" lon="-0.90102">
        <ele>102</ele>
        <time>2023-05-31T23:20:04Z</time>
      </trkpt>
      <trkpt lat="47.14269" lon="-0.90151">
        <ele>101</ele>
        <time>2023-05-31T23:20:12Z</time>
      </trkpt>
      <trkpt lat="47.1434" lon="-0.90248">
        <ele>100</ele>
        <time>2023-05-31T23:20:30Z</time>
      </trkpt>
      <trkpt lat="47.14373" lon="-0.90287">
        <ele>100</ele>
        <time>2023-05-31T23:20:37Z</time>
      </trkpt>
      <trkpt lat="47.14394" lon="-0.90304">
        <ele>100</ele>
        <time>2023-05-31T23:20:41Z</time>
      </trkpt>
      <trkpt lat="47.14443" lon="-0.90333">
        <ele>101</ele>
        <time>2023-05-31T23:20:51Z</time>
      </trkpt>
      <trkpt lat="47.14465" lon="-0.9035">
        <ele>102</ele>
        <time>2023-05-31T23:20:55Z</time>
      </trkpt>
      <trkpt lat="47.14556" lon="-0.90429">
        <ele>106</ele>
        <time>2023-05-31T23:21:14Z</time>
      </trkpt>
      <trkpt lat="47.14592" lon="-0.90458">
        <ele>107</ele>
        <time>2023-05-31T23:21:21Z</time>
      </trkpt>
      <trkpt lat="47.1461" lon="-0.90481">
        <ele>108</ele>
        <time>2023-05-31T23:21:26Z</time>
      </trkpt>
      <trkpt lat="47.14663" lon="-0.90574">
        <ele>108</ele>
        <time>2023-05-31T23:21:40Z</time>
      </trkpt>
      <trkpt lat="47.14695" lon="-0.90618">
        <ele>107</ele>
        <time>2023-05-31T23:21:48Z</time>
      </trkpt>
      <trkpt lat="47.14729" lon="-0.90661">
        <ele>106</ele>
        <time>2023-05-31T23:21:56Z</time>
      </trkpt>
      <trkpt lat="47.14775" lon="-0.90714">
        <ele>104</ele>
        <time>2023-05-31T23:22:06Z</time>
      </trkpt>
      <trkpt lat="47.14812" lon="-0.90752">
        <ele>102</ele>
        <time>2023-05-31T23:22:14Z</time>
      </trkpt>
      <trkpt lat="47.14943" lon="-0.90887">
        <ele>106</ele>
        <time>2023-05-31T23:22:43Z</time>
      </trkpt>
      <trkpt lat="47.14959" lon="-0.90908">
        <ele>107</ele>
        <time>2023-05-31T23:22:47Z</time>
      </trkpt>
      <trkpt lat="47.14968" lon="-0.90922">
        <ele>107</ele>
        <time>2023-05-31T23:22:49Z</time>
      </trkpt>
      <trkpt lat="47.15117" lon="-0.9127">
        <ele>111</ele>
        <time>2023-05-31T23:23:39Z</time>
      </trkpt>
      <trkpt lat="47.1513" lon="-0.91299">
        <ele>111</ele>
        <time>2023-05-31T23:23:43Z</time>
      </trkpt>
      <trkpt lat="47.15147" lon="-0.91327">
        <ele>111</ele>
        <time>2023-05-31T23:23:48Z</time>
      </trkpt>
      <trkpt lat="47.15292" lon="-0.91514">
        <ele>107</ele>
        <time>2023-05-31T23:24:22Z</time>
      </trkpt>
      <trkpt lat="47.15321" lon="-0.91557">
        <ele>106</ele>
        <time>2023-05-31T23:24:29Z</time>
      </trkpt>
      <trkpt lat="47.15336" lon="-0.91585">
        <ele>104</ele>
        <time>2023-05-31T23:24:34Z</time>
      </trkpt>
      <trkpt lat="47.15369" lon="-0.91655">
        <ele>99</ele>
        <time>2023-05-31T23:24:44Z</time>
      </trkpt>
      <trkpt lat="47.15393" lon="-0.91697">
        <ele>98</ele>
        <time>2023-05-31T23:24:50Z</time>
      </trkpt>
      <trkpt lat="47.15439" lon="-0.9175">
        <ele>100</ele>
        <time>2023-05-31T23:25:01Z</time>
      </trkpt>
      <trkpt lat="47.15475" lon="-0.91783">
        <ele>102</ele>
        <time>2023-05-31T23:25:08Z</time>
      </trkpt>
      <trkpt lat="47.15564" lon="-0.91836">
        <ele>109</ele>
        <time>2023-05-31T23:25:26Z</time>
      </trkpt>
      <trkpt lat="47.156" lon="-0.91855">
        <ele>110</ele>
        <time>2023-05-31T23:25:32Z</time>
      </trkpt>
      <trkpt lat="47.15723" lon="-0.91889">
        <ele>111</ele>
        <time>2023-05-31T23:25:55Z</time>
      </trkpt>
      <trkpt lat="47.15755" lon="-0.91913">
        <ele>111</ele>
        <time>2023-05-31T23:26:01Z</time>
      </trkpt>
      <trkpt lat="47.15804" lon="-0.91959">
        <ele>111</ele>
        <time>2023-05-31T23:26:11Z</time>
      </trkpt>
      <trkpt lat="47.15844" lon="-0.91994">
        <ele>111</ele>
        <time>2023-05-31T23:26:20Z</time>
      </trkpt>
      <trkpt lat="47.15858" lon="-0.92004">
        <ele>111</ele>
        <time>2023-05-31T23:26:22Z</time>
      </trkpt>
      <trkpt lat="47.15969" lon="-0.92063">
        <ele>112</ele>
        <time>2023-05-31T23:26:43Z</time>
      </trkpt>
      <trkpt lat="47.16061" lon="-0.92132">
        <ele>113</ele>
        <time>2023-05-31T23:27:02Z</time>
      </trkpt>
      <trkpt lat="47.16086" lon="-0.92163">
        <ele>113</ele>
        <time>2023-05-31T23:27:08Z</time>
      </trkpt>
      <trkpt lat="47.16141" lon="-0.92262">
        <ele>114</ele>
        <time>2023-05-31T23:27:23Z</time>
      </trkpt>
      <trkpt lat="47.16155" lon="-0.92283">
        <ele>114</ele>
        <time>2023-05-31T23:27:27Z</time>
      </trkpt>
      <trkpt lat="47.16195" lon="-0.92325">
        <ele>114</ele>
        <time>2023-05-31T23:27:35Z</time>
      </trkpt>
      <trkpt lat="47.16284" lon="-0.92482">
        <ele>115</ele>
        <time>2023-05-31T23:28:00Z</time>
      </trkpt>
      <trkpt lat="47.16315" lon="-0.92525">
        <ele>114</ele>
        <time>2023-05-31T23:28:08Z</time>
      </trkpt>
      <trkpt lat="47.16388" lon="-0.92638">
        <ele>112</ele>
        <time>2023-05-31T23:28:27Z</time>
      </trkpt>
      <trkpt lat="47.16443" lon="-0.92704">
        <ele>113</ele>
        <time>2023-05-31T23:28:39Z</time>
      </trkpt>
      <trkpt lat="47.16466" lon="-0.92734">
        <ele>113</ele>
        <time>2023-05-31T23:28:45Z</time>
      </trkpt>
      <trkpt lat="47.16484" lon="-0.92767">
        <ele>113</ele>
        <time>2023-05-31T23:28:50Z</time>
      </trkpt>
      <trkpt lat="47.16521" lon="-0.92866">
        <ele>111</ele>
        <time>2023-05-31T23:29:03Z</time>
      </trkpt>
      <trkpt lat="47.16537" lon="-0.92916">
        <ele>109</ele>
        <time>2023-05-31T23:29:10Z</time>
      </trkpt>
      <trkpt lat="47.16592" lon="-0.93139">
        <ele>109</ele>
        <time>2023-05-31T23:29:39Z</time>
      </trkpt>
      <trkpt lat="47.16602" lon="-0.93197">
        <ele>110</ele>
        <time>2023-05-31T23:29:46Z</time>
      </trkpt>
      <trkpt lat="47.16612" lon="-0.93306">
        <ele>112</ele>
        <time>2023-05-31T23:29:59Z</time>
      </trkpt>
      <trkpt lat="47.16629" lon="-0.93445">
        <ele>113</ele>
        <time>2023-05-31T23:30:16Z</time>
      </trkpt>
      <trkpt lat="47.16638" lon="-0.93496">
        <ele>113</ele>
        <time>2023-05-31T23:30:23Z</time>
      </trkpt>
      <trkpt lat="47.16667" lon="-0.93625">
        <ele>111</ele>
        <time>2023-05-31T23:30:39Z</time>
      </trkpt>
      <trkpt lat="47.16746" lon="-0.93904">
        <ele>109</ele>
        <time>2023-05-31T23:31:16Z</time>
      </trkpt>
      <trkpt lat="47.16785" lon="-0.94122">
        <ele>109</ele>
        <time>2023-05-31T23:31:43Z</time>
      </trkpt>
      <trkpt lat="47.1683" lon="-0.94441">
        <ele>107</ele>
        <time>2023-05-31T23:32:22Z</time>
      </trkpt>
      <trkpt lat="47.16843" lon="-0.94505">
        <ele>106</ele>
        <time>2023-05-31T23:32:31Z</time>
      </trkpt>
      <trkpt lat="47.16851" lon="-0.94534">
        <ele>105</ele>
        <time>2023-05-31T23:32:34Z</time>
      </trkpt>
      <trkpt lat="47.16858" lon="-0.94546">
        <ele>105</ele>
        <time>2023-05-31T23:32:36Z</time>
      </trkpt>
      <trkpt lat="47.16862" lon="-0.94545">
        <ele>105</ele>
        <time>2023-05-31T23:32:37Z</time>
      </trkpt>
      <trkpt lat="47.16867" lon="-0.94546">
        <ele>105</ele>
        <time>2023-05-31T23:32:38Z</time>
      </trkpt>
      <trkpt lat="47.1687" lon="-0.94549">
        <ele>105</ele>
        <time>2023-05-31T23:32:38Z</time>
      </trkpt>
      <trkpt lat="47.16873" lon="-0.9456">
        <ele>105</ele>
        <time>2023-05-31T23:32:40Z</time>
      </trkpt>
      <trkpt lat="47.16872" lon="-0.94567">
        <ele>105</ele>
        <time>2023-05-31T23:32:41Z</time>
      </trkpt>
      <trkpt lat="47.16867" lon="-0.94575">
        <ele>105</ele>
        <time>2023-05-31T23:32:42Z</time>
      </trkpt>
      <trkpt lat="47.16881" lon="-0.94643">
        <ele>104</ele>
        <time>2023-05-31T23:32:51Z</time>
      </trkpt>
      <trkpt lat="47.16899" lon="-0.94702">
        <ele>105</ele>
        <time>2023-05-31T23:32:59Z</time>
      </trkpt>
      <trkpt lat="47.16916" lon="-0.9475">
        <ele>105</ele>
        <time>2023-05-31T23:33:05Z</time>
      </trkpt>
      <trkpt lat="47.16926" lon="-0.94771">
        <ele>105</ele>
        <time>2023-05-31T23:33:08Z</time>
      </trkpt>
      <trkpt lat="47.16948" lon="-0.94797">
        <ele>105</ele>
        <time>2023-05-31T23:33:13Z</time>
      </trkpt>
      <trkpt lat="47.17004" lon="-0.94846">
        <ele>104</ele>
        <time>2023-05-31T23:33:25Z</time>
      </trkpt>
      <trkpt lat="47.17011" lon="-0.94858">
        <ele>104</ele>
        <time>2023-05-31T23:33:27Z</time>
      </trkpt>
      <trkpt lat="47.17018" lon="-0.94871">
        <ele>103</ele>
        <time>2023-05-31T23:33:29Z</time>
      </trkpt>
      <trkpt lat="47.17024" lon="-0.94893">
        <ele>103</ele>
        <time>2023-05-31T23:33:32Z</time>
      </trkpt>
      <trkpt lat="47.17041" lon="-0.94979">
        <ele>103</ele>
        <time>2023-05-31T23:33:42Z</time>
      </trkpt>
      <trkpt lat="47.17046" lon="-0.94997">
        <ele>102</ele>
        <time>2023-05-31T23:33:45Z</time>
      </trkpt>
      <trkpt lat="47.17053" lon="-0.95013">
        <ele>102</ele>
        <time>2023-05-31T23:33:47Z</time>
      </trkpt>
      <trkpt lat="47.17068" lon="-0.95036">
        <ele>101</ele>
        <time>2023-05-31T23:33:51Z</time>
      </trkpt>
      <trkpt lat="47.17086" lon="-0.95053">
        <ele>101</ele>
        <time>2023-05-31T23:33:55Z</time>
      </trkpt>
      <trkpt lat="47.171" lon="-0.95065">
        <ele>100</ele>
        <time>2023-05-31T23:33:58Z</time>
      </trkpt>
      <trkpt lat="47.17131" lon="-0.95083">
        <ele>99</ele>
        <time>2023-05-31T23:34:04Z</time>
      </trkpt>
      <trkpt lat="47.17145" lon="-0.95098">
        <ele>98</ele>
        <time>2023-05-31T23:34:07Z</time>
      </trkpt>
      <trkpt lat="47.17159" lon="-0.95126">
        <ele>97</ele>
        <time>2023-05-31T23:34:11Z</time>
      </trkpt>
      <trkpt lat="47.17173" lon="-0.95167">
        <ele>96</ele>
        <time>2023-05-31T23:34:16Z</time>
      </trkpt>
      <trkpt lat="47.17177" lon="-0.95173">
        <ele>96</ele>
        <time>2023-05-31T23:34:17Z</time>
      </trkpt>
      <trkpt lat="47.17175" lon="-0.95186">
        <ele>96</ele>
        <time>2023-05-31T23:34:19Z</time>
      </trkpt>
      <trkpt lat="47.1717" lon="-0.95237">
        <ele>96</ele>
        <time>2023-05-31T23:34:25Z</time>
      </trkpt>
      <trkpt lat="47.17159" lon="-0.95306">
        <ele>96</ele>
        <time>2023-05-31T23:34:34Z</time>
      </trkpt>
      <trkpt lat="47.17155" lon="-0.95372">
        <ele>96</ele>
        <time>2023-05-31T23:34:42Z</time>
      </trkpt>
      <trkpt lat="47.17154" lon="-0.95404">
        <ele>96</ele>
        <time>2023-05-31T23:34:46Z</time>
      </trkpt>
      <trkpt lat="47.17152" lon="-0.95413">
        <ele>96</ele>
        <time>2023-05-31T23:34:47Z</time>
      </trkpt>
      <trkpt lat="47.17159" lon="-0.95467">
        <ele>95</ele>
        <time>2023-05-31T23:34:53Z</time>
      </trkpt>
      <trkpt lat="47.17185" lon="-0.95521">
        <ele>93</ele>
        <time>2023-05-31T23:35:01Z</time>
      </trkpt>
      <trkpt lat="47.17241" lon="-0.95609">
        <ele>86</ele>
        <time>2023-05-31T23:35:16Z</time>
      </trkpt>
      <trkpt lat="47.17358" lon="-0.95763">
        <ele>76</ele>
        <time>2023-05-31T23:35:44Z</time>
      </trkpt>
      <trkpt lat="47.17369" lon="-0.95785">
        <ele>75</ele>
        <time>2023-05-31T23:35:47Z</time>
      </trkpt>
      <trkpt lat="47.1737" lon="-0.95796">
        <ele>75</ele>
        <time>2023-05-31T23:35:49Z</time>
      </trkpt>
      <trkpt lat="47.17365" lon="-0.95808">
        <ele>74</ele>
        <time>2023-05-31T23:35:50Z</time>
      </trkpt>
      <trkpt lat="47.1733" lon="-0.95834">
        <ele>71</ele>
        <time>2023-05-31T23:35:57Z</time>
      </trkpt>
      <trkpt lat="47.17324" lon="-0.95839">
        <ele>72</ele>
        <time>2023-05-31T23:35:59Z</time>
      </trkpt>
      <trkpt lat="47.17312" lon="-0.95848">
        <ele>73</ele>
        <time>2023-05-31T23:36:01Z</time>
      </trkpt>
      <trkpt lat="47.17181" lon="-0.95878">
        <ele>75</ele>
        <time>2023-05-31T23:36:25Z</time>
      </trkpt>
      <trkpt lat="47.17161" lon="-0.95887">
        <ele>76</ele>
        <time>2023-05-31T23:36:28Z</time>
      </trkpt>
      <trkpt lat="47.17151" lon="-0.95894">
        <ele>76</ele>
        <time>2023-05-31T23:36:30Z</time>
      </trkpt>
      <trkpt lat="47.17143" lon="-0.95905">
        <ele>77</ele>
        <time>2023-05-31T23:36:32Z</time>
      </trkpt>
      <trkpt lat="47.17131" lon="-0.95933">
        <ele>78</ele>
        <time>2023-05-31T23:36:36Z</time>
      </trkpt>
      <trkpt lat="47.17123" lon="-0.95967">
        <ele>80</ele>
        <time>2023-05-31T23:36:41Z</time>
      </trkpt>
      <trkpt lat="47.17092" lon="-0.96122">
        <ele>86</ele>
        <time>2023-05-31T23:37:00Z</time>
      </trkpt>
      <trkpt lat="47.17084" lon="-0.96199">
        <ele>89</ele>
        <time>2023-05-31T23:37:10Z</time>
      </trkpt>
      <trkpt lat="47.17076" lon="-0.96244">
        <ele>90</ele>
        <time>2023-05-31T23:37:15Z</time>
      </trkpt>
      <trkpt lat="47.17063" lon="-0.96297">
        <ele>92</ele>
        <time>2023-05-31T23:37:22Z</time>
      </trkpt>
      <trkpt lat="47.17044" lon="-0.96351">
        <ele>93</ele>
        <time>2023-05-31T23:37:29Z</time>
      </trkpt>
      <trkpt lat="47.1699" lon="-0.96455">
        <ele>96</ele>
        <time>2023-05-31T23:37:45Z</time>
      </trkpt>
      <trkpt lat="47.16959" lon="-0.96521">
        <ele>97</ele>
        <time>2023-05-31T23:37:55Z</time>
      </trkpt>
      <trkpt lat="47.16909" lon="-0.96638">
        <ele>99</ele>
        <time>2023-05-31T23:38:12Z</time>
      </trkpt>
      <trkpt lat="47.16895" lon="-0.96673">
        <ele>99</ele>
        <time>2023-05-31T23:38:16Z</time>
      </trkpt>
      <trkpt lat="47.16867" lon="-0.96758">
        <ele>101</ele>
        <time>2023-05-31T23:38:28Z</time>
      </trkpt>
      <trkpt lat="47.16797" lon="-0.96959">
        <ele>104</ele>
        <time>2023-05-31T23:38:55Z</time>
      </trkpt>
      <trkpt lat="47.16785" lon="-0.96983">
        <ele>104</ele>
        <time>2023-05-31T23:38:59Z</time>
      </trkpt>
      <trkpt lat="47.16773" lon="-0.97003">
        <ele>104</ele>
        <time>2023-05-31T23:39:02Z</time>
      </trkpt>
      <trkpt lat="47.16757" lon="-0.9702">
        <ele>104</ele>
        <time>2023-05-31T23:39:06Z</time>
      </trkpt>
      <trkpt lat="47.1674" lon="-0.97033">
        <ele>104</ele>
        <time>2023-05-31T23:39:09Z</time>
      </trkpt>
      <trkpt lat="47.16708" lon="-0.9705">
        <ele>104</ele>
        <time>2023-05-31T23:39:15Z</time>
      </trkpt>
      <trkpt lat="47.16708" lon="-0.97063">
        <ele>104</ele>
        <time>2023-05-31T23:39:17Z</time>
      </trkpt>
      <trkpt lat="47.16703" lon="-0.97073">
        <ele>104</ele>
        <time>2023-05-31T23:39:18Z</time>
      </trkpt>
      <trkpt lat="47.16699" lon="-0.97078">
        <ele>104</ele>
        <time>2023-05-31T23:39:19Z</time>
      </trkpt>
      <trkpt lat="47.16693" lon="-0.97079">
        <ele>104</ele>
        <time>2023-05-31T23:39:20Z</time>
      </trkpt>
      <trkpt lat="47.16688" lon="-0.97078">
        <ele>104</ele>
        <time>2023-05-31T23:39:21Z</time>
      </trkpt>
      <trkpt lat="47.1666" lon="-0.97233">
        <ele>108</ele>
        <time>2023-05-31T23:39:40Z</time>
      </trkpt>
      <trkpt lat="47.16655" lon="-0.97275">
        <ele>109</ele>
        <time>2023-05-31T23:39:46Z</time>
      </trkpt>
      <trkpt lat="47.16641" lon="-0.97331">
        <ele>110</ele>
        <time>2023-05-31T23:39:53Z</time>
      </trkpt>
      <trkpt lat="47.1663" lon="-0.97357">
        <ele>110</ele>
        <time>2023-05-31T23:39:56Z</time>
      </trkpt>
      <trkpt lat="47.16593" lon="-0.97422">
        <ele>110</ele>
        <time>2023-05-31T23:40:07Z</time>
      </trkpt>
      <trkpt lat="47.16584" lon="-0.97449">
        <ele>110</ele>
        <time>2023-05-31T23:40:10Z</time>
      </trkpt>
      <trkpt lat="47.1658" lon="-0.97469">
        <ele>109</ele>
        <time>2023-05-31T23:40:13Z</time>
      </trkpt>
      <trkpt lat="47.16527" lon="-0.97897">
        <ele>107</ele>
        <time>2023-05-31T23:41:06Z</time>
      </trkpt>
      <trkpt lat="47.1652" lon="-0.97934">
        <ele>107</ele>
        <time>2023-05-31T23:41:10Z</time>
      </trkpt>
      <trkpt lat="47.16511" lon="-0.97962">
        <ele>107</ele>
        <time>2023-05-31T23:41:14Z</time>
      </trkpt>
      <trkpt lat="47.16496" lon="-0.97995">
        <ele>107</ele>
        <time>2023-05-31T23:41:19Z</time>
      </trkpt>
      <trkpt lat="47.16422" lon="-0.98119">
        <ele>108</ele>
        <time>2023-05-31T23:41:39Z</time>
      </trkpt>
      <trkpt lat="47.16409" lon="-0.98146">
        <ele>108</ele>
        <time>2023-05-31T23:41:43Z</time>
      </trkpt>
      <trkpt lat="47.16402" lon="-0.98167">
        <ele>108</ele>
        <time>2023-05-31T23:41:46Z</time>
      </trkpt>
      <trkpt lat="47.1639" lon="-0.98209">
        <ele>107</ele>
        <time>2023-05-31T23:41:51Z</time>
      </trkpt>
      <trkpt lat="47.16383" lon="-0.98252">
        <ele>107</ele>
        <time>2023-05-31T23:41:56Z</time>
      </trkpt>
      <trkpt lat="47.16381" lon="-0.98302">
        <ele>106</ele>
        <time>2023-05-31T23:42:02Z</time>
      </trkpt>
      <trkpt lat="47.1639" lon="-0.98394">
        <ele>104</ele>
        <time>2023-05-31T23:42:14Z</time>
      </trkpt>
      <trkpt lat="47.16413" lon="-0.98579">
        <ele>99</ele>
        <time>2023-05-31T23:42:36Z</time>
      </trkpt>
      <trkpt lat="47.16418" lon="-0.98648">
        <ele>98</ele>
        <time>2023-05-31T23:42:45Z</time>
      </trkpt>
      <trkpt lat="47.1642" lon="-0.98705">
        <ele>97</ele>
        <time>2023-05-31T23:42:52Z</time>
      </trkpt>
      <trkpt lat="47.16421" lon="-0.98851">
        <ele>93</ele>
        <time>2023-05-31T23:43:09Z</time>
      </trkpt>
      <trkpt lat="47.16426" lon="-0.98966">
        <ele>87</ele>
        <time>2023-05-31T23:43:23Z</time>
      </trkpt>
      <trkpt lat="47.16438" lon="-0.991">
        <ele>85</ele>
        <time>2023-05-31T23:43:40Z</time>
      </trkpt>
      <trkpt lat="47.1644" lon="-0.99143">
        <ele>86</ele>
        <time>2023-05-31T23:43:45Z</time>
      </trkpt>
      <trkpt lat="47.1644" lon="-0.99173">
        <ele>87</ele>
        <time>2023-05-31T23:43:49Z</time>
      </trkpt>
      <trkpt lat="47.1643" lon="-0.99248">
        <ele>91</ele>
        <time>2023-05-31T23:43:58Z</time>
      </trkpt>
      <trkpt lat="47.16424" lon="-0.99275">
        <ele>92</ele>
        <time>2023-05-31T23:44:01Z</time>
      </trkpt>
      <trkpt lat="47.16416" lon="-0.99297">
        <ele>93</ele>
        <time>2023-05-31T23:44:04Z</time>
      </trkpt>
      <trkpt lat="47.16408" lon="-0.99317">
        <ele>94</ele>
        <time>2023-05-31T23:44:07Z</time>
      </trkpt>
      <trkpt lat="47.16103" lon="-0.99874">
        <ele>105</ele>
        <time>2023-05-31T23:45:34Z</time>
      </trkpt>
      <trkpt lat="47.16093" lon="-0.99893">
        <ele>105</ele>
        <time>2023-05-31T23:45:36Z</time>
      </trkpt>
      <trkpt lat="47.16084" lon="-0.99916">
        <ele>105</ele>
        <time>2023-05-31T23:45:40Z</time>
      </trkpt>
      <trkpt lat="47.16054" lon="-1.00028">
        <ele>104</ele>
        <time>2023-05-31T23:45:54Z</time>
      </trkpt>
      <trkpt lat="47.15942" lon="-1.00433">
        <ele>104</ele>
        <time>2023-05-31T23:46:47Z</time>
      </trkpt>
      <trkpt lat="47.15935" lon="-1.00451">
        <ele>104</ele>
        <time>2023-05-31T23:46:50Z</time>
      </trkpt>
      <trkpt lat="47.15922" lon="-1.00474">
        <ele>105</ele>
        <time>2023-05-31T23:46:53Z</time>
      </trkpt>
      <trkpt lat="47.15813" lon="-1.00615">
        <ele>107</ele>
        <time>2023-05-31T23:47:19Z</time>
      </trkpt>
      <trkpt lat="47.15794" lon="-1.00648">
        <ele>107</ele>
        <time>2023-05-31T23:47:24Z</time>
      </trkpt>
      <trkpt lat="47.15787" lon="-1.00672">
        <ele>107</ele>
        <time>2023-05-31T23:47:27Z</time>
      </trkpt>
      <trkpt lat="47.15734" lon="-1.0088">
        <ele>107</ele>
        <time>2023-05-31T23:47:54Z</time>
      </trkpt>
      <trkpt lat="47.15724" lon="-1.00907">
        <ele>106</ele>
        <time>2023-05-31T23:47:58Z</time>
      </trkpt>
      <trkpt lat="47.15638" lon="-1.01126">
        <ele>106</ele>
        <time>2023-05-31T23:48:29Z</time>
      </trkpt>
      <trkpt lat="47.15618" lon="-1.01162">
        <ele>106</ele>
        <time>2023-05-31T23:48:34Z</time>
      </trkpt>
      <trkpt lat="47.15268" lon="-1.01677">
        <ele>105</ele>
        <time>2023-05-31T23:50:02Z</time>
      </trkpt>
      <trkpt lat="47.15256" lon="-1.01689">
        <ele>104</ele>
        <time>2023-05-31T23:50:05Z</time>
      </trkpt>
      <trkpt lat="47.15235" lon="-1.01704">
        <ele>104</ele>
        <time>2023-05-31T23:50:09Z</time>
      </trkpt>
      <trkpt lat="47.15176" lon="-1.01714">
        <ele>103</ele>
        <time>2023-05-31T23:50:20Z</time>
      </trkpt>
      <trkpt lat="47.15172" lon="-1.01717">
        <ele>102</ele>
        <time>2023-05-31T23:50:20Z</time>
      </trkpt>
      <trkpt lat="47.15181" lon="-1.01758">
        <ele>102</ele>
        <time>2023-05-31T23:50:26Z</time>
      </trkpt>
      <trkpt lat="47.15194" lon="-1.01828">
        <ele>101</ele>
        <time>2023-05-31T23:50:34Z</time>
      </trkpt>
      <trkpt lat="47.15193" lon="-1.01856">
        <ele>100</ele>
        <time>2023-05-31T23:50:38Z</time>
      </trkpt>
      <trkpt lat="47.15174" lon="-1.01857">
        <ele>100</ele>
        <time>2023-05-31T23:50:41Z</time>
      </trkpt>
      <trkpt lat="47.15164" lon="-1.01862">
        <ele>100</ele>
        <time>2023-05-31T23:50:43Z</time>
      </trkpt>
      <trkpt lat="47.15156" lon="-1.01869">
        <ele>99</ele>
        <time>2023-05-31T23:50:45Z</time>
      </trkpt>
      <trkpt lat="47.1515" lon="-1.01879">
        <ele>98</ele>
        <time>2023-05-31T23:50:46Z</time>
      </trkpt>
      <trkpt lat="47.15147" lon="-1.01897">
        <ele>97</ele>
        <time>2023-05-31T23:50:49Z</time>
      </trkpt>
      <trkpt lat="47.15146" lon="-1.01914">
        <ele>97</ele>
        <time>2023-05-31T23:50:51Z</time>
      </trkpt>
      <trkpt lat="47.15148" lon="-1.02013">
        <ele>93</ele>
        <time>2023-05-31T23:51:03Z</time>
      </trkpt>
      <trkpt lat="47.1515" lon="-1.0204">
        <ele>93</ele>
        <time>2023-05-31T23:51:06Z</time>
      </trkpt>
      <trkpt lat="47.15159" lon="-1.02084">
        <ele>94</ele>
        <time>2023-05-31T23:51:12Z</time>
      </trkpt>
      <trkpt lat="47.15184" lon="-1.02156">
        <ele>96</ele>
        <time>2023-05-31T23:51:21Z</time>
      </trkpt>
      <trkpt lat="47.1525" lon="-1.02331">
        <ele>100</ele>
        <time>2023-05-31T23:51:46Z</time>
      </trkpt>
      <trkpt lat="47.15255" lon="-1.02359">
        <ele>100</ele>
        <time>2023-05-31T23:51:49Z</time>
      </trkpt>
      <trkpt lat="47.1526" lon="-1.0241">
        <ele>100</ele>
        <time>2023-05-31T23:51:55Z</time>
      </trkpt>
      <trkpt lat="47.15253" lon="-1.0242">
        <ele>100</ele>
        <time>2023-05-31T23:51:57Z</time>
      </trkpt>
      <trkpt lat="47.15243" lon="-1.0245">
        <ele>99</ele>
        <time>2023-05-31T23:52:01Z</time>
      </trkpt>
      <trkpt lat="47.15224" lon="-1.02486">
        <ele>99</ele>
        <time>2023-05-31T23:52:07Z</time>
      </trkpt>
      <trkpt lat="47.14955" lon="-1.02945">
        <ele>94</ele>
        <time>2023-05-31T23:53:20Z</time>
      </trkpt>
      <trkpt lat="47.14874" lon="-1.03125">
        <ele>90</ele>
        <time>2023-05-31T23:53:46Z</time>
      </trkpt>
      <trkpt lat="47.1486" lon="-1.03168">
        <ele>89</ele>
        <time>2023-05-31T23:53:52Z</time>
      </trkpt>
      <trkpt lat="47.14857" lon="-1.03188">
        <ele>89</ele>
        <time>2023-05-31T23:53:54Z</time>
      </trkpt>
      <trkpt lat="47.14829" lon="-1.03404">
        <ele>85</ele>
        <time>2023-05-31T23:54:21Z</time>
      </trkpt>
      <trkpt lat="47.14822" lon="-1.03448">
        <ele>84</ele>
        <time>2023-05-31T23:54:26Z</time>
      </trkpt>
      <trkpt lat="47.14783" lon="-1.03656">
        <ele>83</ele>
        <time>2023-05-31T23:54:52Z</time>
      </trkpt>
      <trkpt lat="47.14771" lon="-1.03701">
        <ele>83</ele>
        <time>2023-05-31T23:54:58Z</time>
      </trkpt>
      <trkpt lat="47.14685" lon="-1.03926">
        <ele>77</ele>
        <time>2023-05-31T23:55:30Z</time>
      </trkpt>
      <trkpt lat="47.14676" lon="-1.03944">
        <ele>77</ele>
        <time>2023-05-31T23:55:32Z</time>
      </trkpt>
      <trkpt lat="47.14653" lon="-1.0398">
        <ele>76</ele>
        <time>2023-05-31T23:55:38Z</time>
      </trkpt>
      <trkpt lat="47.1446" lon="-1.04236">
        <ele>72</ele>
        <time>2023-05-31T23:56:24Z</time>
      </trkpt>
      <trkpt lat="47.14444" lon="-1.04253">
        <ele>73</ele>
        <time>2023-05-31T23:56:28Z</time>
      </trkpt>
      <trkpt lat="47.14414" lon="-1.04274">
        <ele>74</ele>
        <time>2023-05-31T23:56:34Z</time>
      </trkpt>
      <trkpt lat="47.14127" lon="-1.04439">
        <ele>84</ele>
        <time>2023-05-31T23:57:29Z</time>
      </trkpt>
      <trkpt lat="47.14114" lon="-1.04444">
        <ele>85</ele>
        <time>2023-05-31T23:57:31Z</time>
      </trkpt>
      <trkpt lat="47.14042" lon="-1.04447">
        <ele>87</ele>
        <time>2023-05-31T23:57:44Z</time>
      </trkpt>
      <trkpt lat="47.14012" lon="-1.04454">
        <ele>88</ele>
        <time>2023-05-31T23:57:49Z</time>
      </trkpt>
      <trkpt lat="47.13905" lon="-1.04509">
        <ele>89</ele>
        <time>2023-05-31T23:58:09Z</time>
      </trkpt>
      <trkpt lat="47.13861" lon="-1.04526">
        <ele>90</ele>
        <time>2023-05-31T23:58:18Z</time>
      </trkpt>
      <trkpt lat="47.13746" lon="-1.04561">
        <ele>90</ele>
        <time>2023-05-31T23:58:38Z</time>
      </trkpt>
      <trkpt lat="47.13715" lon="-1.04564">
        <ele>91</ele>
        <time>2023-05-31T23:58:44Z</time>
      </trkpt>
      <trkpt lat="47.13571" lon="-1.04558">
        <ele>94</ele>
        <time>2023-05-31T23:59:10Z</time>
      </trkpt>
      <trkpt lat="47.13551" lon="-1.04559">
        <ele>94</ele>
        <time>2023-05-31T23:59:13Z</time>
      </trkpt>
      <trkpt lat="47.13539" lon="-1.04562">
        <ele>94</ele>
        <time>2023-05-31T23:59:15Z</time>
      </trkpt>
      <trkpt lat="47.13526" lon="-1.04568">
        <ele>95</ele>
        <time>2023-05-31T23:59:18Z</time>
      </trkpt>
      <trkpt lat="47.13509" lon="-1.04579">
        <ele>95</ele>
        <time>2023-05-31T23:59:21Z</time>
      </trkpt>
      <trkpt lat="47.13407" lon="-1.04656">
        <ele>96</ele>
        <time>2023-05-31T23:59:41Z</time>
      </trkpt>
      <trkpt lat="47.1339" lon="-1.04664">
        <ele>96</ele>
        <time>2023-05-31T23:59:45Z</time>
      </trkpt>
      <trkpt lat="47.13295" lon="-1.04693">
        <ele>97</ele>
        <time>2023-06-01T00:00:02Z</time>
      </trkpt>
      <trkpt lat="47.13199" lon="-1.0475">
        <ele>98</ele>
        <time>2023-06-01T00:00:20Z</time>
      </trkpt>
      <trkpt lat="47.13079" lon="-1.04841">
        <ele>100</ele>
        <time>2023-06-01T00:00:44Z</time>
      </trkpt>
      <trkpt lat="47.13044" lon="-1.04863">
        <ele>101</ele>
        <time>2023-06-01T00:00:51Z</time>
      </trkpt>
      <trkpt lat="47.12866" lon="-1.04968">
        <ele>103</ele>
        <time>2023-06-01T00:01:25Z</time>
      </trkpt>
      <trkpt lat="47.12831" lon="-1.04997">
        <ele>104</ele>
        <time>2023-06-01T00:01:32Z</time>
      </trkpt>
      <trkpt lat="47.12806" lon="-1.05028">
        <ele>103</ele>
        <time>2023-06-01T00:01:38Z</time>
      </trkpt>
      <trkpt lat="47.12738" lon="-1.05134">
        <ele>102</ele>
        <time>2023-06-01T00:01:56Z</time>
      </trkpt>
      <trkpt lat="47.12707" lon="-1.05162">
        <ele>102</ele>
        <time>2023-06-01T00:02:02Z</time>
      </trkpt>
      <trkpt lat="47.1269" lon="-1.05174">
        <ele>102</ele>
        <time>2023-06-01T00:02:06Z</time>
      </trkpt>
      <trkpt lat="47.12533" lon="-1.05268">
        <ele>100</ele>
        <time>2023-06-01T00:02:36Z</time>
      </trkpt>
      <trkpt lat="47.12461" lon="-1.05325">
        <ele>100</ele>
        <time>2023-06-01T00:02:50Z</time>
      </trkpt>
      <trkpt lat="47.12437" lon="-1.0534">
        <ele>99</ele>
        <time>2023-06-01T00:02:55Z</time>
      </trkpt>
      <trkpt lat="47.12425" lon="-1.05345">
        <ele>99</ele>
        <time>2023-06-01T00:02:57Z</time>
      </trkpt>
      <trkpt lat="47.12402" lon="-1.05354">
        <ele>99</ele>
        <time>2023-06-01T00:03:02Z</time>
      </trkpt>
      <trkpt lat="47.12386" lon="-1.05364">
        <ele>98</ele>
        <time>2023-06-01T00:03:05Z</time>
      </trkpt>
      <trkpt lat="47.12301" lon="-1.05438">
        <ele>97</ele>
        <time>2023-06-01T00:03:22Z</time>
      </trkpt>
      <trkpt lat="47.12256" lon="-1.05471">
        <ele>95</ele>
        <time>2023-06-01T00:03:31Z</time>
      </trkpt>
      <trkpt lat="47.12213" lon="-1.05496">
        <ele>95</ele>
        <time>2023-06-01T00:03:39Z</time>
      </trkpt>
      <trkpt lat="47.12206" lon="-1.05502">
        <ele>95</ele>
        <time>2023-06-01T00:03:41Z</time>
      </trkpt>
      <trkpt lat="47.12197" lon="-1.05513">
        <ele>95</ele>
        <time>2023-06-01T00:03:43Z</time>
      </trkpt>
      <trkpt lat="47.12183" lon="-1.05551">
        <ele>95</ele>
        <time>2023-06-01T00:03:48Z</time>
      </trkpt>
      <trkpt lat="47.12147" lon="-1.0566">
        <ele>93</ele>
        <time>2023-06-01T00:04:03Z</time>
      </trkpt>
      <trkpt lat="47.12126" lon="-1.05739">
        <ele>92</ele>
        <time>2023-06-01T00:04:13Z</time>
      </trkpt>
      <trkpt lat="47.12119" lon="-1.05767">
        <ele>91</ele>
        <time>2023-06-01T00:04:17Z</time>
      </trkpt>
      <trkpt lat="47.12109" lon="-1.05831">
        <ele>91</ele>
        <time>2023-06-01T00:04:25Z</time>
      </trkpt>
      <trkpt lat="47.12105" lon="-1.05848">
        <ele>91</ele>
        <time>2023-06-01T00:04:27Z</time>
      </trkpt>
      <trkpt lat="47.121" lon="-1.05861">
        <ele>91</ele>
        <time>2023-06-01T00:04:29Z</time>
      </trkpt>
      <trkpt lat="47.12088" lon="-1.05877">
        <ele>91</ele>
        <time>2023-06-01T00:04:31Z</time>
      </trkpt>
      <trkpt lat="47.12072" lon="-1.05889">
        <ele>91</ele>
        <time>2023-06-01T00:04:35Z</time>
      </trkpt>
      <trkpt lat="47.12065" lon="-1.05889">
        <ele>91</ele>
        <time>2023-06-01T00:04:36Z</time>
      </trkpt>
      <trkpt lat="47.12038" lon="-1.05882">
        <ele>91</ele>
        <time>2023-06-01T00:04:41Z</time>
      </trkpt>
      <trkpt lat="47.12029" lon="-1.05886">
        <ele>90</ele>
        <time>2023-06-01T00:04:42Z</time>
      </trkpt>
      <trkpt lat="47.12015" lon="-1.0591">
        <ele>90</ele>
        <time>2023-06-01T00:04:46Z</time>
      </trkpt>
      <trkpt lat="47.11982" lon="-1.05955">
        <ele>90</ele>
        <time>2023-06-01T00:04:54Z</time>
      </trkpt>
      <trkpt lat="47.11963" lon="-1.0597">
        <ele>89</ele>
        <time>2023-06-01T00:04:58Z</time>
      </trkpt>
      <trkpt lat="47.11935" lon="-1.05985">
        <ele>88</ele>
        <time>2023-06-01T00:05:03Z</time>
      </trkpt>
      <trkpt lat="47.11914" lon="-1.0599">
        <ele>88</ele>
        <time>2023-06-01T00:05:07Z</time>
      </trkpt>
      <trkpt lat="47.11904" lon="-1.0599">
        <ele>88</ele>
        <time>2023-06-01T00:05:09Z</time>
      </trkpt>
      <trkpt lat="47.11869" lon="-1.05979">
        <ele>88</ele>
        <time>2023-06-01T00:05:15Z</time>
      </trkpt>
      <trkpt lat="47.11609" lon="-1.05915">
        <ele>91</ele>
        <time>2023-06-01T00:06:02Z</time>
      </trkpt>
      <trkpt lat="47.11563" lon="-1.05911">
        <ele>90</ele>
        <time>2023-06-01T00:06:11Z</time>
      </trkpt>
      <trkpt lat="47.11537" lon="-1.05914">
        <ele>90</ele>
        <time>2023-06-01T00:06:15Z</time>
      </trkpt>
      <trkpt lat="47.11501" lon="-1.05921">
        <ele>90</ele>
        <time>2023-06-01T00:06:22Z</time>
      </trkpt>
      <trkpt lat="47.11486" lon="-1.05928">
        <ele>90</ele>
        <time>2023-06-01T00:06:24Z</time>
      </trkpt>
      <trkpt lat="47.11452" lon="-1.05941">
        <ele>89</ele>
        <time>2023-06-01T00:06:31Z</time>
      </trkpt>
      <trkpt lat="47.11418" lon="-1.05953">
        <ele>89</ele>
        <time>2023-06-01T00:06:37Z</time>
      </trkpt>
      <trkpt lat="47.11396" lon="-1.05955">
        <ele>89</ele>
        <time>2023-06-01T00:06:41Z</time>
      </trkpt>
      <trkpt lat="47.11378" lon="-1.05953">
        <ele>89</ele>
        <time>2023-06-01T00:06:44Z</time>
      </trkpt>
      <trkpt lat="47.1132" lon="-1.05939">
        <ele>89</ele>
        <time>2023-06-01T00:06:54Z</time>
      </trkpt>
      <trkpt lat="47.11297" lon="-1.05936">
        <ele>88</ele>
        <time>2023-06-01T00:06:59Z</time>
      </trkpt>
      <trkpt lat="47.11277" lon="-1.05936">
        <ele>88</ele>
        <time>2023-06-01T00:07:02Z</time>
      </trkpt>
      <trkpt lat="47.11258" lon="-1.05938">
        <ele>87</ele>
        <time>2023-06-01T00:07:06Z</time>
      </trkpt>
      <trkpt lat="47.11204" lon="-1.05949">
        <ele>85</ele>
        <time>2023-06-01T00:07:15Z</time>
      </trkpt>
      <trkpt lat="47.11176" lon="-1.0595">
        <ele>84</ele>
        <time>2023-06-01T00:07:20Z</time>
      </trkpt>
      <trkpt lat="47.11122" lon="-1.05947">
        <ele>84</ele>
        <time>2023-06-01T00:07:30Z</time>
      </trkpt>
      <trkpt lat="47.11083" lon="-1.05938">
        <ele>85</ele>
        <time>2023-06-01T00:07:37Z</time>
      </trkpt>
      <trkpt lat="47.11049" lon="-1.05924">
        <ele>83</ele>
        <time>2023-06-01T00:07:43Z</time>
      </trkpt>
      <trkpt lat="47.10873" lon="-1.05834">
        <ele>77</ele>
        <time>2023-06-01T00:08:16Z</time>
      </trkpt>
      <trkpt lat="47.10859" lon="-1.05829">
        <ele>77</ele>
        <time>2023-06-01T00:08:19Z</time>
      </trkpt>
      <trkpt lat="47.10842" lon="-1.05831">
        <ele>77</ele>
        <time>2023-06-01T00:08:22Z</time>
      </trkpt>
      <trkpt lat="47.10824" lon="-1.05844">
        <ele>77</ele>
        <time>2023-06-01T00:08:25Z</time>
      </trkpt>
      <trkpt lat="47.10775" lon="-1.05904">
        <ele>73</ele>
        <time>2023-06-01T00:08:37Z</time>
      </trkpt>
      <trkpt lat="47.10749" lon="-1.05928">
        <ele>71</ele>
        <time>2023-06-01T00:08:42Z</time>
      </trkpt>
      <trkpt lat="47.10734" lon="-1.05937">
        <ele>70</ele>
        <time>2023-06-01T00:08:45Z</time>
      </trkpt>
      <trkpt lat="47.10656" lon="-1.05973">
        <ele>66</ele>
        <time>2023-06-01T00:09:00Z</time>
      </trkpt>
      <trkpt lat="47.10608" lon="-1.0599">
        <ele>65</ele>
        <time>2023-06-01T00:09:08Z</time>
      </trkpt>
      <trkpt lat="47.10559" lon="-1.06">
        <ele>63</ele>
        <time>2023-06-01T00:09:17Z</time>
      </trkpt>
      <trkpt lat="47.10486" lon="-1.06006">
        <ele>59</ele>
        <time>2023-06-01T00:09:30Z</time>
      </trkpt>
      <trkpt lat="47.10454" lon="-1.06018">
        <ele>58</ele>
        <time>2023-06-01T00:09:36Z</time>
      </trkpt>
      <trkpt lat="47.10436" lon="-1.06023">
        <ele>57</ele>
        <time>2023-06-01T00:09:39Z</time>
      </trkpt>
      <trkpt lat="47.10425" lon="-1.06023">
        <ele>57</ele>
        <time>2023-06-01T00:09:41Z</time>
      </trkpt>
      <trkpt lat="47.10417" lon="-1.0602">
        <ele>56</ele>
        <time>2023-06-01T00:09:43Z</time>
      </trkpt>
      <trkpt lat="47.10384" lon="-1.0599">
        <ele>54</ele>
        <time>2023-06-01T00:09:50Z</time>
      </trkpt>
      <trkpt lat="47.10372" lon="-1.05985">
        <ele>53</ele>
        <time>2023-06-01T00:09:52Z</time>
      </trkpt>
      <trkpt lat="47.10365" lon="-1.05984">
        <ele>52</ele>
        <time>2023-06-01T00:09:53Z</time>
      </trkpt>
      <trkpt lat="47.10352" lon="-1.05989">
        <ele>51</ele>
        <time>2023-06-01T00:09:56Z</time>
      </trkpt>
      <trkpt lat="47.10346" lon="-1.05994">
        <ele>51</ele>
        <time>2023-06-01T00:09:57Z</time>
      </trkpt>
      <trkpt lat="47.10263" lon="-1.0609">
        <ele>45</ele>
        <time>2023-06-01T00:10:16Z</time>
      </trkpt>
      <trkpt lat="47.10255" lon="-1.06098">
        <ele>44</ele>
        <time>2023-06-01T00:10:17Z</time>
      </trkpt>
      <trkpt lat="47.10237" lon="-1.06108">
        <ele>44</ele>
        <time>2023-06-01T00:10:21Z</time>
      </trkpt>
      <trkpt lat="47.10218" lon="-1.06111">
        <ele>43</ele>
        <time>2023-06-01T00:10:24Z</time>
      </trkpt>
      <trkpt lat="47.0995" lon="-1.06098">
        <ele>49</ele>
        <time>2023-06-01T00:11:12Z</time>
      </trkpt>
      <trkpt lat="47.09924" lon="-1.06093">
        <ele>48</ele>
        <time>2023-06-01T00:11:17Z</time>
      </trkpt>
      <trkpt lat="47.09912" lon="-1.06087">
        <ele>48</ele>
        <time>2023-06-01T00:11:19Z</time>
      </trkpt>
      <trkpt lat="47.09896" lon="-1.06077">
        <ele>48</ele>
        <time>2023-06-01T00:11:22Z</time>
      </trkpt>
      <trkpt lat="47.09871" lon="-1.06053">
        <ele>48</ele>
        <time>2023-06-01T00:11:27Z</time>
      </trkpt>
      <trkpt lat="47.09795" lon="-1.05956">
        <ele>50</ele>
        <time>2023-06-01T00:11:45Z</time>
      </trkpt>
      <trkpt lat="47.09739" lon="-1.05874">
        <ele>49</ele>
        <time>2023-06-01T00:11:59Z</time>
      </trkpt>
      <trkpt lat="47.09724" lon="-1.0585">
        <ele>49</ele>
        <time>2023-06-01T00:12:03Z</time>
      </trkpt>
      <trkpt lat="47.09665" lon="-1.05742">
        <ele>46</ele>
        <time>2023-06-01T00:12:20Z</time>
      </trkpt>
      <trkpt lat="47.09655" lon="-1.05729">
        <ele>46</ele>
        <time>2023-06-01T00:12:22Z</time>
      </trkpt>
      <trkpt lat="47.09647" lon="-1.05722">
        <ele>45</ele>
        <time>2023-06-01T00:12:24Z</time>
      </trkpt>
      <trkpt lat="47.09638" lon="-1.05718">
        <ele>45</ele>
        <time>2023-06-01T00:12:26Z</time>
      </trkpt>
      <trkpt lat="47.09594" lon="-1.05711">
        <ele>42</ele>
        <time>2023-06-01T00:12:34Z</time>
      </trkpt>
      <trkpt lat="47.09571" lon="-1.05708">
        <ele>43</ele>
        <time>2023-06-01T00:12:38Z</time>
      </trkpt>
      <trkpt lat="47.0955" lon="-1.05708">
        <ele>46</ele>
        <time>2023-06-01T00:12:41Z</time>
      </trkpt>
      <trkpt lat="47.09532" lon="-1.05713">
        <ele>48</ele>
        <time>2023-06-01T00:12:45Z</time>
      </trkpt>
      <trkpt lat="47.09363" lon="-1.05804">
        <ele>62</ele>
        <time>2023-06-01T00:13:17Z</time>
      </trkpt>
      <trkpt lat="47.09338" lon="-1.05823">
        <ele>63</ele>
        <time>2023-06-01T00:13:22Z</time>
      </trkpt>
      <trkpt lat="47.09301" lon="-1.05857">
        <ele>67</ele>
        <time>2023-06-01T00:13:29Z</time>
      </trkpt>
      <trkpt lat="47.09277" lon="-1.05883">
        <ele>69</ele>
        <time>2023-06-01T00:13:35Z</time>
      </trkpt>
      <trkpt lat="47.09267" lon="-1.05908">
        <ele>70</ele>
        <time>2023-06-01T00:13:38Z</time>
      </trkpt>
      <trkpt lat="47.09214" lon="-1.06059">
        <ele>76</ele>
        <time>2023-06-01T00:13:59Z</time>
      </trkpt>
      <trkpt lat="47.0916" lon="-1.06184">
        <ele>81</ele>
        <time>2023-06-01T00:14:17Z</time>
      </trkpt>
      <trkpt lat="47.09115" lon="-1.06285">
        <ele>84</ele>
        <time>2023-06-01T00:14:31Z</time>
      </trkpt>
      <trkpt lat="47.09109" lon="-1.06311">
        <ele>85</ele>
        <time>2023-06-01T00:14:35Z</time>
      </trkpt>
      <trkpt lat="47.09107" lon="-1.06352">
        <ele>86</ele>
        <time>2023-06-01T00:14:40Z</time>
      </trkpt>
      <trkpt lat="47.09104" lon="-1.06368">
        <ele>87</ele>
        <time>2023-06-01T00:14:42Z</time>
      </trkpt>
      <trkpt lat="47.09099" lon="-1.06387">
        <ele>88</ele>
        <time>2023-06-01T00:14:44Z</time>
      </trkpt>
      <trkpt lat="47.09099" lon="-1.06394">
        <ele>88</ele>
        <time>2023-06-01T00:14:45Z</time>
      </trkpt>
      <trkpt lat="47.09103" lon="-1.06407">
        <ele>89</ele>
        <time>2023-06-01T00:14:47Z</time>
      </trkpt>
      <trkpt lat="47.09112" lon="-1.06415">
        <ele>89</ele>
        <time>2023-06-01T00:14:49Z</time>
      </trkpt>
      <trkpt lat="47.09129" lon="-1.06424">
        <ele>88</ele>
        <time>2023-06-01T00:14:52Z</time>
      </trkpt>
      <trkpt lat="47.09138" lon="-1.06431">
        <ele>88</ele>
        <time>2023-06-01T00:14:54Z</time>
      </trkpt>
      <trkpt lat="47.09156" lon="-1.06475">
        <ele>88</ele>
        <time>2023-06-01T00:15:00Z</time>
      </trkpt>
      <trkpt lat="47.09105" lon="-1.06487">
        <ele>89</ele>
        <time>2023-06-01T00:15:09Z</time>
      </trkpt>
      <trkpt lat="47.09087" lon="-1.06486">
        <ele>90</ele>
        <time>2023-06-01T00:15:12Z</time>
      </trkpt>
      <trkpt lat="47.09066" lon="-1.06488">
        <ele>90</ele>
        <time>2023-06-01T00:15:16Z</time>
      </trkpt>
      <trkpt lat="47.09054" lon="-1.06494">
        <ele>90</ele>
        <time>2023-06-01T00:15:18Z</time>
      </trkpt>
      <trkpt lat="47.08994" lon="-1.06491">
        <ele>90</ele>
        <time>2023-06-01T00:15:29Z</time>
      </trkpt>
      <trkpt lat="47.08954" lon="-1.06513">
        <ele>89</ele>
        <time>2023-06-01T00:15:37Z</time>
      </trkpt>
      <trkpt lat="47.08865" lon="-1.06588">
        <ele>90</ele>
        <time>2023-06-01T00:15:55Z</time>
      </trkpt>
      <trkpt lat="47.08756" lon="-1.06667">
        <ele>92</ele>
        <time>2023-06-01T00:16:16Z</time>
      </trkpt>
      <trkpt lat="47.08658" lon="-1.06729">
        <ele>90</ele>
        <time>2023-06-01T00:16:35Z</time>
      </trkpt>
      <trkpt lat="47.08643" lon="-1.06732">
        <ele>90</ele>
        <time>2023-06-01T00:16:38Z</time>
      </trkpt>
      <trkpt lat="47.08626" lon="-1.06728">
        <ele>89</ele>
        <time>2023-06-01T00:16:41Z</time>
      </trkpt>
      <trkpt lat="47.08618" lon="-1.06753">
        <ele>89</ele>
        <time>2023-06-01T00:16:45Z</time>
      </trkpt>
      <trkpt lat="47.08612" lon="-1.06764">
        <ele>89</ele>
        <time>2023-06-01T00:16:46Z</time>
      </trkpt>
      <trkpt lat="47.08603" lon="-1.06776">
        <ele>89</ele>
        <time>2023-06-01T00:16:48Z</time>
      </trkpt>
      <trkpt lat="47.08555" lon="-1.06825">
        <ele>89</ele>
        <time>2023-06-01T00:16:59Z</time>
      </trkpt>
      <trkpt lat="47.08541" lon="-1.06837">
        <ele>89</ele>
        <time>2023-06-01T00:17:02Z</time>
      </trkpt>
      <trkpt lat="47.08519" lon="-1.0685">
        <ele>89</ele>
        <time>2023-06-01T00:17:06Z</time>
      </trkpt>
      <trkpt lat="47.08509" lon="-1.06853">
        <ele>89</ele>
        <time>2023-06-01T00:17:08Z</time>
      </trkpt>
      <trkpt lat="47.08404" lon="-1.06863">
        <ele>88</ele>
        <time>2023-06-01T00:17:26Z</time>
      </trkpt>
      <trkpt lat="47.08358" lon="-1.06871">
        <ele>88</ele>
        <time>2023-06-01T00:17:35Z</time>
      </trkpt>
      <trkpt lat="47.08321" lon="-1.0688">
        <ele>88</ele>
        <time>2023-06-01T00:17:41Z</time>
      </trkpt>
      <trkpt lat="47.08269" lon="-1.06901">
        <ele>88</ele>
        <time>2023-06-01T00:17:51Z</time>
      </trkpt>
      <trkpt lat="47.08102" lon="-1.06983">
        <ele>90</ele>
        <time>2023-06-01T00:18:22Z</time>
      </trkpt>
      <trkpt lat="47.08085" lon="-1.06994">
        <ele>90</ele>
        <time>2023-06-01T00:18:26Z</time>
      </trkpt>
      <trkpt lat="47.07948" lon="-1.07099">
        <ele>98</ele>
        <time>2023-06-01T00:18:53Z</time>
      </trkpt>
      <trkpt lat="47.07915" lon="-1.07113">
        <ele>99</ele>
        <time>2023-06-01T00:18:59Z</time>
      </trkpt>
      <trkpt lat="47.0786" lon="-1.07121">
        <ele>102</ele>
        <time>2023-06-01T00:19:09Z</time>
      </trkpt>
      <trkpt lat="47.07852" lon="-1.07125">
        <ele>102</ele>
        <time>2023-06-01T00:19:11Z</time>
      </trkpt>
      <trkpt lat="47.0783" lon="-1.07146">
        <ele>103</ele>
        <time>2023-06-01T00:19:15Z</time>
      </trkpt>
      <trkpt lat="47.07821" lon="-1.07152">
        <ele>103</ele>
        <time>2023-06-01T00:19:17Z</time>
      </trkpt>
      <trkpt lat="47.07813" lon="-1.07153">
        <ele>104</ele>
        <time>2023-06-01T00:19:18Z</time>
      </trkpt>
      <trkpt lat="47.07781" lon="-1.07144">
        <ele>106</ele>
        <time>2023-06-01T00:19:24Z</time>
      </trkpt>
      <trkpt lat="47.07768" lon="-1.07143">
        <ele>107</ele>
        <time>2023-06-01T00:19:26Z</time>
      </trkpt>
      <trkpt lat="47.07745" lon="-1.07146">
        <ele>108</ele>
        <time>2023-06-01T00:19:31Z</time>
      </trkpt>
      <trkpt lat="47.07535" lon="-1.0719">
        <ele>116</ele>
        <time>2023-06-01T00:20:08Z</time>
      </trkpt>
      <trkpt lat="47.07483" lon="-1.07207">
        <ele>117</ele>
        <time>2023-06-01T00:20:18Z</time>
      </trkpt>
      <trkpt lat="47.07463" lon="-1.07216">
        <ele>118</ele>
        <time>2023-06-01T00:20:22Z</time>
      </trkpt>
      <trkpt lat="47.07426" lon="-1.07237">
        <ele>118</ele>
        <time>2023-06-01T00:20:29Z</time>
      </trkpt>
      <trkpt lat="47.0741" lon="-1.0725">
        <ele>118</ele>
        <time>2023-06-01T00:20:32Z</time>
      </trkpt>
      <trkpt lat="47.07331" lon="-1.07328">
        <ele>120</ele>
        <time>2023-06-01T00:20:49Z</time>
      </trkpt>
      <trkpt lat="47.07302" lon="-1.07361">
        <ele>121</ele>
        <time>2023-06-01T00:20:55Z</time>
      </trkpt>
      <trkpt lat="47.07178" lon="-1.07513">
        <ele>125</ele>
        <time>2023-06-01T00:21:24Z</time>
      </trkpt>
      <trkpt lat="47.07157" lon="-1.07544">
        <ele>126</ele>
        <time>2023-06-01T00:21:29Z</time>
      </trkpt>
      <trkpt lat="47.07111" lon="-1.07624">
        <ele>126</ele>
        <time>2023-06-01T00:21:42Z</time>
      </trkpt>
      <trkpt lat="47.07081" lon="-1.0768">
        <ele>127</ele>
        <time>2023-06-01T00:21:51Z</time>
      </trkpt>
      <trkpt lat="47.07015" lon="-1.07832">
        <ele>127</ele>
        <time>2023-06-01T00:22:13Z</time>
      </trkpt>
      <trkpt lat="47.06981" lon="-1.07913">
        <ele>128</ele>
        <time>2023-06-01T00:22:24Z</time>
      </trkpt>
      <trkpt lat="47.0691" lon="-1.08129">
        <ele>124</ele>
        <time>2023-06-01T00:22:53Z</time>
      </trkpt>
      <trkpt lat="47.06898" lon="-1.0816">
        <ele>124</ele>
        <time>2023-06-01T00:22:57Z</time>
      </trkpt>
      <trkpt lat="47.06885" lon="-1.08187">
        <ele>124</ele>
        <time>2023-06-01T00:23:01Z</time>
      </trkpt>
      <trkpt lat="47.06872" lon="-1.08209">
        <ele>124</ele>
        <time>2023-06-01T00:23:05Z</time>
      </trkpt>
      <trkpt lat="47.06832" lon="-1.08268">
        <ele>124</ele>
        <time>2023-06-01T00:23:15Z</time>
      </trkpt>
      <trkpt lat="47.06808" lon="-1.08297">
        <ele>123</ele>
        <time>2023-06-01T00:23:21Z</time>
      </trkpt>
      <trkpt lat="47.06789" lon="-1.08317">
        <ele>122</ele>
        <time>2023-06-01T00:23:25Z</time>
      </trkpt>
      <trkpt lat="47.06733" lon="-1.08367">
        <ele>121</ele>
        <time>2023-06-01T00:23:36Z</time>
      </trkpt>
      <trkpt lat="47.06433" lon="-1.08587">
        <ele>116</ele>
        <time>2023-06-01T00:24:36Z</time>
      </trkpt>
      <trkpt lat="47.06407" lon="-1.08603">
        <ele>116</ele>
        <time>2023-06-01T00:24:41Z</time>
      </trkpt>
      <trkpt lat="47.06336" lon="-1.08637">
        <ele>116</ele>
        <time>2023-06-01T00:24:54Z</time>
      </trkpt>
      <trkpt lat="47.06304" lon="-1.08657">
        <ele>116</ele>
        <time>2023-06-01T00:25:01Z</time>
      </trkpt>
      <trkpt lat="47.06209" lon="-1.08722">
        <ele>113</ele>
        <time>2023-06-01T00:25:19Z</time>
      </trkpt>
      <trkpt lat="47.06183" lon="-1.08737">
        <ele>112</ele>
        <time>2023-06-01T00:25:24Z</time>
      </trkpt>
      <trkpt lat="47.06119" lon="-1.08766">
        <ele>113</ele>
        <time>2023-06-01T00:25:36Z</time>
      </trkpt>
      <trkpt lat="47.06103" lon="-1.08776">
        <ele>113</ele>
        <time>2023-06-01T00:25:39Z</time>
      </trkpt>
      <trkpt lat="47.0598" lon="-1.08876">
        <ele>110</ele>
        <time>2023-06-01T00:26:04Z</time>
      </trkpt>
      <trkpt lat="47.05948" lon="-1.089">
        <ele>110</ele>
        <time>2023-06-01T00:26:11Z</time>
      </trkpt>
      <trkpt lat="47.05895" lon="-1.08931">
        <ele>109</ele>
        <time>2023-06-01T00:26:21Z</time>
      </trkpt>
      <trkpt lat="47.05875" lon="-1.08947">
        <ele>109</ele>
        <time>2023-06-01T00:26:25Z</time>
      </trkpt>
      <trkpt lat="47.0579" lon="-1.09037">
        <ele>108</ele>
        <time>2023-06-01T00:26:43Z</time>
      </trkpt>
      <trkpt lat="47.05745" lon="-1.09088">
        <ele>108</ele>
        <time>2023-06-01T00:26:54Z</time>
      </trkpt>
      <trkpt lat="47.05687" lon="-1.09159">
        <ele>107</ele>
        <time>2023-06-01T00:27:07Z</time>
      </trkpt>
      <trkpt lat="47.05646" lon="-1.09204">
        <ele>107</ele>
        <time>2023-06-01T00:27:16Z</time>
      </trkpt>
      <trkpt lat="47.05495" lon="-1.09326">
        <ele>105</ele>
        <time>2023-06-01T00:27:47Z</time>
      </trkpt>
      <trkpt lat="47.05353" lon="-1.09436">
        <ele>102</ele>
        <time>2023-06-01T00:28:15Z</time>
      </trkpt>
      <trkpt lat="47.0525" lon="-1.09509">
        <ele>102</ele>
        <time>2023-06-01T00:28:36Z</time>
      </trkpt>
      <trkpt lat="47.05222" lon="-1.09526">
        <ele>103</ele>
        <time>2023-06-01T00:28:41Z</time>
      </trkpt>
      <trkpt lat="47.05132" lon="-1.09568">
        <ele>104</ele>
        <time>2023-06-01T00:28:58Z</time>
      </trkpt>
      <trkpt lat="47.051" lon="-1.09589">
        <ele>105</ele>
        <time>2023-06-01T00:29:04Z</time>
      </trkpt>
      <trkpt lat="47.05086" lon="-1.09602">
        <ele>105</ele>
        <time>2023-06-01T00:29:07Z</time>
      </trkpt>
      <trkpt lat="47.0492" lon="-1.09788">
        <ele>106</ele>
        <time>2023-06-01T00:29:44Z</time>
      </trkpt>
      <trkpt lat="47.0486" lon="-1.09851">
        <ele>104</ele>
        <time>2023-06-01T00:29:57Z</time>
      </trkpt>
      <trkpt lat="47.04845" lon="-1.09872">
        <ele>103</ele>
        <time>2023-06-01T00:30:01Z</time>
      </trkpt>
      <trkpt lat="47.04755" lon="-1.10037">
        <ele>99</ele>
        <time>2023-06-01T00:30:27Z</time>
      </trkpt>
      <trkpt lat="47.04743" lon="-1.10056">
        <ele>98</ele>
        <time>2023-06-01T00:30:30Z</time>
      </trkpt>
      <trkpt lat="47.04725" lon="-1.10081">
        <ele>98</ele>
        <time>2023-06-01T00:30:34Z</time>
      </trkpt>
      <trkpt lat="47.04624" lon="-1.10195">
        <ele>99</ele>
        <time>2023-06-01T00:30:57Z</time>
      </trkpt>
      <trkpt lat="47.04601" lon="-1.10215">
        <ele>99</ele>
        <time>2023-06-01T00:31:02Z</time>
      </trkpt>
      <trkpt lat="47.04584" lon="-1.10225">
        <ele>100</ele>
        <time>2023-06-01T00:31:05Z</time>
      </trkpt>
      <trkpt lat="47.04565" lon="-1.1024">
        <ele>100</ele>
        <time>2023-06-01T00:31:09Z</time>
      </trkpt>
      <trkpt lat="47.0456" lon="-1.10248">
        <ele>100</ele>
        <time>2023-06-01T00:31:10Z</time>
      </trkpt>
      <trkpt lat="47.04555" lon="-1.1026">
        <ele>100</ele>
        <time>2023-06-01T00:31:12Z</time>
      </trkpt>
      <trkpt lat="47.0455" lon="-1.1029">
        <ele>100</ele>
        <time>2023-06-01T00:31:16Z</time>
      </trkpt>
      <trkpt lat="47.04545" lon="-1.10334">
        <ele>99</ele>
        <time>2023-06-01T00:31:21Z</time>
      </trkpt>
      <trkpt lat="47.04523" lon="-1.10428">
        <ele>98</ele>
        <time>2023-06-01T00:31:33Z</time>
      </trkpt>
      <trkpt lat="47.04513" lon="-1.10449">
        <ele>97</ele>
        <time>2023-06-01T00:31:36Z</time>
      </trkpt>
      <trkpt lat="47.04489" lon="-1.10488">
        <ele>95</ele>
        <time>2023-06-01T00:31:42Z</time>
      </trkpt>
      <trkpt lat="47.04442" lon="-1.1059">
        <ele>98</ele>
        <time>2023-06-01T00:31:57Z</time>
      </trkpt>
      <trkpt lat="47.04405" lon="-1.10703">
        <ele>98</ele>
        <time>2023-06-01T00:32:13Z</time>
      </trkpt>
      <trkpt lat="47.04392" lon="-1.10735">
        <ele>98</ele>
        <time>2023-06-01T00:32:17Z</time>
      </trkpt>
      <trkpt lat="47.04375" lon="-1.10767">
        <ele>97</ele>
        <time>2023-06-01T00:32:22Z</time>
      </trkpt>
      <trkpt lat="47.04169" lon="-1.11128">
        <ele>97</ele>
        <time>2023-06-01T00:33:19Z</time>
      </trkpt>
      <trkpt lat="47.04101" lon="-1.11247">
        <ele>96</ele>
        <time>2023-06-01T00:33:38Z</time>
      </trkpt>
      <trkpt lat="47.04091" lon="-1.11256">
        <ele>96</ele>
        <time>2023-06-01T00:33:40Z</time>
      </trkpt>
      <trkpt lat="47.0408" lon="-1.11259">
        <ele>97</ele>
        <time>2023-06-01T00:33:42Z</time>
      </trkpt>
      <trkpt lat="47.04079" lon="-1.11279">
        <ele>96</ele>
        <time>2023-06-01T00:33:44Z</time>
      </trkpt>
      <trkpt lat="47.03981" lon="-1.11471">
        <ele>96</ele>
        <time>2023-06-01T00:34:14Z</time>
      </trkpt>
      <trkpt lat="47.0389" lon="-1.11658">
        <ele>96</ele>
        <time>2023-06-01T00:34:41Z</time>
      </trkpt>
      <trkpt lat="47.0388" lon="-1.11671">
        <ele>96</ele>
        <time>2023-06-01T00:34:44Z</time>
      </trkpt>
      <trkpt lat="47.03869" lon="-1.1168">
        <ele>97</ele>
        <time>2023-06-01T00:34:46Z</time>
      </trkpt>
      <trkpt lat="47.03835" lon="-1.11699">
        <ele>99</ele>
        <time>2023-06-01T00:34:53Z</time>
      </trkpt>
      <trkpt lat="47.03805" lon="-1.11719">
        <ele>100</ele>
        <time>2023-06-01T00:34:58Z</time>
      </trkpt>
      <trkpt lat="47.03771" lon="-1.11748">
        <ele>101</ele>
        <time>2023-06-01T00:35:05Z</time>
      </trkpt>
      <trkpt lat="47.03699" lon="-1.11641">
        <ele>102</ele>
        <time>2023-06-01T00:35:24Z</time>
      </trkpt>
      <trkpt lat="47.0369" lon="-1.11631">
        <ele>102</ele>
        <time>2023-06-01T00:35:26Z</time>
      </trkpt>
      <trkpt lat="47.0365" lon="-1.11629">
        <ele>103</ele>
        <time>2023-06-01T00:35:33Z</time>
      </trkpt>
      <trkpt lat="47.03567" lon="-1.11618">
        <ele>104</ele>
        <time>2023-06-01T00:35:48Z</time>
      </trkpt>
      <trkpt lat="47.03548" lon="-1.11623">
        <ele>104</ele>
        <time>2023-06-01T00:35:51Z</time>
      </trkpt>
      <trkpt lat="47.03475" lon="-1.11662">
        <ele>102</ele>
        <time>2023-06-01T00:36:05Z</time>
      </trkpt>
      <trkpt lat="47.03398" lon="-1.11715">
        <ele>99</ele>
        <time>2023-06-01T00:36:20Z</time>
      </trkpt>
      <trkpt lat="47.0333" lon="-1.11749">
        <ele>97</ele>
        <time>2023-06-01T00:36:33Z</time>
      </trkpt>
      <trkpt lat="47.03304" lon="-1.11761">
        <ele>96</ele>
        <time>2023-06-01T00:36:38Z</time>
      </trkpt>
      <trkpt lat="47.03291" lon="-1.11765">
        <ele>96</ele>
        <time>2023-06-01T00:36:40Z</time>
      </trkpt>
      <trkpt lat="47.03278" lon="-1.11765">
        <ele>96</ele>
        <time>2023-06-01T00:36:42Z</time>
      </trkpt>
      <trkpt lat="47.03204" lon="-1.11739">
        <ele>92</ele>
        <time>2023-06-01T00:36:56Z</time>
      </trkpt>
      <trkpt lat="47.03181" lon="-1.11726">
        <ele>91</ele>
        <time>2023-06-01T00:37:00Z</time>
      </trkpt>
      <trkpt lat="47.0315" lon="-1.11703">
        <ele>89</ele>
        <time>2023-06-01T00:37:06Z</time>
      </trkpt>
      <trkpt lat="47.03134" lon="-1.11695">
        <ele>88</ele>
        <time>2023-06-01T00:37:09Z</time>
      </trkpt>
      <trkpt lat="47.0307" lon="-1.11683">
        <ele>85</ele>
        <time>2023-06-01T00:37:21Z</time>
      </trkpt>
      <trkpt lat="47.03025" lon="-1.11678">
        <ele>83</ele>
        <time>2023-06-01T00:37:29Z</time>
      </trkpt>
      <trkpt lat="47.02963" lon="-1.11677">
        <ele>83</ele>
        <time>2023-06-01T00:37:40Z</time>
      </trkpt>
      <trkpt lat="47.02852" lon="-1.11681">
        <ele>87</ele>
        <time>2023-06-01T00:38:00Z</time>
      </trkpt>
      <trkpt lat="47.02827" lon="-1.11682">
        <ele>88</ele>
        <time>2023-06-01T00:38:04Z</time>
      </trkpt>
      <trkpt lat="47.02763" lon="-1.11697">
        <ele>88</ele>
        <time>2023-06-01T00:38:16Z</time>
      </trkpt>
      <trkpt lat="47.02748" lon="-1.11698">
        <ele>89</ele>
        <time>2023-06-01T00:38:18Z</time>
      </trkpt>
      <trkpt lat="47.0274" lon="-1.11695">
        <ele>89</ele>
        <time>2023-06-01T00:38:20Z</time>
      </trkpt>
      <trkpt lat="47.02725" lon="-1.11682">
        <ele>89</ele>
        <time>2023-06-01T00:38:23Z</time>
      </trkpt>
      <trkpt lat="47.02712" lon="-1.1166">
        <ele>90</ele>
        <time>2023-06-01T00:38:26Z</time>
      </trkpt>
      <trkpt lat="47.02637" lon="-1.11419">
        <ele>93</ele>
        <time>2023-06-01T00:38:59Z</time>
      </trkpt>
      <trkpt lat="47.02624" lon="-1.11388">
        <ele>94</ele>
        <time>2023-06-01T00:39:03Z</time>
      </trkpt>
      <trkpt lat="47.0261" lon="-1.1136">
        <ele>93</ele>
        <time>2023-06-01T00:39:07Z</time>
      </trkpt>
      <trkpt lat="47.02593" lon="-1.11332">
        <ele>93</ele>
        <time>2023-06-01T00:39:12Z</time>
      </trkpt>
      <trkpt lat="47.02376" lon="-1.11012">
        <ele>85</ele>
        <time>2023-06-01T00:40:06Z</time>
      </trkpt>
      <trkpt lat="47.0235" lon="-1.10985">
        <ele>86</ele>
        <time>2023-06-01T00:40:12Z</time>
      </trkpt>
      <trkpt lat="47.02296" lon="-1.10946">
        <ele>90</ele>
        <time>2023-06-01T00:40:23Z</time>
      </trkpt>
      <trkpt lat="47.02276" lon="-1.10922">
        <ele>91</ele>
        <time>2023-06-01T00:40:27Z</time>
      </trkpt>
      <trkpt lat="47.02238" lon="-1.10858">
        <ele>91</ele>
        <time>2023-06-01T00:40:38Z</time>
      </trkpt>
      <trkpt lat="47.02126" lon="-1.10662">
        <ele>89</ele>
        <time>2023-06-01T00:41:09Z</time>
      </trkpt>
      <trkpt lat="47.02102" lon="-1.10617">
        <ele>87</ele>
        <time>2023-06-01T00:41:16Z</time>
      </trkpt>
      <trkpt lat="47.02097" lon="-1.1061">
        <ele>87</ele>
        <time>2023-06-01T00:41:17Z</time>
      </trkpt>
      <trkpt lat="47.02039" lon="-1.10657">
        <ele>85</ele>
        <time>2023-06-01T00:41:29Z</time>
      </trkpt>
      <trkpt lat="47.02015" lon="-1.10681">
        <ele>83</ele>
        <time>2023-06-01T00:41:34Z</time>
      </trkpt>
      <trkpt lat="47.01978" lon="-1.10739">
        <ele>82</ele>
        <time>2023-06-01T00:41:44Z</time>
      </trkpt>
      <trkpt lat="47.01964" lon="-1.10755">
        <ele>81</ele>
        <time>2023-06-01T00:41:47Z</time>
      </trkpt>
      <trkpt lat="47.0188" lon="-1.10834">
        <ele>76</ele>
        <time>2023-06-01T00:42:04Z</time>
      </trkpt>
      <trkpt lat="47.01851" lon="-1.10859">
        <ele>75</ele>
        <time>2023-06-01T00:42:10Z</time>
      </trkpt>
      <trkpt lat="47.01831" lon="-1.10874">
        <ele>75</ele>
        <time>2023-06-01T00:42:14Z</time>
      </trkpt>
      <trkpt lat="47.01799" lon="-1.10892">
        <ele>72</ele>
        <time>2023-06-01T00:42:21Z</time>
      </trkpt>
      <trkpt lat="47.01782" lon="-1.10896">
        <ele>70</ele>
        <time>2023-06-01T00:42:24Z</time>
      </trkpt>
      <trkpt lat="47.01748" lon="-1.10893">
        <ele>67</ele>
        <time>2023-06-01T00:42:30Z</time>
      </trkpt>
      <trkpt lat="47.01733" lon="-1.10894">
        <ele>65</ele>
        <time>2023-06-01T00:42:32Z</time>
      </trkpt>
      <trkpt lat="47.01715" lon="-1.10904">
        <ele>64</ele>
        <time>2023-06-01T00:42:36Z</time>
      </trkpt>
      <trkpt lat="47.01662" lon="-1.10943">
        <ele>58</ele>
        <time>2023-06-01T00:42:46Z</time>
      </trkpt>
      <trkpt lat="47.01653" lon="-1.10954">
        <ele>57</ele>
        <time>2023-06-01T00:42:48Z</time>
      </trkpt>
      <trkpt lat="47.01634" lon="-1.10987">
        <ele>55</ele>
        <time>2023-06-01T00:42:54Z</time>
      </trkpt>
      <trkpt lat="47.01622" lon="-1.11016">
        <ele>53</ele>
        <time>2023-06-01T00:42:58Z</time>
      </trkpt>
      <trkpt lat="47.01614" lon="-1.11053">
        <ele>52</ele>
        <time>2023-06-01T00:43:02Z</time>
      </trkpt>
      <trkpt lat="47.01607" lon="-1.11112">
        <ele>51</ele>
        <time>2023-06-01T00:43:10Z</time>
      </trkpt>
      <trkpt lat="47.016" lon="-1.11176">
        <ele>50</ele>
        <time>2023-06-01T00:43:18Z</time>
      </trkpt>
      <trkpt lat="47.01596" lon="-1.11204">
        <ele>50</ele>
        <time>2023-06-01T00:43:21Z</time>
      </trkpt>
      <trkpt lat="47.01594" lon="-1.11226">
        <ele>50</ele>
        <time>2023-06-01T00:43:24Z</time>
      </trkpt>
      <trkpt lat="47.01579" lon="-1.11301">
        <ele>56</ele>
        <time>2023-06-01T00:43:33Z</time>
      </trkpt>
      <trkpt lat="47.01546" lon="-1.1139">
        <ele>68</ele>
        <time>2023-06-01T00:43:45Z</time>
      </trkpt>
      <trkpt lat="47.0153" lon="-1.11447">
        <ele>70</ele>
        <time>2023-06-01T00:43:53Z</time>
      </trkpt>
      <trkpt lat="47.01508" lon="-1.11509">
        <ele>68</ele>
        <time>2023-06-01T00:44:01Z</time>
      </trkpt>
      <trkpt lat="47.01505" lon="-1.11506">
        <ele>68</ele>
        <time>2023-06-01T00:44:02Z</time>
      </trkpt>
      <trkpt lat="47.01496" lon="-1.11507">
        <ele>69</ele>
        <time>2023-06-01T00:44:04Z</time>
      </trkpt>
      <trkpt lat="47.01474" lon="-1.11538">
        <ele>68</ele>
        <time>2023-06-01T00:44:09Z</time>
      </trkpt>
      <trkpt lat="47.01446" lon="-1.11561">
        <ele>70</ele>
        <time>2023-06-01T00:44:15Z</time>
      </trkpt>
      <trkpt lat="47.01419" lon="-1.11575">
        <ele>72</ele>
        <time>2023-06-01T00:44:20Z</time>
      </trkpt>
      <trkpt lat="47.01396" lon="-1.1158">
        <ele>73</ele>
        <time>2023-06-01T00:44:24Z</time>
      </trkpt>
      <trkpt lat="47.01356" lon="-1.11579">
        <ele>75</ele>
        <time>2023-06-01T00:44:31Z</time>
      </trkpt>
      <trkpt lat="47.0133" lon="-1.11569">
        <ele>77</ele>
        <time>2023-06-01T00:44:36Z</time>
      </trkpt>
      <trkpt lat="47.01264" lon="-1.11536">
        <ele>77</ele>
        <time>2023-06-01T00:44:48Z</time>
      </trkpt>
      <trkpt lat="47.0123" lon="-1.11521">
        <ele>78</ele>
        <time>2023-06-01T00:44:55Z</time>
      </trkpt>
      <trkpt lat="47.01205" lon="-1.11517">
        <ele>78</ele>
        <time>2023-06-01T00:44:59Z</time>
      </trkpt>
      <trkpt lat="47.01187" lon="-1.11517">
        <ele>79</ele>
        <time>2023-06-01T00:45:02Z</time>
      </trkpt>
      <trkpt lat="47.01138" lon="-1.11526">
        <ele>79</ele>
        <time>2023-06-01T00:45:11Z</time>
      </trkpt>
      <trkpt lat="47.01072" lon="-1.11548">
        <ele>80</ele>
        <time>2023-06-01T00:45:23Z</time>
      </trkpt>
      <trkpt lat="47.01031" lon="-1.11551">
        <ele>80</ele>
        <time>2023-06-01T00:45:31Z</time>
      </trkpt>
      <trkpt lat="47.0099" lon="-1.1154">
        <ele>81</ele>
        <time>2023-06-01T00:45:38Z</time>
      </trkpt>
      <trkpt lat="47.00965" lon="-1.11526">
        <ele>82</ele>
        <time>2023-06-01T00:45:43Z</time>
      </trkpt>
      <trkpt lat="47.00931" lon="-1.11498">
        <ele>84</ele>
        <time>2023-06-01T00:45:50Z</time>
      </trkpt>
      <trkpt lat="47.00888" lon="-1.11453">
        <ele>86</ele>
        <time>2023-06-01T00:45:59Z</time>
      </trkpt>
      <trkpt lat="47.00868" lon="-1.11423">
        <ele>87</ele>
        <time>2023-06-01T00:46:04Z</time>
      </trkpt>
      <trkpt lat="47.00853" lon="-1.11395">
        <ele>88</ele>
        <time>2023-06-01T00:46:08Z</time>
      </trkpt>
      <trkpt lat="47.00833" lon="-1.11339">
        <ele>91</ele>
        <time>2023-06-01T00:46:16Z</time>
      </trkpt>
      <trkpt lat="47.00814" lon="-1.11273">
        <ele>93</ele>
        <time>2023-06-01T00:46:25Z</time>
      </trkpt>
      <trkpt lat="47.0081" lon="-1.1127">
        <ele>93</ele>
        <time>2023-06-01T00:46:26Z</time>
      </trkpt>
      <trkpt lat="47.00793" lon="-1.11203">
        <ele>94</ele>
        <time>2023-06-01T00:46:34Z</time>
      </trkpt>
      <trkpt lat="47.00795" lon="-1.11197">
        <ele>94</ele>
        <time>2023-06-01T00:46:35Z</time>
      </trkpt>
      <trkpt lat="47.00776" lon="-1.1111">
        <ele>96</ele>
        <time>2023-06-01T00:46:46Z</time>
      </trkpt>
      <trkpt lat="47.00761" lon="-1.10998">
        <ele>98</ele>
        <time>2023-06-01T00:47:00Z</time>
      </trkpt>
      <trkpt lat="47.00755" lon="-1.10935">
        <ele>99</ele>
        <time>2023-06-01T00:47:08Z</time>
      </trkpt>
      <trkpt lat="47.00751" lon="-1.10852">
        <ele>99</ele>
        <time>2023-06-01T00:47:18Z</time>
      </trkpt>
      <trkpt lat="47.00744" lon="-1.10771">
        <ele>100</ele>
        <time>2023-06-01T00:47:28Z</time>
      </trkpt>
      <trkpt lat="47.00735" lon="-1.10701">
        <ele>102</ele>
        <time>2023-06-01T00:47:36Z</time>
      </trkpt>
      <trkpt lat="47.00716" lon="-1.10607">
        <ele>103</ele>
        <time>2023-06-01T00:47:48Z</time>
      </trkpt>
      <trkpt lat="47.00706" lon="-1.10567">
        <ele>104</ele>
        <time>2023-06-01T00:47:53Z</time>
      </trkpt>
      <trkpt lat="47.00682" lon="-1.10484">
        <ele>104</ele>
        <time>2023-06-01T00:48:04Z</time>
      </trkpt>
      <trkpt lat="47.00632" lon="-1.10339">
        <ele>104</ele>
        <time>2023-06-01T00:48:24Z</time>
      </trkpt>
      <trkpt lat="47.00576" lon="-1.10194">
        <ele>105</ele>
        <time>2023-06-01T00:48:44Z</time>
      </trkpt>
      <trkpt lat="47.00538" lon="-1.10106">
        <ele>105</ele>
        <time>2023-06-01T00:48:57Z</time>
      </trkpt>
      <trkpt lat="47.00477" lon="-1.0998">
        <ele>105</ele>
        <time>2023-06-01T00:49:16Z</time>
      </trkpt>
      <trkpt lat="47.00422" lon="-1.09874">
        <ele>106</ele>
        <time>2023-06-01T00:49:32Z</time>
      </trkpt>
      <trkpt lat="47.00383" lon="-1.09808">
        <ele>106</ele>
        <time>2023-06-01T00:49:42Z</time>
      </trkpt>
      <trkpt lat="47.00354" lon="-1.0976">
        <ele>107</ele>
        <time>2023-06-01T00:49:50Z</time>
      </trkpt>
      <trkpt lat="47.00302" lon="-1.09687">
        <ele>106</ele>
        <time>2023-06-01T00:50:03Z</time>
      </trkpt>
      <trkpt lat="47.00236" lon="-1.09608">
        <ele>105</ele>
        <time>2023-06-01T00:50:18Z</time>
      </trkpt>
      <trkpt lat="47.00198" lon="-1.09569">
        <ele>104</ele>
        <time>2023-06-01T00:50:26Z</time>
      </trkpt>
      <trkpt lat="47.00146" lon="-1.09526">
        <ele>104</ele>
        <time>2023-06-01T00:50:37Z</time>
      </trkpt>
      <trkpt lat="47.0003" lon="-1.09445">
        <ele>104</ele>
        <time>2023-06-01T00:51:00Z</time>
      </trkpt>
      <trkpt lat="46.99884" lon="-1.09356">
        <ele>103</ele>
        <time>2023-06-01T00:51:28Z</time>
      </trkpt>
      <trkpt lat="46.99689" lon="-1.09239">
        <ele>99</ele>
        <time>2023-06-01T00:52:06Z</time>
      </trkpt>
      <trkpt lat="46.99625" lon="-1.09196">
        <ele>100</ele>
        <time>2023-06-01T00:52:18Z</time>
      </trkpt>
      <trkpt lat="46.99535" lon="-1.09127">
        <ele>101</ele>
        <time>2023-06-01T00:52:36Z</time>
      </trkpt>
      <trkpt lat="46.99484" lon="-1.0908">
        <ele>102</ele>
        <time>2023-06-01T00:52:47Z</time>
      </trkpt>
      <trkpt lat="46.99357" lon="-1.08947">
        <ele>107</ele>
        <time>2023-06-01T00:53:15Z</time>
      </trkpt>
      <trkpt lat="46.99303" lon="-1.08895">
        <ele>108</ele>
        <time>2023-06-01T00:53:26Z</time>
      </trkpt>
      <trkpt lat="46.99223" lon="-1.08826">
        <ele>108</ele>
        <time>2023-06-01T00:53:43Z</time>
      </trkpt>
      <trkpt lat="46.99146" lon="-1.0877">
        <ele>109</ele>
        <time>2023-06-01T00:53:58Z</time>
      </trkpt>
      <trkpt lat="46.99102" lon="-1.0874">
        <ele>109</ele>
        <time>2023-06-01T00:54:07Z</time>
      </trkpt>
      <trkpt lat="46.99068" lon="-1.0872">
        <ele>109</ele>
        <time>2023-06-01T00:54:13Z</time>
      </trkpt>
      <trkpt lat="46.98959" lon="-1.08658">
        <ele>109</ele>
        <time>2023-06-01T00:54:34Z</time>
      </trkpt>
      <trkpt lat="46.98841" lon="-1.08599">
        <ele>111</ele>
        <time>2023-06-01T00:54:56Z</time>
      </trkpt>
      <trkpt lat="46.98686" lon="-1.08528">
        <ele>110</ele>
        <time>2023-06-01T00:55:25Z</time>
      </trkpt>
      <trkpt lat="46.98657" lon="-1.08515">
        <ele>110</ele>
        <time>2023-06-01T00:55:30Z</time>
      </trkpt>
      <trkpt lat="46.98581" lon="-1.08472">
        <ele>109</ele>
        <time>2023-06-01T00:55:45Z</time>
      </trkpt>
      <trkpt lat="46.98532" lon="-1.08439">
        <ele>109</ele>
        <time>2023-06-01T00:55:54Z</time>
      </trkpt>
      <trkpt lat="46.98383" lon="-1.08328">
        <ele>110</ele>
        <time>2023-06-01T00:56:24Z</time>
      </trkpt>
      <trkpt lat="46.98337" lon="-1.08297">
        <ele>110</ele>
        <time>2023-06-01T00:56:33Z</time>
      </trkpt>
      <trkpt lat="46.98165" lon="-1.08201">
        <ele>113</ele>
        <time>2023-06-01T00:57:06Z</time>
      </trkpt>
      <trkpt lat="46.98069" lon="-1.08138">
        <ele>116</ele>
        <time>2023-06-01T00:57:25Z</time>
      </trkpt>
      <trkpt lat="46.9802" lon="-1.08101">
        <ele>117</ele>
        <time>2023-06-01T00:57:34Z</time>
      </trkpt>
      <trkpt lat="46.97978" lon="-1.08064">
        <ele>117</ele>
        <time>2023-06-01T00:57:43Z</time>
      </trkpt>
      <trkpt lat="46.97931" lon="-1.08019">
        <ele>117</ele>
        <time>2023-06-01T00:57:53Z</time>
      </trkpt>
      <trkpt lat="46.9783" lon="-1.07913">
        <ele>118</ele>
        <time>2023-06-01T00:58:15Z</time>
      </trkpt>
      <trkpt lat="46.97769" lon="-1.07858">
        <ele>119</ele>
        <time>2023-06-01T00:58:28Z</time>
      </trkpt>
      <trkpt lat="46.9773" lon="-1.07827">
        <ele>119</ele>
        <time>2023-06-01T00:58:36Z</time>
      </trkpt>
      <trkpt lat="46.97661" lon="-1.07778">
        <ele>120</ele>
        <time>2023-06-01T00:58:50Z</time>
      </trkpt>
      <trkpt lat="46.9762" lon="-1.07752">
        <ele>121</ele>
        <time>2023-06-01T00:58:58Z</time>
      </trkpt>
      <trkpt lat="46.97497" lon="-1.07682">
        <ele>121</ele>
        <time>2023-06-01T00:59:21Z</time>
      </trkpt>
      <trkpt lat="46.97411" lon="-1.07638">
        <ele>121</ele>
        <time>2023-06-01T00:59:37Z</time>
      </trkpt>
      <trkpt lat="46.97269" lon="-1.07576">
        <ele>122</ele>
        <time>2023-06-01T01:00:04Z</time>
      </trkpt>
      <trkpt lat="46.97227" lon="-1.07561">
        <ele>122</ele>
        <time>2023-06-01T01:00:11Z</time>
      </trkpt>
      <trkpt lat="46.97153" lon="-1.07538">
        <ele>121</ele>
        <time>2023-06-01T01:00:25Z</time>
      </trkpt>
      <trkpt lat="46.97044" lon="-1.07512">
        <ele>120</ele>
        <time>2023-06-01T01:00:44Z</time>
      </trkpt>
      <trkpt lat="46.9696" lon="-1.07496">
        <ele>119</ele>
        <time>2023-06-01T01:00:59Z</time>
      </trkpt>
      <trkpt lat="46.96834" lon="-1.07481">
        <ele>119</ele>
        <time>2023-06-01T01:01:22Z</time>
      </trkpt>
      <trkpt lat="46.9672" lon="-1.07471">
        <ele>120</ele>
        <time>2023-06-01T01:01:42Z</time>
      </trkpt>
      <trkpt lat="46.96618" lon="-1.07472">
        <ele>119</ele>
        <time>2023-06-01T01:02:00Z</time>
      </trkpt>
      <trkpt lat="46.96552" lon="-1.07478">
        <ele>118</ele>
        <time>2023-06-01T01:02:12Z</time>
      </trkpt>
      <trkpt lat="46.96515" lon="-1.07487">
        <ele>116</ele>
        <time>2023-06-01T01:02:19Z</time>
      </trkpt>
      <trkpt lat="46.9648" lon="-1.07497">
        <ele>115</ele>
        <time>2023-06-01T01:02:25Z</time>
      </trkpt>
      <trkpt lat="46.96382" lon="-1.0754">
        <ele>112</ele>
        <time>2023-06-01T01:02:43Z</time>
      </trkpt>
      <trkpt lat="46.9635" lon="-1.07548">
        <ele>111</ele>
        <time>2023-06-01T01:02:49Z</time>
      </trkpt>
      <trkpt lat="46.96315" lon="-1.07545">
        <ele>110</ele>
        <time>2023-06-01T01:02:55Z</time>
      </trkpt>
      <trkpt lat="46.96297" lon="-1.0754">
        <ele>110</ele>
        <time>2023-06-01T01:02:59Z</time>
      </trkpt>
      <trkpt lat="46.96229" lon="-1.07506">
        <ele>107</ele>
        <time>2023-06-01T01:03:11Z</time>
      </trkpt>
      <trkpt lat="46.96216" lon="-1.07505">
        <ele>106</ele>
        <time>2023-06-01T01:03:14Z</time>
      </trkpt>
      <trkpt lat="46.96191" lon="-1.07515">
        <ele>104</ele>
        <time>2023-06-01T01:03:18Z</time>
      </trkpt>
      <trkpt lat="46.96171" lon="-1.0753">
        <ele>103</ele>
        <time>2023-06-01T01:03:22Z</time>
      </trkpt>
      <trkpt lat="46.96141" lon="-1.07565">
        <ele>101</ele>
        <time>2023-06-01T01:03:29Z</time>
      </trkpt>
      <trkpt lat="46.96124" lon="-1.07582">
        <ele>100</ele>
        <time>2023-06-01T01:03:33Z</time>
      </trkpt>
      <trkpt lat="46.96103" lon="-1.07597">
        <ele>99</ele>
        <time>2023-06-01T01:03:37Z</time>
      </trkpt>
      <trkpt lat="46.96082" lon="-1.07606">
        <ele>98</ele>
        <time>2023-06-01T01:03:41Z</time>
      </trkpt>
      <trkpt lat="46.9606" lon="-1.07608">
        <ele>97</ele>
        <time>2023-06-01T01:03:45Z</time>
      </trkpt>
      <trkpt lat="46.96043" lon="-1.07607">
        <ele>96</ele>
        <time>2023-06-01T01:03:48Z</time>
      </trkpt>
      <trkpt lat="46.9602" lon="-1.07602">
        <ele>94</ele>
        <time>2023-06-01T01:03:52Z</time>
      </trkpt>
      <trkpt lat="46.95997" lon="-1.07587">
        <ele>93</ele>
        <time>2023-06-01T01:03:56Z</time>
      </trkpt>
      <trkpt lat="46.95978" lon="-1.07572">
        <ele>94</ele>
        <time>2023-06-01T01:04:00Z</time>
      </trkpt>
      <trkpt lat="46.95948" lon="-1.0754">
        <ele>94</ele>
        <time>2023-06-01T01:04:07Z</time>
      </trkpt>
      <trkpt lat="46.95924" lon="-1.07501">
        <ele>95</ele>
        <time>2023-06-01T01:04:13Z</time>
      </trkpt>
      <trkpt lat="46.95907" lon="-1.07468">
        <ele>96</ele>
        <time>2023-06-01T01:04:18Z</time>
      </trkpt>
      <trkpt lat="46.95897" lon="-1.07452">
        <ele>96</ele>
        <time>2023-06-01T01:04:21Z</time>
      </trkpt>
      <trkpt lat="46.95886" lon="-1.07442">
        <ele>96</ele>
        <time>2023-06-01T01:04:23Z</time>
      </trkpt>
      <trkpt lat="46.95874" lon="-1.07435">
        <ele>97</ele>
        <time>2023-06-01T01:04:26Z</time>
      </trkpt>
      <trkpt lat="46.95862" lon="-1.07432">
        <ele>97</ele>
        <time>2023-06-01T01:04:28Z</time>
      </trkpt>
      <trkpt lat="46.95836" lon="-1.07436">
        <ele>99</ele>
        <time>2023-06-01T01:04:32Z</time>
      </trkpt>
      <trkpt lat="46.95821" lon="-1.07445">
        <ele>100</ele>
        <time>2023-06-01T01:04:35Z</time>
      </trkpt>
      <trkpt lat="46.95775" lon="-1.075">
        <ele>105</ele>
        <time>2023-06-01T01:04:46Z</time>
      </trkpt>
      <trkpt lat="46.95762" lon="-1.07512">
        <ele>106</ele>
        <time>2023-06-01T01:04:49Z</time>
      </trkpt>
      <trkpt lat="46.95747" lon="-1.07524">
        <ele>108</ele>
        <time>2023-06-01T01:04:52Z</time>
      </trkpt>
      <trkpt lat="46.95707" lon="-1.0754">
        <ele>111</ele>
        <time>2023-06-01T01:04:59Z</time>
      </trkpt>
      <trkpt lat="46.95672" lon="-1.07545">
        <ele>112</ele>
        <time>2023-06-01T01:05:05Z</time>
      </trkpt>
      <trkpt lat="46.95577" lon="-1.07532">
        <ele>116</ele>
        <time>2023-06-01T01:05:22Z</time>
      </trkpt>
      <trkpt lat="46.95538" lon="-1.07533">
        <ele>117</ele>
        <time>2023-06-01T01:05:29Z</time>
      </trkpt>
      <trkpt lat="46.95491" lon="-1.07547">
        <ele>119</ele>
        <time>2023-06-01T01:05:38Z</time>
      </trkpt>
      <trkpt lat="46.95469" lon="-1.07558">
        <ele>121</ele>
        <time>2023-06-01T01:05:42Z</time>
      </trkpt>
      <trkpt lat="46.95447" lon="-1.07573">
        <ele>122</ele>
        <time>2023-06-01T01:05:46Z</time>
      </trkpt>
      <trkpt lat="46.95415" lon="-1.07604">
        <ele>124</ele>
        <time>2023-06-01T01:05:53Z</time>
      </trkpt>
      <trkpt lat="46.95388" lon="-1.07639">
        <ele>124</ele>
        <time>2023-06-01T01:05:59Z</time>
      </trkpt>
      <trkpt lat="46.95352" lon="-1.07702">
        <ele>124</ele>
        <time>2023-06-01T01:06:09Z</time>
      </trkpt>
      <trkpt lat="46.95301" lon="-1.07805">
        <ele>124</ele>
        <time>2023-06-01T01:06:25Z</time>
      </trkpt>
      <trkpt lat="46.95265" lon="-1.07859">
        <ele>123</ele>
        <time>2023-06-01T01:06:34Z</time>
      </trkpt>
      <trkpt lat="46.95234" lon="-1.07892">
        <ele>122</ele>
        <time>2023-06-01T01:06:41Z</time>
      </trkpt>
      <trkpt lat="46.95167" lon="-1.0794">
        <ele>120</ele>
        <time>2023-06-01T01:06:54Z</time>
      </trkpt>
      <trkpt lat="46.95168" lon="-1.07952">
        <ele>120</ele>
        <time>2023-06-01T01:06:56Z</time>
      </trkpt>
      <trkpt lat="46.95164" lon="-1.07964">
        <ele>120</ele>
        <time>2023-06-01T01:06:57Z</time>
      </trkpt>
      <trkpt lat="46.95161" lon="-1.07967">
        <ele>120</ele>
        <time>2023-06-01T01:06:58Z</time>
      </trkpt>
      <trkpt lat="46.95152" lon="-1.0797">
        <ele>120</ele>
        <time>2023-06-01T01:06:59Z</time>
      </trkpt>
      <trkpt lat="46.95148" lon="-1.07968">
        <ele>120</ele>
        <time>2023-06-01T01:07:00Z</time>
      </trkpt>
      <trkpt lat="46.95141" lon="-1.0796">
        <ele>120</ele>
        <time>2023-06-01T01:07:02Z</time>
      </trkpt>
      <trkpt lat="46.9514" lon="-1.07954">
        <ele>120</ele>
        <time>2023-06-01T01:07:03Z</time>
      </trkpt>
      <trkpt lat="46.95064" lon="-1.07988">
        <ele>120</ele>
        <time>2023-06-01T01:07:17Z</time>
      </trkpt>
      <trkpt lat="46.95026" lon="-1.08001">
        <ele>120</ele>
        <time>2023-06-01T01:07:24Z</time>
      </trkpt>
      <trkpt lat="46.94995" lon="-1.08006">
        <ele>120</ele>
        <time>2023-06-01T01:07:29Z</time>
      </trkpt>
      <trkpt lat="46.948" lon="-1.08008">
        <ele>123</ele>
        <time>2023-06-01T01:08:04Z</time>
      </trkpt>
      <trkpt lat="46.9424" lon="-1.08003">
        <ele>128</ele>
        <time>2023-06-01T01:09:44Z</time>
      </trkpt>
      <trkpt lat="46.94103" lon="-1.07999">
        <ele>126</ele>
        <time>2023-06-01T01:10:08Z</time>
      </trkpt>
      <trkpt lat="46.94074" lon="-1.07992">
        <ele>126</ele>
        <time>2023-06-01T01:10:13Z</time>
      </trkpt>
      <trkpt lat="46.94053" lon="-1.07983">
        <ele>126</ele>
        <time>2023-06-01T01:10:17Z</time>
      </trkpt>
      <trkpt lat="46.94014" lon="-1.07962">
        <ele>125</ele>
        <time>2023-06-01T01:10:24Z</time>
      </trkpt>
      <trkpt lat="46.93971" lon="-1.07929">
        <ele>124</ele>
        <time>2023-06-01T01:10:33Z</time>
      </trkpt>
      <trkpt lat="46.93773" lon="-1.0774">
        <ele>123</ele>
        <time>2023-06-01T01:11:15Z</time>
      </trkpt>
      <trkpt lat="46.93744" lon="-1.07723">
        <ele>124</ele>
        <time>2023-06-01T01:11:21Z</time>
      </trkpt>
      <trkpt lat="46.93731" lon="-1.07719">
        <ele>124</ele>
        <time>2023-06-01T01:11:23Z</time>
      </trkpt>
      <trkpt lat="46.93727" lon="-1.07722">
        <ele>124</ele>
        <time>2023-06-01T01:11:24Z</time>
      </trkpt>
      <trkpt lat="46.93715" lon="-1.07723">
        <ele>124</ele>
        <time>2023-06-01T01:11:26Z</time>
      </trkpt>
      <trkpt lat="46.93709" lon="-1.0772">
        <ele>124</ele>
        <time>2023-06-01T01:11:27Z</time>
      </trkpt>
      <trkpt lat="46.93701" lon="-1.0771">
        <ele>124</ele>
        <time>2023-06-01T01:11:29Z</time>
      </trkpt>
      <trkpt lat="46.93697" lon="-1.07696">
        <ele>124</ele>
        <time>2023-06-01T01:11:31Z</time>
      </trkpt>
      <trkpt lat="46.93697" lon="-1.07688">
        <ele>124</ele>
        <time>2023-06-01T01:11:32Z</time>
      </trkpt>
      <trkpt lat="46.93699" lon="-1.07674">
        <ele>124</ele>
        <time>2023-06-01T01:11:33Z</time>
      </trkpt>
      <trkpt lat="46.93695" lon="-1.07656">
        <ele>125</ele>
        <time>2023-06-01T01:11:36Z</time>
      </trkpt>
      <trkpt lat="46.93676" lon="-1.07618">
        <ele>125</ele>
        <time>2023-06-01T01:11:42Z</time>
      </trkpt>
      <trkpt lat="46.93658" lon="-1.07594">
        <ele>126</ele>
        <time>2023-06-01T01:11:46Z</time>
      </trkpt>
      <trkpt lat="46.93621" lon="-1.07553">
        <ele>127</ele>
        <time>2023-06-01T01:11:54Z</time>
      </trkpt>
      <trkpt lat="46.93484" lon="-1.07407">
        <ele>131</ele>
        <time>2023-06-01T01:12:24Z</time>
      </trkpt>
      <trkpt lat="46.93444" lon="-1.07357">
        <ele>130</ele>
        <time>2023-06-01T01:12:34Z</time>
      </trkpt>
      <trkpt lat="46.93416" lon="-1.07318">
        <ele>130</ele>
        <time>2023-06-01T01:12:40Z</time>
      </trkpt>
      <trkpt lat="46.93391" lon="-1.07276">
        <ele>130</ele>
        <time>2023-06-01T01:12:47Z</time>
      </trkpt>
      <trkpt lat="46.93365" lon="-1.0722">
        <ele>129</ele>
        <time>2023-06-01T01:12:55Z</time>
      </trkpt>
      <trkpt lat="46.93347" lon="-1.07171">
        <ele>129</ele>
        <time>2023-06-01T01:13:02Z</time>
      </trkpt>
      <trkpt lat="46.93335" lon="-1.0713">
        <ele>130</ele>
        <time>2023-06-01T01:13:08Z</time>
      </trkpt>
      <trkpt lat="46.93266" lon="-1.0683">
        <ele>140</ele>
        <time>2023-06-01T01:13:46Z</time>
      </trkpt>
      <trkpt lat="46.93109" lon="-1.06154">
        <ele>159</ele>
        <time>2023-06-01T01:15:13Z</time>
      </trkpt>
      <trkpt lat="46.93064" lon="-1.05953">
        <ele>161</ele>
        <time>2023-06-01T01:15:39Z</time>
      </trkpt>
      <trkpt lat="46.93057" lon="-1.05909">
        <ele>160</ele>
        <time>2023-06-01T01:15:44Z</time>
      </trkpt>
      <trkpt lat="46.93051" lon="-1.05844">
        <ele>160</ele>
        <time>2023-06-01T01:15:52Z</time>
      </trkpt>
      <trkpt lat="46.93052" lon="-1.05812">
        <ele>161</ele>
        <time>2023-06-01T01:15:56Z</time>
      </trkpt>
      <trkpt lat="46.93053" lon="-1.05781">
        <ele>163</ele>
        <time>2023-06-01T01:16:00Z</time>
      </trkpt>
      <trkpt lat="46.93064" lon="-1.05715">
        <ele>168</ele>
        <time>2023-06-01T01:16:08Z</time>
      </trkpt>
      <trkpt lat="46.93085" lon="-1.05644">
        <ele>171</ele>
        <time>2023-06-01T01:16:17Z</time>
      </trkpt>
      <trkpt lat="46.93099" lon="-1.05612">
        <ele>172</ele>
        <time>2023-06-01T01:16:22Z</time>
      </trkpt>
      <trkpt lat="46.93116" lon="-1.05579">
        <ele>174</ele>
        <time>2023-06-01T01:16:27Z</time>
      </trkpt>
      <trkpt lat="46.9315" lon="-1.05523">
        <ele>179</ele>
        <time>2023-06-01T01:16:36Z</time>
      </trkpt>
      <trkpt lat="46.93145" lon="-1.05508">
        <ele>180</ele>
        <time>2023-06-01T01:16:38Z</time>
      </trkpt>
      <trkpt lat="46.93146" lon="-1.05491">
        <ele>181</ele>
        <time>2023-06-01T01:16:40Z</time>
      </trkpt>
      <trkpt lat="46.92188" lon="-1.05024">
        <ele>160</ele>
        <time>2023-06-01T01:19:40Z</time>
      </trkpt>
      <trkpt lat="46.9206" lon="-1.0496">
        <ele>155</ele>
        <time>2023-06-01T01:20:04Z</time>
      </trkpt>
      <trkpt lat="46.91893" lon="-1.0488">
        <ele>150</ele>
        <time>2023-06-01T01:20:35Z</time>
      </trkpt>
      <trkpt lat="46.91797" lon="-1.04831">
        <ele>146</ele>
        <time>2023-06-01T01:20:53Z</time>
      </trkpt>
      <trkpt lat="46.91719" lon="-1.04789">
        <ele>142</ele>
        <time>2023-06-01T01:21:08Z</time>
      </trkpt>
      <trkpt lat="46.91622" lon="-1.04732">
        <ele>138</ele>
        <time>2023-06-01T01:21:27Z</time>
      </trkpt>
      <trkpt lat="46.91185" lon="-1.04517">
        <ele>122</ele>
        <time>2023-06-01T01:22:49Z</time>
      </trkpt>
      <trkpt lat="46.91153" lon="-1.04501">
        <ele>121</ele>
        <time>2023-06-01T01:22:55Z</time>
      </trkpt>
      <trkpt lat="46.91105" lon="-1.04479">
        <ele>118</ele>
        <time>2023-06-01T01:23:04Z</time>
      </trkpt>
      <trkpt lat="46.91055" lon="-1.04461">
        <ele>115</ele>
        <time>2023-06-01T01:23:13Z</time>
      </trkpt>
      <trkpt lat="46.90992" lon="-1.04444">
        <ele>112</ele>
        <time>2023-06-01T01:23:24Z</time>
      </trkpt>
      <trkpt lat="46.90965" lon="-1.0444">
        <ele>114</ele>
        <time>2023-06-01T01:23:29Z</time>
      </trkpt>
      <trkpt lat="46.9091" lon="-1.04436">
        <ele>117</ele>
        <time>2023-06-01T01:23:39Z</time>
      </trkpt>
      <trkpt lat="46.90865" lon="-1.04437">
        <ele>120</ele>
        <time>2023-06-01T01:23:47Z</time>
      </trkpt>
      <trkpt lat="46.90698" lon="-1.04449">
        <ele>123</ele>
        <time>2023-06-01T01:24:17Z</time>
      </trkpt>
      <trkpt lat="46.9058" lon="-1.04454">
        <ele>123</ele>
        <time>2023-06-01T01:24:38Z</time>
      </trkpt>
      <trkpt lat="46.90535" lon="-1.0445">
        <ele>121</ele>
        <time>2023-06-01T01:24:46Z</time>
      </trkpt>
      <trkpt lat="46.90491" lon="-1.04443">
        <ele>120</ele>
        <time>2023-06-01T01:24:54Z</time>
      </trkpt>
      <trkpt lat="46.90409" lon="-1.0442">
        <ele>121</ele>
        <time>2023-06-01T01:25:08Z</time>
      </trkpt>
      <trkpt lat="46.90342" lon="-1.04391">
        <ele>120</ele>
        <time>2023-06-01T01:25:21Z</time>
      </trkpt>
      <trkpt lat="46.90231" lon="-1.04339">
        <ele>118</ele>
        <time>2023-06-01T01:25:42Z</time>
      </trkpt>
      <trkpt lat="46.9021" lon="-1.04339">
        <ele>118</ele>
        <time>2023-06-01T01:25:45Z</time>
      </trkpt>
      <trkpt lat="46.90198" lon="-1.04344">
        <ele>118</ele>
        <time>2023-06-01T01:25:47Z</time>
      </trkpt>
      <trkpt lat="46.90192" lon="-1.04357">
        <ele>118</ele>
        <time>2023-06-01T01:25:49Z</time>
      </trkpt>
      <trkpt lat="46.90181" lon="-1.04365">
        <ele>118</ele>
        <time>2023-06-01T01:25:52Z</time>
      </trkpt>
      <trkpt lat="46.90175" lon="-1.04365">
        <ele>118</ele>
        <time>2023-06-01T01:25:53Z</time>
      </trkpt>
      <trkpt lat="46.90167" lon="-1.04362">
        <ele>118</ele>
        <time>2023-06-01T01:25:54Z</time>
      </trkpt>
      <trkpt lat="46.90158" lon="-1.04354">
        <ele>118</ele>
        <time>2023-06-01T01:25:56Z</time>
      </trkpt>
      <trkpt lat="46.90154" lon="-1.04343">
        <ele>118</ele>
        <time>2023-06-01T01:25:58Z</time>
      </trkpt>
      <trkpt lat="46.90152" lon="-1.04331">
        <ele>119</ele>
        <time>2023-06-01T01:25:59Z</time>
      </trkpt>
      <trkpt lat="46.90153" lon="-1.04319">
        <ele>118</ele>
        <time>2023-06-01T01:26:00Z</time>
      </trkpt>
      <trkpt lat="46.9016" lon="-1.04304">
        <ele>118</ele>
        <time>2023-06-01T01:26:03Z</time>
      </trkpt>
      <trkpt lat="46.90165" lon="-1.04299">
        <ele>118</ele>
        <time>2023-06-01T01:26:04Z</time>
      </trkpt>
      <trkpt lat="46.90157" lon="-1.04292">
        <ele>118</ele>
        <time>2023-06-01T01:26:05Z</time>
      </trkpt>
      <trkpt lat="46.90151" lon="-1.04297">
        <ele>119</ele>
        <time>2023-06-01T01:26:07Z</time>
      </trkpt>
      <trkpt lat="46.90146" lon="-1.04298">
        <ele>119</ele>
        <time>2023-06-01T01:26:08Z</time>
      </trkpt>
      <trkpt lat="46.90142" lon="-1.04293">
        <ele>119</ele>
        <time>2023-06-01T01:26:08Z</time>
      </trkpt>
      <trkpt lat="46.9006" lon="-1.0426">
        <ele>121</ele>
        <time>2023-06-01T01:26:24Z</time>
      </trkpt>
      <trkpt lat="46.89807" lon="-1.04134">
        <ele>118</ele>
        <time>2023-06-01T01:27:11Z</time>
      </trkpt>
      <trkpt lat="46.89572" lon="-1.04006">
        <ele>117</ele>
        <time>2023-06-01T01:27:56Z</time>
      </trkpt>
      <trkpt lat="46.89559" lon="-1.04005">
        <ele>116</ele>
        <time>2023-06-01T01:27:58Z</time>
      </trkpt>
      <trkpt lat="46.89541" lon="-1.03998">
        <ele>116</ele>
        <time>2023-06-01T01:28:01Z</time>
      </trkpt>
      <trkpt lat="46.89514" lon="-1.03981">
        <ele>116</ele>
        <time>2023-06-01T01:28:07Z</time>
      </trkpt>
      <trkpt lat="46.89506" lon="-1.0397">
        <ele>116</ele>
        <time>2023-06-01T01:28:09Z</time>
      </trkpt>
      <trkpt lat="46.89137" lon="-1.0377">
        <ele>114</ele>
        <time>2023-06-01T01:29:19Z</time>
      </trkpt>
      <trkpt lat="46.89079" lon="-1.03736">
        <ele>115</ele>
        <time>2023-06-01T01:29:30Z</time>
      </trkpt>
      <trkpt lat="46.89066" lon="-1.03728">
        <ele>115</ele>
        <time>2023-06-01T01:29:32Z</time>
      </trkpt>
      <trkpt lat="46.88949" lon="-1.0363">
        <ele>113</ele>
        <time>2023-06-01T01:29:56Z</time>
      </trkpt>
      <trkpt lat="46.8891" lon="-1.03601">
        <ele>112</ele>
        <time>2023-06-01T01:30:04Z</time>
      </trkpt>
      <trkpt lat="46.88906" lon="-1.03583">
        <ele>112</ele>
        <time>2023-06-01T01:30:06Z</time>
      </trkpt>
      <trkpt lat="46.88906" lon="-1.03576">
        <ele>112</ele>
        <time>2023-06-01T01:30:07Z</time>
      </trkpt>
      <trkpt lat="46.88894" lon="-1.03553">
        <ele>112</ele>
        <time>2023-06-01T01:30:11Z</time>
      </trkpt>
      <trkpt lat="46.88884" lon="-1.03551">
        <ele>112</ele>
        <time>2023-06-01T01:30:12Z</time>
      </trkpt>
      <trkpt lat="46.88876" lon="-1.03542">
        <ele>112</ele>
        <time>2023-06-01T01:30:14Z</time>
      </trkpt>
      <trkpt lat="46.88863" lon="-1.03553">
        <ele>112</ele>
        <time>2023-06-01T01:30:17Z</time>
      </trkpt>
      <trkpt lat="46.88857" lon="-1.03516">
        <ele>112</ele>
        <time>2023-06-01T01:30:22Z</time>
      </trkpt>
      <trkpt lat="46.8885" lon="-1.03489">
        <ele>113</ele>
        <time>2023-06-01T01:30:25Z</time>
      </trkpt>
      <trkpt lat="46.88845" lon="-1.03458">
        <ele>114</ele>
        <time>2023-06-01T01:30:29Z</time>
      </trkpt>
      <trkpt lat="46.88842" lon="-1.03427">
        <ele>115</ele>
        <time>2023-06-01T01:30:33Z</time>
      </trkpt>
      <trkpt lat="46.88846" lon="-1.0329">
        <ele>119</ele>
        <time>2023-06-01T01:30:49Z</time>
      </trkpt>
      <trkpt lat="46.88845" lon="-1.03241">
        <ele>120</ele>
        <time>2023-06-01T01:30:55Z</time>
      </trkpt>
      <trkpt lat="46.8884" lon="-1.03196">
        <ele>121</ele>
        <time>2023-06-01T01:31:01Z</time>
      </trkpt>
      <trkpt lat="46.88831" lon="-1.0314">
        <ele>122</ele>
        <time>2023-06-01T01:31:08Z</time>
      </trkpt>
      <trkpt lat="46.88819" lon="-1.03102">
        <ele>122</ele>
        <time>2023-06-01T01:31:13Z</time>
      </trkpt>
      <trkpt lat="46.88803" lon="-1.03063">
        <ele>123</ele>
        <time>2023-06-01T01:31:19Z</time>
      </trkpt>
      <trkpt lat="46.88785" lon="-1.03027">
        <ele>123</ele>
        <time>2023-06-01T01:31:24Z</time>
      </trkpt>
      <trkpt lat="46.88769" lon="-1.03">
        <ele>124</ele>
        <time>2023-06-01T01:31:28Z</time>
      </trkpt>
      <trkpt lat="46.8875" lon="-1.02974">
        <ele>125</ele>
        <time>2023-06-01T01:31:33Z</time>
      </trkpt>
      <trkpt lat="46.88723" lon="-1.02946">
        <ele>126</ele>
        <time>2023-06-01T01:31:39Z</time>
      </trkpt>
      <trkpt lat="46.88692" lon="-1.02919">
        <ele>126</ele>
        <time>2023-06-01T01:31:45Z</time>
      </trkpt>
      <trkpt lat="46.88196" lon="-1.02544">
        <ele>119</ele>
        <time>2023-06-01T01:33:25Z</time>
      </trkpt>
      <trkpt lat="46.88189" lon="-1.02554">
        <ele>119</ele>
        <time>2023-06-01T01:33:26Z</time>
      </trkpt>
      <trkpt lat="46.8818" lon="-1.02555">
        <ele>119</ele>
        <time>2023-06-01T01:33:28Z</time>
      </trkpt>
      <trkpt lat="46.88172" lon="-1.02546">
        <ele>119</ele>
        <time>2023-06-01T01:33:30Z</time>
      </trkpt>
      <trkpt lat="46.8817" lon="-1.0254">
        <ele>119</ele>
        <time>2023-06-01T01:33:31Z</time>
      </trkpt>
      <trkpt lat="46.88171" lon="-1.02526">
        <ele>119</ele>
        <time>2023-06-01T01:33:32Z</time>
      </trkpt>
      <trkpt lat="46.87759" lon="-1.02214">
        <ele>117</ele>
        <time>2023-06-01T01:34:55Z</time>
      </trkpt>
      <trkpt lat="46.87742" lon="-1.02203">
        <ele>116</ele>
        <time>2023-06-01T01:34:58Z</time>
      </trkpt>
      <trkpt lat="46.87736" lon="-1.02201">
        <ele>116</ele>
        <time>2023-06-01T01:34:59Z</time>
      </trkpt>
      <trkpt lat="46.87711" lon="-1.02177">
        <ele>116</ele>
        <time>2023-06-01T01:35:05Z</time>
      </trkpt>
      <trkpt lat="46.87701" lon="-1.0217">
        <ele>116</ele>
        <time>2023-06-01T01:35:07Z</time>
      </trkpt>
      <trkpt lat="46.87698" lon="-1.02173">
        <ele>116</ele>
        <time>2023-06-01T01:35:07Z</time>
      </trkpt>
      <trkpt lat="46.8769" lon="-1.02171">
        <ele>116</ele>
        <time>2023-06-01T01:35:09Z</time>
      </trkpt>
      <trkpt lat="46.87686" lon="-1.02167">
        <ele>116</ele>
        <time>2023-06-01T01:35:09Z</time>
      </trkpt>
      <trkpt lat="46.87684" lon="-1.02159">
        <ele>116</ele>
        <time>2023-06-01T01:35:10Z</time>
      </trkpt>
      <trkpt lat="46.87676" lon="-1.02151">
        <ele>116</ele>
        <time>2023-06-01T01:35:12Z</time>
      </trkpt>
      <trkpt lat="46.87667" lon="-1.02148">
        <ele>116</ele>
        <time>2023-06-01T01:35:14Z</time>
      </trkpt>
      <trkpt lat="46.87643" lon="-1.02131">
        <ele>116</ele>
        <time>2023-06-01T01:35:19Z</time>
      </trkpt>
      <trkpt lat="46.87634" lon="-1.02119">
        <ele>116</ele>
        <time>2023-06-01T01:35:21Z</time>
      </trkpt>
      <trkpt lat="46.87456" lon="-1.01984">
        <ele>110</ele>
        <time>2023-06-01T01:35:56Z</time>
      </trkpt>
      <trkpt lat="46.87393" lon="-1.01939">
        <ele>110</ele>
        <time>2023-06-01T01:36:09Z</time>
      </trkpt>
      <trkpt lat="46.87229" lon="-1.01816">
        <ele>113</ele>
        <time>2023-06-01T01:36:42Z</time>
      </trkpt>
      <trkpt lat="46.87081" lon="-1.01707">
        <ele>111</ele>
        <time>2023-06-01T01:37:11Z</time>
      </trkpt>
      <trkpt lat="46.87078" lon="-1.01712">
        <ele>111</ele>
        <time>2023-06-01T01:37:12Z</time>
      </trkpt>
      <trkpt lat="46.87075" lon="-1.01712">
        <ele>110</ele>
        <time>2023-06-01T01:37:13Z</time>
      </trkpt>
      <trkpt lat="46.87073" lon="-1.01709">
        <ele>110</ele>
        <time>2023-06-01T01:37:13Z</time>
      </trkpt>
      <trkpt lat="46.87072" lon="-1.01706">
        <ele>110</ele>
        <time>2023-06-01T01:37:13Z</time>
      </trkpt>
      <trkpt lat="46.87073" lon="-1.01702">
        <ele>110</ele>
        <time>2023-06-01T01:37:14Z</time>
      </trkpt>
      <trkpt lat="46.87077" lon="-1.017">
        <ele>110</ele>
        <time>2023-06-01T01:37:15Z</time>
      </trkpt>
      <trkpt lat="46.87103" lon="-1.01544">
        <ele>108</ele>
        <time>2023-06-01T01:37:34Z</time>
      </trkpt>
      <trkpt lat="46.87107" lon="-1.01537">
        <ele>109</ele>
        <time>2023-06-01T01:37:35Z</time>
      </trkpt>
      <trkpt lat="46.8711" lon="-1.01428">
        <ele>107</ele>
        <time>2023-06-01T01:37:49Z</time>
      </trkpt>
      <trkpt lat="46.87115" lon="-1.0134">
        <ele>108</ele>
        <time>2023-06-01T01:37:59Z</time>
      </trkpt>
      <trkpt lat="46.87115" lon="-1.0132">
        <ele>108</ele>
        <time>2023-06-01T01:38:02Z</time>
      </trkpt>
      <trkpt lat="46.87114" lon="-1.01307">
        <ele>108</ele>
        <time>2023-06-01T01:38:03Z</time>
      </trkpt>
      <trkpt lat="46.8704" lon="-1.0106">
        <ele>102</ele>
        <time>2023-06-01T01:38:36Z</time>
      </trkpt>
      <trkpt lat="46.87006" lon="-1.00942">
        <ele>102</ele>
        <time>2023-06-01T01:38:52Z</time>
      </trkpt>
      <trkpt lat="46.87" lon="-1.00931">
        <ele>103</ele>
        <time>2023-06-01T01:38:53Z</time>
      </trkpt>
      <trkpt lat="46.86999" lon="-1.00914">
        <ele>103</ele>
        <time>2023-06-01T01:38:56Z</time>
      </trkpt>
      <trkpt lat="46.86983" lon="-1.00859">
        <ele>105</ele>
        <time>2023-06-01T01:39:03Z</time>
      </trkpt>
      <trkpt lat="46.86948" lon="-1.00671">
        <ele>109</ele>
        <time>2023-06-01T01:39:27Z</time>
      </trkpt>
      <trkpt lat="46.86937" lon="-1.00661">
        <ele>109</ele>
        <time>2023-06-01T01:39:29Z</time>
      </trkpt>
      <trkpt lat="46.86853" lon="-1.00633">
        <ele>112</ele>
        <time>2023-06-01T01:39:44Z</time>
      </trkpt>
      <trkpt lat="46.86836" lon="-1.00634">
        <ele>112</ele>
        <time>2023-06-01T01:39:47Z</time>
      </trkpt>
      <trkpt lat="46.86765" lon="-1.00654">
        <ele>111</ele>
        <time>2023-06-01T01:40:00Z</time>
      </trkpt>
      <trkpt lat="46.86714" lon="-1.00674">
        <ele>111</ele>
        <time>2023-06-01T01:40:09Z</time>
      </trkpt>
      <trkpt lat="46.86712" lon="-1.00666">
        <ele>111</ele>
        <time>2023-06-01T01:40:10Z</time>
      </trkpt>
      <trkpt lat="46.86708" lon="-1.0066">
        <ele>111</ele>
        <time>2023-06-01T01:40:12Z</time>
      </trkpt>
      <trkpt lat="46.86664" lon="-1.00646">
        <ele>111</ele>
        <time>2023-06-01T01:40:20Z</time>
      </trkpt>
      <trkpt lat="46.86595" lon="-1.00621">
        <ele>116</ele>
        <time>2023-06-01T01:40:32Z</time>
      </trkpt>
      <trkpt lat="46.86556" lon="-1.006">
        <ele>117</ele>
        <time>2023-06-01T01:40:40Z</time>
      </trkpt>
      <trkpt lat="46.86523" lon="-1.00577">
        <ele>118</ele>
        <time>2023-06-01T01:40:46Z</time>
      </trkpt>
      <trkpt lat="46.86495" lon="-1.00567">
        <ele>119</ele>
        <time>2023-06-01T01:40:51Z</time>
      </trkpt>
      <trkpt lat="46.86461" lon="-1.00561">
        <ele>120</ele>
        <time>2023-06-01T01:40:57Z</time>
      </trkpt>
      <trkpt lat="46.86426" lon="-1.00564">
        <ele>120</ele>
        <time>2023-06-01T01:41:04Z</time>
      </trkpt>
      <trkpt lat="46.86391" lon="-1.00556">
        <ele>120</ele>
        <time>2023-06-01T01:41:10Z</time>
      </trkpt>
      <trkpt lat="46.86381" lon="-1.00562">
        <ele>120</ele>
        <time>2023-06-01T01:41:12Z</time>
      </trkpt>
      <trkpt lat="46.86367" lon="-1.00581">
        <ele>120</ele>
        <time>2023-06-01T01:41:15Z</time>
      </trkpt>
    </trkseg>
  </trk>
</gpx>